[[{"header":{"parameterUnit":"m.s-1","parameterCategory":1,"la1":31.0,"la2":29.5877,"lo1":-88.7671,"lo2":-86.6584,"dy":0.0162,"dx":0.0185,"nx":115,"ny":88,"refTime":"2024-08-31T06:00:00:Z","depth":0,"parameterNumber":2,"parameterNumberName":"U-component_of_WINDS"},"data":[0.0,0.0,0.0,0.0,0.0,0.0,0.0,0.0,0.0,0.0,0.0,0.0,0.0,0.0,0.0,0.0,0.0,0.0,0.0,0.0,0.0,0.0,0.0,0.0,0.0,0.0,0.0,0.0,0.0,0.0,0.0,0.0,0.0,0.0,0.0,0.0,0.0,0.0,0.0,0.0,0.0,0.0,0.0,0.0,0.0,0.0,0.0,0.0,0.0,0.0,0.0,0.0,0.0,0.0,0.0,0.0,0.0,0.0,0.0,0.0,0.0,0.0,0.0,0.0,0.0,0.0,0.0,0.0,0.0,0.0,0.0,0.0,0.0,0.0,0.0,0.0,0.0,0.0,0.0,0.0,0.0,0.0,0.0,0.0,0.0,0.0,0.0,0.0,0.0,0.0,0.0,0.0,0.0,0.0,0.0,0.0,0.0,0.0,0.0,0.0,0.0,0.0,0.0,0.0,0.0,0.0,0.0,0.0,0.0,0.0,0.0,0.0,0.0,0.0,0.0,0.0,0.0,0.0,0.0,0.0,0.0,0.0,0.0,0.0,0.0,0.0,0.0,0.0,0.0,0.0,0.0,0.0,0.0,0.0,0.0,0.0,0.0,0.0,0.0,0.0,0.0,0.0,0.0,0.0,0.0,0.0,0.0,0.0,0.0,0.0,0.0,0.0,0.0,0.0,0.0,0.0,0.0,0.0,0.0,0.0,0.0,0.0,0.0,0.0,0.0,0.0,0.0,0.0,0.0,0.0,0.0,0.0,0.0,0.0,0.0,0.0,0.0,0.0,0.0,0.0,0.0,0.0,0.0,0.0,0.0,0.0,0.0,0.0,0.0,0.0,0.0,0.0,0.0,0.0,0.0,0.0,0.0,0.0,0.0,0.0,0.0,0.0,0.0,0.0,0.0,0.0,0.0,0.0,0.0,0.0,0.0,0.0,0.0,0.0,0.0,0.0,0.0,0.0,0.0,0.0,0.0,0.0,0.0,0.0,0.0,0.0,0.0,0.0,0.0,0.0,0.0,0.0,0.0,0.0,0.0,0.0,0.0,0.0,0.0,0.0,0.0,0.0,0.0,0.0,0.0,0.0,0.0,0.0,0.0,0.0,0.0,0.0,0.0,0.0,0.0,0.0,0.0,0.0,0.0,0.0,0.0,0.0,0.0,0.0,0.0,0.0,0.0,0.0,0.0,0.0,0.0,0.0,0.0,0.0,0.0,0.0,0.0,0.0,0.0,0.0,0.0,0.0,0.0,0.0,0.0,0.0,0.0,0.0,0.0,0.0,0.0,0.0,0.0,0.0,0.0,0.0,0.0,0.0,0.0,0.0,0.0,0.0,0.0,0.0,0.0,0.0,0.0,0.0,0.0,0.0,0.0,0.0,0.0,0.0,0.0,0.0,0.0,0.0,0.0,0.0,0.0,0.0,0.0,0.0,0.0,0.0,0.0,0.0,0.0,0.0,0.0,0.0,0.0,0.0,0.0,0.0,0.0,0.0,0.0,0.0,0.0,0.0,0.0,0.0,0.0,0.0,0.0,0.0,0.0,0.0,0.0,0.0,0.0,0.0,0.0,0.0,0.0,0.0,0.0,0.0,0.0,0.0,0.0,0.0,0.0,0.0,0.0,0.0,0.0,0.0,0.0,0.0,0.0,0.0,0.0,0.0,0.0,0.0,0.0,0.0,0.0,0.0,0.0,0.0,0.0,0.0,0.0,0.0,0.0,0.0,0.0,0.0,0.0,0.0,0.0,0.0,0.0,0.0,0.0,0.0,0.0,0.0,0.0,0.0,0.0,0.0,0.0,0.0,0.0,0.0,0.0,0.0,0.0,0.0,0.0,0.0,0.0,0.0,0.0,0.0,0.0,0.0,0.0,0.0,0.0,0.0,0.0,0.0,0.0,0.0,0.0,0.0,0.0,0.0,0.0,0.0,0.0,0.0,0.0,0.0,0.0,0.0,0.0,0.0,0.0,0.0,0.0,0.0,0.0,0.0,0.0,0.0,0.0,0.0,0.0,0.0,0.0,0.0,0.0,0.0,0.0,0.0,0.0,0.0,0.0,0.0,0.0,0.0,0.0,0.0,0.0,0.0,0.0,0.0,0.0,0.0,0.0,0.0,0.0,0.0,0.0,0.0,0.0,0.0,0.0,0.0,0.0,0.0,0.0,0.0,0.0,0.0,0.0,0.0,0.0,0.0,0.0,0.0,0.0,0.0,0.0,0.0,0.0,0.0,0.0,0.0,0.0,0.0,0.0,0.0,0.0,0.0,0.0,0.0,0.0,0.0,0.0,0.0,0.0,0.0,0.0,0.0,0.0,0.0,0.0,0.0,0.0,0.0,0.0,0.0,0.0,0.0,0.0,0.0,0.0,0.0,0.0,0.0,0.0,0.0,0.0,0.0,0.0,0.0,0.0,0.0,0.0,0.0,0.0,0.0,0.0,0.0,0.0,0.0,0.0,0.0,0.0,0.0,0.0,0.0,0.0,0.0,0.0,0.0,0.0,0.0,0.0,0.0,0.0,0.0,0.0,0.0,0.0,0.0,0.0,0.0,0.0,0.0,0.0,0.0,0.0,0.0,0.0,0.0,0.0,0.0,0.0,0.0,0.0,0.0,0.0,0.0,0.0,0.0,0.0,0.0,0.0,0.0,0.0,0.0,0.0,0.0,0.0,0.0,0.0,0.0,0.0,0.0,0.0,0.0,0.0,0.0,0.0,0.0,0.0,0.0,0.0,0.0,0.0,0.0,0.0,0.0,0.0,0.0,0.0,0.0,0.0,0.0,0.0,0.0,0.0,0.0,0.0,0.0,0.0,0.0,0.0,0.0,0.0,0.0,0.0,0.0,0.0,0.0,0.0,0.0,0.0,0.0,0.0,0.0,0.0,0.0,0.0,0.0,0.0,0.0,0.0,0.0,0.0,0.0,0.0,0.0,0.0,0.0,0.0,0.0,0.0,0.0,0.0,0.0,0.0,0.0,0.0,0.0,0.0,0.0,0.0,0.0,0.0,0.0,0.0,0.0,0.0,0.0,0.0,0.0,0.0,0.0,0.0,0.0,0.0,0.0,0.0,0.0,0.0,0.0,0.0,0.0,0.0,0.0,0.0,0.0,0.0,0.0,0.0,0.0,0.0,0.0,0.0,0.0,0.0,0.0,0.0,0.0,0.0,0.0,0.0,0.0,0.0,0.0,0.0,0.0,0.0,0.0,0.0,0.0,0.0,0.0,0.0,0.0,0.0,0.0,0.0,0.0,0.0,0.0,0.0,0.0,0.0,0.0,0.0,0.0,0.0,0.0,0.0,0.0,0.0,0.0,0.0,0.0,0.0,0.0,0.0,0.0,0.0,0.0,0.0,0.0,0.0,0.0,0.0,0.0,0.0,0.0,0.0,0.0,0.0,0.0,0.0,0.0,0.0,0.0,0.0,0.0,0.0,0.0,0.0,0.0,0.0,0.0,0.0,0.0,0.0,0.0,0.0,0.0,0.0,0.0,0.0,0.0,0.0,0.0,0.0,0.0,0.0,0.0,0.0,0.0,0.0,0.0,0.0,0.0,0.0,0.0,0.0,0.0,0.0,0.0,0.0,0.0,0.0,0.0,0.0,0.0,0.0,0.0,0.0,0.0,0.0,0.0,0.0,0.0,0.0,0.0,0.0,0.0,0.0,0.0,0.0,0.0,0.0,0.0,0.0,0.0,0.0,0.0,0.0,0.0,0.0,0.0,0.0,0.0,0.0,0.0,0.0,0.0,0.0,0.0,0.0,0.0,0.0,0.0,0.0,0.0,0.0,0.0,0.0,0.0,0.0,0.0,0.0,0.0,0.0,0.0,0.0,0.0,0.0,0.0,0.0,0.0,0.0,0.0,0.0,0.0,0.0,0.0,0.0,0.0,0.0,0.0,0.0,0.0,0.0,0.0,0.0,0.0,0.0,0.0,0.0,0.0,0.0,0.0,0.0,0.0,0.0,0.0,0.0,0.0,0.0,0.0,0.0,0.0,0.0,0.0,0.0,0.0,0.0,0.0,0.0,0.0,0.0,0.0,0.0,0.0,0.0,0.0,0.0,0.0,0.0,0.0,0.0,0.0,0.0,0.0,0.0,0.0,0.0,0.0,0.0,0.0,0.0,0.0,0.0,0.0,0.0,0.0,0.0,0.0,0.0,0.0,0.0,0.0,0.0,0.0,0.0,0.0,0.0,0.0,0.0,0.0,0.0,0.0,0.0,0.0,0.0,0.0,0.0,0.0,0.0,0.0,0.0,0.0,0.0,0.0,0.0,0.0,-0.9983,0.0,0.0,0.0,0.0,0.0,0.0,0.0,0.0,0.0,0.0,0.0,0.0,0.0,0.0,0.0,0.0,0.0,0.0,0.0,0.0,0.0,0.0,0.0,0.0,0.0,0.0,0.0,0.0,0.0,0.0,0.0,0.0,0.0,0.0,0.0,0.0,0.0,0.0,0.0,0.0,0.0,0.0,0.0,0.0,0.0,0.0,0.0,0.0,0.0,0.0,0.0,0.0,0.0,0.0,0.0,0.0,0.0,0.0,0.0,0.0,0.0,0.0,0.0,0.0,0.0,0.0,0.0,0.0,0.0,0.0,0.0,0.0,0.0,0.0,0.0,0.0,0.0,0.0,0.0,0.0,0.0,0.0,0.0,0.0,0.0,0.0,0.0,0.0,0.0,0.0,0.0,0.0,0.0,0.0,0.0,0.0,0.0,0.0,0.0,0.0,0.0,0.0,0.0,0.0,0.0,0.0,0.0,0.0,0.0,0.0,-0.9074,-0.9193,-0.9911,-1.0375,-1.0491,0.0,0.0,0.0,0.0,0.0,0.0,0.0,0.0,0.0,0.0,0.0,0.0,0.0,0.0,0.0,0.0,0.0,0.0,0.0,0.0,0.0,0.0,0.0,0.0,0.0,0.0,0.0,0.0,0.0,0.0,0.0,0.0,0.0,0.0,0.0,0.0,0.0,0.0,0.0,0.0,0.0,0.0,0.0,0.0,0.0,0.0,0.0,0.0,0.0,0.0,0.0,0.0,0.0,0.0,0.0,0.0,0.0,0.0,0.0,0.0,0.0,0.0,0.0,0.0,0.0,0.0,0.0,0.0,0.0,0.0,0.0,0.0,0.0,0.0,0.0,0.0,0.0,0.0,0.0,0.0,0.0,0.0,0.0,0.0,0.0,0.0,0.0,0.0,0.0,0.0,0.0,0.0,0.0,0.0,0.0,0.0,0.0,0.0,0.0,0.0,0.0,0.0,0.0,0.0,0.0,0.0,0.0,0.0,0.0,0.0,0.0,0.0,-1.0576,-1.098,-1.0487,0.0,0.0,0.0,0.0,0.0,0.0,0.0,0.0,0.0,0.0,0.0,0.0,0.0,0.0,0.0,0.0,0.0,0.0,0.0,0.0,0.0,0.0,0.0,0.0,0.0,0.0,0.0,0.0,0.0,0.0,0.0,0.0,0.0,0.0,0.0,0.0,0.0,0.0,0.0,0.0,0.0,0.0,0.0,0.0,0.0,0.0,0.0,0.0,0.0,0.0,0.0,0.0,0.0,0.0,0.0,0.0,0.0,0.0,0.0,0.0,0.0,0.0,0.0,0.0,0.0,0.0,0.0,0.0,0.0,0.0,0.0,0.0,0.0,0.0,0.0,0.0,0.0,0.0,0.0,0.0,0.0,0.0,0.0,0.0,0.0,0.0,0.0,0.0,0.0,0.0,0.0,0.0,0.0,0.0,0.0,0.0,0.0,0.0,0.0,0.0,0.0,0.0,0.0,0.0,0.0,0.0,0.0,0.0,0.0,0.0,-1.1624,-0.9847,-1.0801,0.0,-1.0338,0.0,0.0,0.0,0.0,0.0,0.0,0.0,0.0,0.0,0.0,0.0,0.0,0.0,0.0,0.0,0.0,0.0,0.0,0.0,0.0,0.0,0.0,0.0,0.0,0.0,0.0,0.0,0.0,0.0,0.0,0.0,0.0,0.0,0.0,0.0,0.0,0.0,0.0,0.0,0.0,0.0,0.0,0.0,0.0,0.0,0.0,0.0,0.0,0.0,0.0,0.0,0.0,0.0,0.0,0.0,0.0,0.0,0.0,0.0,0.0,0.0,0.0,0.0,0.0,0.0,0.0,0.0,0.0,0.0,0.0,0.0,0.0,0.0,0.0,0.0,0.0,0.0,0.0,0.0,0.0,0.0,0.0,0.0,0.0,0.0,0.0,0.0,0.0,0.0,0.0,0.0,0.0,0.0,0.0,0.0,0.0,0.0,0.0,0.0,0.0,0.0,0.0,0.0,0.0,0.0,0.0,0.0,0.0,0.0,0.0,0.0,-1.0841,-1.158,-1.1794,0.0,0.0,0.0,0.0,0.0,0.0,0.0,0.0,0.0,0.0,0.0,0.0,0.0,0.0,0.0,0.0,0.0,0.0,0.0,0.0,0.0,0.0,0.0,0.0,0.0,0.0,0.0,0.0,0.0,0.0,0.0,0.0,0.0,0.0,0.0,0.0,0.0,0.0,0.0,0.0,0.0,0.0,0.0,0.0,0.0,0.0,0.0,0.0,0.0,0.0,0.0,0.0,0.0,0.0,0.0,0.0,0.0,0.0,0.0,0.0,0.0,0.0,0.0,0.0,0.0,0.0,0.0,0.0,0.0,0.0,0.0,0.0,0.0,0.0,0.0,0.0,0.0,0.0,0.0,0.0,0.0,0.0,0.0,0.0,0.0,0.0,0.0,0.0,0.0,0.0,0.0,0.0,0.0,0.0,0.0,0.0,0.0,0.0,0.0,0.0,0.0,0.0,0.0,0.0,0.0,0.0,0.0,0.0,0.0,0.0,-1.2145,0.0,-1.1451,-1.157,-1.1606,-1.1408,0.0,0.0,0.0,0.0,0.0,0.0,0.0,0.0,0.0,0.0,0.0,0.0,0.0,0.0,0.0,0.0,0.0,0.0,0.0,0.0,0.0,0.0,0.0,0.0,0.0,0.0,0.0,0.0,0.0,0.0,0.0,0.0,0.0,0.0,0.0,0.0,0.0,0.0,0.0,0.0,0.0,0.0,0.0,0.0,0.0,0.0,0.0,0.0,0.0,0.0,0.0,0.0,0.0,0.0,0.0,0.0,0.0,0.0,0.0,0.0,0.0,0.0,0.0,0.0,0.0,0.0,0.0,0.0,0.0,0.0,0.0,0.0,0.0,0.0,0.0,0.0,0.0,0.0,0.0,0.0,0.0,0.0,0.0,0.0,0.0,0.0,0.0,0.0,0.0,0.0,0.0,0.0,0.0,0.0,0.0,0.0,0.0,0.0,0.0,0.0,0.0,0.0,0.0,0.0,0.0,0.0,0.0,0.0,0.0,-1.1712,-1.224,-1.1094,-1.0321,-0.9857,0.0,0.0,0.0,0.0,0.0,0.0,0.0,0.0,0.0,0.0,0.0,0.0,0.0,0.0,0.0,0.0,0.0,0.0,0.0,0.0,0.0,0.0,0.0,0.0,0.0,0.0,0.0,0.0,0.0,0.0,0.0,0.0,0.0,0.0,0.0,0.0,0.0,0.0,0.0,0.0,0.0,0.0,0.0,0.0,0.0,0.0,0.0,0.0,0.0,0.0,0.0,0.0,0.0,0.0,0.0,0.0,0.0,0.0,0.0,0.0,0.0,0.0,0.0,0.0,0.0,0.0,0.0,0.0,0.0,0.0,0.0,0.0,0.0,0.0,0.0,0.0,0.0,0.0,0.0,0.0,0.0,0.0,0.0,0.0,0.0,0.0,0.0,0.0,0.0,0.0,0.0,0.0,0.0,0.0,0.0,0.0,0.0,0.0,0.0,0.0,0.0,0.0,0.0,0.0,0.0,0.0,0.0,0.0,0.0,-1.0266,-1.136,-1.2179,-1.2536,-1.1731,-1.1172,0.0,0.0,0.0,0.0,0.0,0.0,0.0,0.0,0.0,0.0,0.0,0.0,0.0,0.0,0.0,0.0,0.0,0.0,0.0,0.0,0.0,0.0,0.0,0.0,0.0,0.0,0.0,0.0,0.0,0.0,0.0,0.0,0.0,0.0,0.0,0.0,0.0,0.0,0.0,0.0,0.0,0.0,0.0,0.0,0.0,0.0,0.0,0.0,0.0,0.0,0.0,0.0,0.0,0.0,0.0,0.0,0.0,0.0,0.0,0.0,0.0,0.0,0.0,0.0,0.0,0.0,0.0,0.0,0.0,0.0,0.0,0.0,0.0,0.0,0.0,0.0,0.0,0.0,0.0,0.0,0.0,0.0,0.0,0.0,0.0,0.0,0.0,0.0,0.0,0.0,0.0,0.0,0.0,0.0,0.0,0.0,0.0,0.0,0.0,0.0,0.0,0.0,0.0,0.0,0.0,0.0,0.0,0.0,0.0,-1.1117,0.0,-1.1598,0.0,-1.2492,-1.1936,0.0,0.0,0.0,0.0,0.0,0.0,0.0,0.0,0.0,0.0,0.0,0.0,0.0,0.0,0.0,0.0,0.0,0.0,0.0,0.0,0.0,0.0,0.0,0.0,0.0,0.0,0.0,0.0,0.0,0.0,0.0,0.0,0.0,0.0,0.0,0.0,0.0,0.0,0.0,0.0,0.0,0.0,0.0,0.0,0.0,0.0,0.0,0.0,0.0,0.0,0.0,0.0,0.0,0.0,0.0,0.0,0.0,0.0,0.0,0.0,0.0,0.0,0.0,0.0,0.0,0.0,0.0,0.0,0.0,0.0,0.0,0.0,0.0,0.0,0.0,0.0,0.0,0.0,0.0,0.0,0.0,0.0,0.0,0.0,0.0,0.0,0.0,0.0,0.0,0.0,0.0,0.0,0.0,0.0,0.0,0.0,0.0,0.0,0.0,0.0,0.0,0.0,0.0,0.0,0.0,0.0,0.0,0.0,-1.0959,-1.2251,-1.0701,-1.0578,-1.2038,-1.2238,-1.1782,0.0,0.0,0.0,0.0,0.0,0.0,0.0,0.0,0.0,0.0,0.0,0.0,0.0,0.0,0.0,0.0,0.0,0.0,0.0,0.0,0.0,0.0,0.0,0.0,0.0,0.0,0.0,0.0,0.0,0.0,0.0,0.0,0.0,0.0,0.0,0.0,0.0,0.0,0.0,0.0,0.0,0.0,0.0,0.0,0.0,0.0,0.0,0.0,0.0,0.0,0.0,0.0,0.0,0.0,0.0,0.0,0.0,0.0,0.0,0.0,0.0,0.0,0.0,0.0,0.0,0.0,0.0,0.0,0.0,0.0,0.0,0.0,0.0,0.0,0.0,0.0,0.0,0.0,0.0,0.0,0.0,0.0,0.0,0.0,0.0,0.0,0.0,0.0,0.0,0.0,0.0,0.0,0.0,0.0,0.0,0.0,0.0,0.0,0.0,0.0,0.0,0.0,0.0,0.0,0.0,0.0,0.0,0.0,0.0,-1.2092,-1.0528,-1.0292,-1.1507,-1.11,-1.0674,0.0,0.0,0.0,0.0,0.0,0.0,0.0,0.0,0.0,0.0,0.0,0.0,0.0,0.0,0.0,0.0,0.0,0.0,0.0,0.0,0.0,0.0,0.0,0.0,0.0,0.0,0.0,0.0,0.0,0.0,0.0,0.0,0.0,0.0,0.0,0.0,0.0,0.0,0.0,0.0,0.0,0.0,0.0,0.0,0.0,0.0,0.0,0.0,0.0,0.0,0.0,0.0,0.0,0.0,0.0,0.0,0.0,0.0,0.0,0.0,0.0,0.0,0.0,0.0,0.0,0.0,0.0,0.0,0.0,0.0,0.0,0.0,0.0,0.0,0.0,0.0,0.0,0.0,0.0,0.0,0.0,0.0,0.0,0.0,0.0,0.0,0.0,0.0,0.0,0.0,0.0,0.0,0.0,0.0,0.0,0.0,0.0,0.0,0.0,0.0,0.0,0.0,0.0,0.0,0.0,0.0,0.0,0.0,0.0,-1.0981,-0.9776,-0.9572,-1.0641,-1.0506,-1.032,-1.0139,0.0,0.0,0.0,0.0,0.0,0.0,0.0,0.0,0.0,0.0,0.0,0.0,0.0,0.0,0.0,0.0,0.0,0.0,0.0,0.0,0.0,0.0,0.0,0.0,0.0,0.0,0.0,0.0,0.0,0.0,0.0,0.0,0.0,0.0,0.0,0.0,0.0,0.0,0.0,0.0,0.0,0.0,0.0,0.0,0.0,0.0,0.0,0.0,0.0,0.0,0.0,0.0,0.0,0.0,0.0,0.0,0.0,0.0,0.0,0.0,0.0,0.0,0.0,0.0,0.0,0.0,0.0,0.0,0.0,0.0,0.0,0.0,0.0,0.0,0.0,0.0,0.0,0.0,0.0,0.0,0.0,0.0,0.0,0.0,0.0,0.0,0.0,0.0,0.0,0.0,0.0,0.0,0.0,0.0,0.0,0.0,0.0,0.0,0.0,0.0,0.0,0.0,0.0,0.0,0.0,0.0,0.0,0.0,-0.9336,-0.8527,-0.8487,-0.9351,-1.0355,-1.0546,0.0,0.0,0.0,0.0,0.0,0.0,0.0,0.0,0.0,0.0,0.0,0.0,0.0,0.0,0.0,0.0,0.0,0.0,0.0,0.0,0.0,0.0,0.0,0.0,0.0,0.0,0.0,0.0,0.0,0.0,0.0,0.0,0.0,0.0,0.0,0.0,0.0,0.0,0.0,0.0,0.0,0.0,0.0,0.0,0.0,0.0,0.0,0.0,0.0,0.0,0.0,0.0,0.0,0.0,0.0,0.0,0.0,0.0,0.0,0.0,0.0,0.0,0.0,0.0,0.0,0.0,0.0,0.0,0.0,0.0,0.0,0.0,0.0,0.0,0.0,0.0,0.0,0.0,0.0,0.0,0.0,0.0,0.0,0.0,0.0,0.0,0.0,0.0,0.0,0.0,0.0,0.0,0.0,0.0,0.0,0.0,0.0,0.0,0.0,0.0,0.0,0.0,0.0,0.0,0.0,0.0,0.0,0.0,0.0,-0.8506,-0.7543,-0.7544,-0.863,-0.9417,-0.9647,0.0,0.0,0.0,0.0,0.0,0.0,0.0,0.0,0.0,0.0,0.0,0.0,0.0,0.0,0.0,0.0,0.0,0.0,0.0,0.0,0.0,0.0,0.0,0.0,0.0,0.0,0.0,0.0,0.0,0.0,0.0,0.0,0.0,0.0,0.0,0.0,0.0,0.0,0.0,0.0,0.0,0.0,0.0,0.0,0.0,0.0,0.0,0.0,0.0,0.0,0.0,0.0,0.0,0.0,0.0,0.0,0.0,0.0,0.0,0.0,0.0,0.0,0.0,0.0,0.0,0.0,0.0,0.0,0.0,0.0,0.0,0.0,0.0,0.0,0.0,0.0,0.0,0.0,0.0,0.0,0.0,0.0,0.0,0.0,0.0,0.0,0.0,0.0,0.0,0.0,0.0,0.0,0.0,0.0,0.0,0.0,0.0,0.0,0.0,0.0,0.0,0.0,0.0,0.0,0.0,0.0,0.0,0.0,-0.877,-0.7555,-0.6924,-0.691,-0.7631,-0.8461,-0.8945,0.0,0.0,0.0,0.0,0.0,0.0,0.0,0.0,0.0,0.0,0.0,0.0,0.0,0.0,0.0,0.0,0.0,0.0,0.0,0.0,0.0,0.0,0.0,0.0,0.0,0.0,0.0,0.0,0.0,0.0,0.0,0.0,0.0,0.0,0.0,0.0,0.0,0.0,0.0,0.0,0.0,0.0,0.0,0.0,0.0,0.0,0.0,0.0,0.0,0.0,0.0,0.0,0.0,0.0,0.0,0.0,0.0,0.0,0.0,0.0,0.0,0.0,0.0,0.0,0.0,0.0,0.0,0.0,0.0,0.0,0.0,0.0,0.0,0.0,0.0,0.0,0.0,0.0,0.0,0.0,0.0,0.0,0.0,0.0,0.0,0.0,0.0,0.0,0.0,0.0,0.0,0.0,0.0,0.0,0.0,0.0,0.0,0.0,0.0,0.0,0.0,0.0,0.0,0.0,0.0,0.0,0.0,0.0,-0.8489,-0.662,-0.66,-0.6572,-0.6625,-0.7632,-0.8418,0.0,0.0,0.0,0.0,0.0,0.0,0.0,0.0,0.0,0.0,0.0,0.0,0.0,0.0,0.0,0.0,0.0,0.0,0.0,0.0,0.0,0.0,0.0,0.0,0.0,0.0,0.0,0.0,0.0,0.0,0.0,0.0,0.0,0.0,0.0,0.0,0.0,0.0,0.0,0.0,0.0,0.0,0.0,0.0,0.0,0.0,0.0,0.0,0.0,0.0,0.0,0.0,0.0,0.0,0.0,0.0,0.0,0.0,0.0,0.0,0.0,0.0,0.0,0.0,0.0,0.0,0.0,0.0,0.0,0.0,0.0,0.0,0.0,0.0,0.0,0.0,0.0,0.0,0.0,0.0,0.0,0.0,0.0,0.0,0.0,0.0,0.0,0.0,0.0,0.0,0.0,0.0,0.0,0.0,0.0,0.0,0.0,0.0,0.0,0.0,0.0,0.0,0.0,0.0,0.0,0.0,0.0,0.0,-0.7739,-0.6497,-0.6425,-0.645,-0.645,-0.7582,-0.8489,0.0,0.0,0.0,0.0,0.0,0.0,0.0,0.0,0.0,0.0,0.0,0.0,0.0,0.0,0.0,0.0,0.0,0.0,0.0,0.0,0.0,0.0,0.0,0.0,0.0,0.0,0.0,0.0,0.0,0.0,0.0,0.0,0.0,0.0,0.0,0.0,0.0,0.0,0.0,0.0,0.0,0.0,0.0,0.0,0.0,0.0,0.0,0.0,-0.8617,0.0,0.0,0.0,0.0,0.0,0.0,0.0,0.0,0.0,0.0,0.0,0.0,0.0,0.0,0.0,0.0,0.0,0.0,0.0,0.0,0.0,0.0,0.0,0.0,0.0,0.0,0.0,0.0,0.0,0.0,0.0,0.0,0.0,0.0,0.0,0.0,0.0,0.0,0.0,0.0,0.0,0.0,0.0,0.0,0.0,0.0,0.0,0.0,0.0,0.0,0.0,0.0,0.0,0.0,0.0,0.0,0.0,0.0,0.0,-0.7478,-0.6437,-0.6412,-0.6412,-0.6439,-0.7023,-0.7874,0.0,0.0,0.0,0.0,0.0,0.0,0.0,0.0,0.0,0.0,0.0,0.0,0.0,0.0,0.0,0.0,0.0,0.0,0.0,0.0,0.0,0.0,0.0,0.0,0.0,0.0,0.0,0.0,0.0,0.0,0.0,0.0,0.0,0.0,0.0,0.0,0.0,0.0,0.0,0.0,0.0,0.0,0.0,0.0,0.0,0.0,0.0,0.0,0.0,0.0,0.0,0.0,0.0,0.0,0.0,0.0,0.0,0.0,0.0,0.0,0.0,0.0,0.0,0.0,0.0,0.0,0.0,0.0,0.0,0.0,0.0,0.0,0.0,0.0,0.0,0.0,0.0,0.0,0.0,0.0,0.0,0.0,0.0,0.0,0.0,0.0,0.0,0.0,0.0,0.0,0.0,0.0,0.0,0.0,0.0,0.0,0.0,0.0,0.0,0.0,0.0,0.0,0.0,0.0,0.0,0.0,0.0,-0.8112,-0.7304,-0.6462,-0.6412,-0.6412,-0.6412,-0.6412,-0.7125,-0.8617,0.0,0.0,0.0,0.0,0.0,0.0,0.0,0.0,0.0,0.0,0.0,0.0,0.0,0.0,0.0,0.0,0.0,0.0,0.0,0.0,0.0,0.0,0.0,0.0,0.0,0.0,0.0,0.0,0.0,0.0,0.0,0.0,0.0,0.0,0.0,0.0,0.0,0.0,-1.1289,-1.1507,0.0,0.0,0.0,0.0,0.0,0.0,0.0,0.0,-1.035,0.0,0.0,0.0,0.0,0.0,0.0,0.0,0.0,0.0,0.0,0.0,0.0,0.0,0.0,0.0,0.0,0.0,0.0,0.0,0.0,0.0,0.0,0.0,0.0,0.0,0.0,0.0,0.0,0.0,0.0,0.0,0.0,0.0,0.0,0.0,0.0,0.0,0.0,0.0,0.0,0.0,0.0,0.0,0.0,0.0,0.0,0.0,0.0,0.0,0.0,0.0,0.0,0.0,0.0,0.0,0.0,-0.814,-0.7158,-0.6587,-0.6412,-0.6412,-0.6412,-0.6412,-0.6412,-0.6813,-0.7688,0.0,0.0,0.0,0.0,0.0,0.0,0.0,0.0,0.0,0.0,0.0,0.0,0.0,0.0,0.0,0.0,0.0,0.0,0.0,0.0,0.0,0.0,0.0,0.0,0.0,0.0,0.0,0.0,0.0,0.0,0.0,0.0,0.0,0.0,0.0,0.0,0.0,0.0,0.0,-1.2087,-1.234,0.0,0.0,0.0,0.0,0.0,0.0,0.0,0.0,-1.0252,0.0,0.0,0.0,0.0,0.0,0.0,0.0,0.0,0.0,0.0,0.0,0.0,0.0,0.0,0.0,0.0,0.0,0.0,0.0,0.0,0.0,0.0,0.0,0.0,0.0,0.0,0.0,0.0,0.0,0.0,0.0,0.0,0.0,0.0,0.0,0.0,0.0,0.0,0.0,0.0,0.0,0.0,0.0,0.0,0.0,0.0,0.0,0.0,0.0,0.0,0.0,0.0,0.0,0.0,0.0,-0.8416,-0.7106,-0.6412,-0.6412,-0.6412,-0.6412,-0.6409,-0.6293,-0.6414,0.0,0.0,0.0,0.0,0.0,0.0,0.0,0.0,0.0,0.0,0.0,0.0,0.0,0.0,0.0,0.0,0.0,0.0,0.0,0.0,0.0,0.0,0.0,0.0,0.0,0.0,0.0,0.0,0.0,0.0,0.0,0.0,0.0,0.0,0.0,0.0,0.0,0.0,0.0,0.0,-1.242,-1.2277,-1.2363,0.0,0.0,0.0,0.0,0.0,0.0,-1.1464,-1.1109,0.0,0.0,0.0,0.0,0.0,0.0,0.0,0.0,0.0,0.0,0.0,0.0,0.0,0.0,0.0,0.0,0.0,0.0,0.0,0.0,0.0,0.0,0.0,0.0,0.0,0.0,0.0,0.0,0.0,0.0,0.0,0.0,0.0,0.0,0.0,0.0,0.0,0.0,0.0,0.0,0.0,0.0,0.0,0.0,0.0,0.0,0.0,0.0,0.0,0.0,0.0,0.0,0.0,0.0,0.0,-0.8973,-0.7315,-0.6412,-0.6412,-0.6412,-0.6412,-0.6409,-0.623,-0.6227,0.0,0.0,0.0,0.0,0.0,0.0,0.0,0.0,0.0,0.0,0.0,0.0,0.0,0.0,0.0,0.0,0.0,0.0,0.0,0.0,0.0,0.0,0.0,0.0,0.0,0.0,0.0,0.0,0.0,0.0,0.0,0.0,0.0,0.0,0.0,0.0,0.0,0.0,0.0,0.0,0.0,-1.2255,-1.2553,-1.2437,0.0,0.0,0.0,0.0,-1.2286,-1.2299,0.0,0.0,0.0,0.0,0.0,0.0,0.0,0.0,0.0,0.0,0.0,0.0,0.0,0.0,0.0,0.0,0.0,0.0,0.0,0.0,0.0,0.0,0.0,0.0,0.0,0.0,0.0,0.0,0.0,0.0,0.0,0.0,0.0,0.0,0.0,0.0,0.0,0.0,0.0,0.0,0.0,0.0,0.0,0.0,0.0,0.0,0.0,0.0,0.0,0.0,0.0,0.0,0.0,0.0,0.0,0.0,-0.9433,-0.7484,-0.6412,-0.6412,-0.6412,-0.6412,-0.6412,-0.6385,-0.6659,0.0,0.0,0.0,0.0,0.0,0.0,0.0,0.0,0.0,0.0,0.0,0.0,0.0,0.0,0.0,0.0,0.0,0.0,0.0,0.0,0.0,0.0,0.0,0.0,0.0,0.0,0.0,0.0,0.0,0.0,0.0,0.0,0.0,0.0,0.0,0.0,0.0,0.0,0.0,0.0,0.0,-1.2864,-1.2637,-1.2674,-1.2776,0.0,0.0,-1.2485,-1.2848,-1.2805,0.0,0.0,0.0,0.0,0.0,0.0,0.0,0.0,0.0,0.0,0.0,0.0,0.0,0.0,0.0,0.0,0.0,0.0,0.0,0.0,0.0,0.0,0.0,0.0,0.0,0.0,0.0,0.0,0.0,0.0,0.0,0.0,0.0,0.0,0.0,0.0,0.0,0.0,0.0,0.0,0.0,0.0,0.0,0.0,0.0,0.0,0.0,0.0,0.0,0.0,0.0,0.0,0.0,0.0,0.0,-0.9128,-0.9304,-0.7491,-0.6479,-0.6414,-0.6412,-0.6412,-0.6412,-0.6282,-0.656,0.0,0.0,0.0,0.0,0.0,0.0,0.0,0.0,0.0,0.0,0.0,0.0,0.0,0.0,0.0,0.0,0.0,0.0,0.0,0.0,0.0,0.0,0.0,0.0,0.0,0.0,0.0,0.0,0.0,0.0,0.0,0.0,0.0,0.0,0.0,0.0,0.0,0.0,0.0,0.0,0.0,0.0,-1.3007,-1.3176,0.0,0.0,0.0,-1.3169,-1.398,0.0,0.0,0.0,0.0,0.0,0.0,0.0,0.0,0.0,0.0,0.0,0.0,0.0,0.0,0.0,0.0,0.0,0.0,0.0,0.0,0.0,0.0,0.0,0.0,0.0,0.0,0.0,0.0,0.0,0.0,0.0,0.0,0.0,0.0,0.0,0.0,0.0,0.0,0.0,0.0,0.0,0.0,0.0,0.0,0.0,0.0,0.0,0.0,0.0,0.0,0.0,0.0,0.0,0.0,0.0,0.0,0.0,-0.932,-0.7529,-0.655,-0.646,-0.64,-0.6509,-0.6781,-0.6676,0.0,0.0,0.0,0.0,0.0,0.0,0.0,0.0,0.0,0.0,0.0,0.0,0.0,0.0,0.0,0.0,0.0,0.0,0.0,0.0,0.0,0.0,0.0,0.0,0.0,0.0,0.0,-1.0886,0.0,0.0,0.0,0.0,0.0,0.0,0.0,0.0,0.0,0.0,0.0,0.0,0.0,0.0,-1.3172,-1.3285,-1.355,-1.367,0.0,0.0,-1.4022,-1.4776,-1.4104,-1.3672,0.0,0.0,0.0,0.0,0.0,0.0,0.0,0.0,0.0,0.0,0.0,0.0,0.0,0.0,0.0,0.0,0.0,0.0,0.0,0.0,0.0,0.0,0.0,0.0,0.0,0.0,0.0,0.0,0.0,0.0,0.0,0.0,0.0,0.0,0.0,0.0,0.0,0.0,0.0,0.0,0.0,0.0,0.0,0.0,0.0,0.0,0.0,0.0,0.0,0.0,0.0,0.0,0.0,0.0,0.0,-0.968,-0.768,-0.6616,-0.6577,-0.6471,-0.688,-0.7847,-0.788,-0.8631,0.0,0.0,0.0,0.0,0.0,0.0,0.0,0.0,0.0,0.0,0.0,0.0,0.0,0.0,0.0,0.0,0.0,0.0,0.0,0.0,0.0,0.0,0.0,0.0,0.0,0.0,0.0,0.0,0.0,0.0,0.0,0.0,0.0,0.0,0.0,0.0,0.0,0.0,0.0,0.0,0.0,-1.3433,-1.3298,-1.3583,-1.3791,0.0,0.0,-1.505,-1.4929,-1.4829,-1.457,-1.3954,0.0,0.0,0.0,0.0,0.0,0.0,0.0,0.0,0.0,0.0,0.0,0.0,0.0,0.0,0.0,0.0,0.0,0.0,0.0,0.0,0.0,0.0,0.0,0.0,0.0,0.0,0.0,0.0,0.0,0.0,0.0,0.0,0.0,0.0,0.0,0.0,0.0,0.0,0.0,0.0,0.0,0.0,0.0,0.0,0.0,0.0,0.0,0.0,0.0,0.0,0.0,0.0,0.0,-0.9752,-1.0811,-0.8782,-0.8033,-0.8649,-0.8475,-0.8566,-0.8962,-0.8991,-0.9384,0.0,0.0,0.0,0.0,0.0,0.0,0.0,0.0,0.0,0.0,0.0,0.0,0.0,0.0,0.0,0.0,0.0,0.0,0.0,0.0,0.0,0.0,0.0,0.0,0.0,0.0,0.0,0.0,-1.2221,-1.2366,-1.2627,0.0,0.0,0.0,0.0,0.0,0.0,0.0,0.0,0.0,0.0,-1.4966,-1.475,-1.5074,0.0,0.0,-1.5347,-1.5596,-1.5388,-1.5174,-1.4991,-1.4717,-1.4433,0.0,0.0,0.0,0.0,0.0,0.0,0.0,0.0,0.0,0.0,0.0,0.0,0.0,0.0,0.0,0.0,0.0,0.0,0.0,0.0,0.0,0.0,0.0,0.0,0.0,0.0,0.0,0.0,0.0,0.0,0.0,0.0,0.0,0.0,0.0,0.0,0.0,0.0,0.0,0.0,0.0,0.0,0.0,0.0,0.0,0.0,0.0,0.0,0.0,0.0,0.0,0.0,-1.0455,-1.156,-0.9794,-0.9279,-1.0,-0.975,-0.9752,-1.0071,-1.0071,-1.032,0.0,0.0,0.0,0.0,0.0,0.0,0.0,0.0,0.0,0.0,0.0,0.0,0.0,0.0,0.0,0.0,0.0,0.0,0.0,0.0,0.0,0.0,0.0,0.0,0.0,0.0,0.0,0.0,-1.2581,-1.2684,-1.287,0.0,0.0,0.0,0.0,0.0,0.0,0.0,0.0,0.0,0.0,-1.5976,-1.565,-1.6011,-1.6114,-1.5671,-1.5771,-1.5793,-1.5531,-1.5384,-1.5303,-1.5204,0.0,0.0,0.0,0.0,0.0,0.0,0.0,0.0,0.0,0.0,0.0,0.0,0.0,0.0,0.0,0.0,0.0,0.0,0.0,0.0,0.0,0.0,0.0,0.0,0.0,0.0,0.0,-1.2004,0.0,0.0,-1.1677,0.0,0.0,0.0,0.0,0.0,0.0,0.0,0.0,0.0,0.0,0.0,0.0,0.0,0.0,0.0,0.0,0.0,0.0,0.0,0.0,0.0,0.0,-1.1459,-1.1695,-1.0638,-1.0084,-1.0149,-0.9791,-1.0149,-1.1121,-1.117,-1.1535,-1.227,0.0,0.0,0.0,0.0,0.0,0.0,0.0,0.0,0.0,0.0,0.0,0.0,0.0,0.0,0.0,0.0,0.0,0.0,0.0,0.0,0.0,0.0,0.0,0.0,0.0,0.0,-1.2772,-1.2977,-1.3082,0.0,0.0,0.0,0.0,0.0,0.0,0.0,0.0,0.0,0.0,-1.5824,-1.6104,-1.5642,-1.6016,-1.6114,-1.5677,-1.5618,-1.5513,-1.5298,-1.5456,-1.5486,0.0,0.0,0.0,0.0,0.0,0.0,0.0,0.0,0.0,0.0,0.0,0.0,0.0,0.0,0.0,0.0,0.0,0.0,0.0,0.0,0.0,0.0,0.0,0.0,0.0,0.0,0.0,-0.9916,-1.0181,0.0,0.0,0.0,0.0,0.0,0.0,0.0,0.0,0.0,0.0,0.0,-0.9957,-0.9392,0.0,0.0,0.0,0.0,0.0,0.0,0.0,0.0,0.0,0.0,0.0,0.0,-1.1904,-1.2792,-1.1919,-1.1736,-1.2324,-1.2088,-1.2038,-1.2248,-1.2262,-1.2254,-1.2183,0.0,0.0,0.0,0.0,0.0,0.0,0.0,0.0,0.0,0.0,0.0,0.0,0.0,0.0,0.0,0.0,0.0,0.0,0.0,0.0,0.0,0.0,0.0,0.0,0.0,-1.2783,0.0,0.0,0.0,0.0,0.0,0.0,0.0,0.0,0.0,0.0,0.0,-1.5262,-1.4272,-1.5379,-1.604,-1.5301,-1.5837,-1.6258,0.0,0.0,0.0,0.0,0.0,0.0,0.0,0.0,0.0,0.0,0.0,0.0,0.0,0.0,-1.6312,-1.5612,-1.5483,-1.5427,-1.5375,0.0,0.0,0.0,0.0,0.0,0.0,0.0,0.0,0.0,0.0,0.0,0.0,0.0,0.0,-0.9,-0.9399,-1.0164,0.0,0.0,0.0,0.0,0.0,0.0,0.0,0.0,-0.985,-0.9539,-0.9387,-0.8817,-0.8836,0.0,-0.988,-1.0096,0.0,0.0,0.0,0.0,0.0,0.0,0.0,0.0,-1.2593,-1.3429,-1.2965,-1.2979,-1.3568,-1.3276,-1.3028,-1.2913,-1.2856,-1.26,-1.2235,-1.2131,-1.2017,0.0,0.0,0.0,0.0,0.0,0.0,0.0,0.0,0.0,0.0,0.0,0.0,0.0,0.0,0.0,0.0,0.0,0.0,0.0,0.0,0.0,0.0,0.0,-1.2431,0.0,0.0,0.0,0.0,0.0,0.0,0.0,0.0,0.0,-1.4839,-1.5443,-1.5581,-1.4759,-1.5748,-1.628,-1.5566,0.0,0.0,0.0,0.0,0.0,0.0,0.0,-1.6284,-1.6409,-1.6247,-1.6242,-1.6737,-1.6904,-1.7001,-1.7001,0.0,0.0,-1.6194,-1.6086,-1.6091,-1.6086,-1.6241,-1.63,-1.6118,-1.6241,-1.6305,0.0,0.0,0.0,0.0,0.0,0.0,0.0,0.0,-0.9154,-0.9338,0.0,-0.9447,0.0,0.0,0.0,0.0,-1.1414,-1.0954,0.0,0.0,-0.831,-0.7867,-0.7744,-0.787,-0.784,-0.7804,-0.9098,-0.9423,-0.8927,-0.9625,0.0,0.0,0.0,0.0,0.0,0.0,-1.3517,-1.3528,-1.3697,-1.3799,-1.3777,-1.3347,-1.312,-1.3098,-1.2902,-1.2681,-1.2447,-1.2654,-1.2597,-1.2182,-1.2285,0.0,0.0,0.0,0.0,0.0,0.0,0.0,0.0,0.0,0.0,0.0,0.0,0.0,0.0,0.0,0.0,0.0,0.0,0.0,0.0,-1.1583,0.0,0.0,0.0,0.0,0.0,0.0,0.0,0.0,0.0,0.0,-1.5746,-1.5716,-1.5873,-1.6493,0.0,0.0,0.0,0.0,-1.6613,-1.6371,-1.6313,-1.6344,-1.6344,-1.6522,-1.6688,-1.6705,0.0,0.0,-1.7001,-1.7001,-1.7001,-1.7001,-1.7001,-1.7001,-1.698,-1.6947,-1.6958,-1.6964,-1.6947,-1.699,-1.699,-1.6915,-1.6942,-0.6565,0.0,0.0,0.0,0.0,-0.8751,-0.8527,-0.8684,-0.8043,-0.8199,-0.8936,-0.9087,0.0,0.0,0.0,0.0,0.0,0.0,-1.0107,-0.9057,-0.9048,-0.8612,-0.7853,-0.7886,-0.7883,-0.7856,-0.8249,-0.836,-0.819,-0.8321,-0.9433,-1.1481,0.0,0.0,0.0,0.0,-1.3723,-1.3707,-1.3965,-1.4003,-1.3793,-1.3659,-1.3422,-1.3114,-1.2907,-1.2756,-1.2667,-1.2751,-1.2805,-1.2797,-1.2549,0.0,0.0,0.0,0.0,0.0,0.0,0.0,0.0,0.0,0.0,0.0,0.0,0.0,0.0,0.0,0.0,0.0,0.0,0.0,-1.2578,-1.1462,-1.105,0.0,0.0,0.0,0.0,0.0,0.0,0.0,0.0,0.0,-1.3392,-1.5297,-1.6262,0.0,0.0,-1.6546,-1.5971,-1.6329,-1.6731,-1.6791,-1.6807,0.0,-1.6807,-1.6758,-1.6748,-1.6877,-1.6958,-1.7001,-1.7001,-1.7001,-1.7001,-1.7001,-1.7001,-1.7001,-1.7001,-1.7001,-1.7001,-1.7001,-1.7001,-1.7001,-1.7001,-1.7001,-1.7001,-0.629,-0.6999,-0.7735,-0.8149,-0.8306,-0.757,-0.7311,-0.7449,-0.702,-0.7256,-0.794,-0.8251,-0.8919,-0.9851,-1.0258,0.0,0.0,0.0,-0.966,-0.8634,-0.8803,-0.8524,-0.793,-0.7903,-0.7903,-0.7933,-0.8416,-0.8385,-0.793,-0.9389,-1.0456,-1.1306,0.0,0.0,-1.2654,-1.3409,-1.3788,-1.3804,-1.4067,-1.4121,-1.397,-1.3868,-1.3562,-1.3125,-1.2994,-1.288,-1.2789,-1.2783,-1.2891,-1.3087,-1.2754,-1.2614,0.0,0.0,0.0,0.0,0.0,0.0,0.0,0.0,0.0,0.0,0.0,-1.172,-1.2234,0.0,0.0,0.0,-1.1054,-1.1358,-1.1628,-1.0669,0.0,0.0,0.0,0.0,0.0,0.0,0.0,-1.2262,-1.1927,-1.1908,-1.2528,-1.4164,-1.5185,-1.4844,-1.5478,-1.6018,-1.6178,0.0,-1.6845,-1.6985,-1.7001,-1.7001,-1.7001,-1.6888,-1.6877,-1.698,-1.7001,-1.7001,-1.7001,-1.7001,-1.7001,-1.7001,-1.7001,-1.7001,-1.7001,-1.7001,-1.7001,-1.7001,-1.7001,-1.7001,-1.7001,-1.7001,-1.7001,-0.6077,-0.6181,-0.6122,-0.6223,-0.6342,-0.6217,-0.6079,-0.597,-0.6215,-0.6563,-0.695,-0.7188,-0.7943,-0.9049,-1.0024,0.0,-0.9004,-0.9252,-0.887,-0.7903,-0.7903,-0.7903,-0.7903,-0.7903,-0.7903,-0.7933,-0.911,-0.9049,-0.8113,-1.1464,-1.2424,-1.0948,-1.0671,-1.1067,-1.2118,-1.3287,-1.3879,-1.3852,-1.4089,-1.4191,-1.4191,-1.3949,-1.3604,-1.3152,-1.312,-1.2996,-1.2799,-1.2783,-1.2891,-1.3082,-1.2913,-1.2818,-1.2805,0.0,0.0,0.0,0.0,0.0,0.0,0.0,0.0,0.0,0.0,0.0,0.0,0.0,0.0,0.0,-0.9325,0.0,-0.9483,-0.9583,0.0,0.0,0.0,-1.1673,-1.1468,-1.194,-1.2234,-1.2104,0.0,0.0,-1.2471,-1.2566,-1.3161,-1.4548,-1.4847,-1.5396,-1.6812,-1.6963,-1.7001,-1.7001,-1.7001,-1.7001,-1.7001,-1.699,-1.699,-1.7001,-1.7001,-1.7012,-1.7039,-1.7044,-1.7039,-1.7093,-1.706,-1.7071,-1.7066,-1.7077,-1.7039,-1.7044,-1.7023,-1.7001,-1.7001,-1.7001,-1.7001,-0.6193,-0.62,-0.6081,-0.6075,-0.6075,-0.6013,-0.608,-0.6278,-0.6346,-0.6719,-0.7294,-0.736,-0.7663,-0.8205,-0.8441,-0.8447,-0.8211,-0.8236,-0.8146,-0.79,-0.7903,-0.7903,-0.7903,-0.7903,-0.7903,-0.7933,-0.8202,-0.8205,-0.7964,-0.8809,-0.9556,-1.0109,-1.0801,-1.2091,-1.3821,-1.4172,-1.4336,-1.4336,-1.4228,-1.4196,-1.4186,-1.3949,-1.3685,-1.342,-1.3206,-1.2996,-1.2799,-1.2783,-1.2891,-1.3082,-1.2907,-1.287,-1.3012,-1.2635,0.0,0.0,0.0,0.0,0.0,0.0,0.0,0.0,0.0,-1.293,-1.3019,0.0,-1.2084,0.0,-0.8923,-0.8593,-1.0428,-1.009,0.0,0.0,-1.1288,-1.1469,-0.9585,-1.0376,-1.0679,-0.9627,-0.9558,-0.9609,-0.9609,-1.0535,-1.1721,-1.3095,-1.425,-1.5401,-1.6775,-1.7001,-1.7001,-1.7001,-1.7001,-1.7001,-1.7001,-1.7001,-1.7012,-1.7001,-1.7007,-1.7066,-1.726,-1.7319,-1.734,-1.7507,-1.7517,-1.755,-1.7501,-1.7416,-1.733,-1.7309,-1.7136,-1.7001,-1.7001,-1.7001,-1.7001,-0.6261,-0.6323,-0.6166,-0.6077,-0.6069,-0.5972,-0.6009,-0.6191,-0.6342,-0.6712,-0.7207,-0.751,-0.7719,-0.7903,-0.7903,-0.7903,-0.7903,-0.7903,-0.7903,-0.7903,-0.7903,-0.7903,-0.7903,-0.7903,-0.7903,-0.7903,-0.7903,-0.7903,-0.793,-0.8477,-0.9383,-1.0646,-1.1847,-1.3293,-1.4924,-1.4766,-1.4658,-1.4658,-1.4568,-1.4455,-1.4347,-1.418,-1.3901,-1.3522,-1.3448,-1.3265,-1.295,-1.3048,-1.3161,-1.326,-1.3069,-1.3071,-1.3369,-1.3082,-1.299,0.0,0.0,0.0,0.0,0.0,0.0,0.0,0.0,0.0,0.0,0.0,-1.2823,-1.2045,-1.0016,-0.9275,-1.058,-0.9835,-0.9287,-0.9375,-1.0169,-1.0149,-0.8745,-0.9283,-0.9446,-0.8687,-0.862,-0.862,-0.862,-0.9812,-1.1193,-1.2602,-1.4016,-1.5434,-1.6672,-1.7001,-1.7001,-1.7001,-1.7001,-1.7001,-1.7001,-1.7098,-1.7173,-1.7179,-1.7254,-1.7373,-1.7507,-1.7529,-1.7572,-1.7696,-1.7683,-1.7683,-1.7678,-1.7592,-1.7335,-1.6616,-1.6377,-1.6477,-1.6882,-1.7001,-1.7001,-0.6302,-0.6454,-0.6296,-0.6224,-0.6232,-0.6004,-0.5898,-0.5916,-0.6252,-0.6618,-0.7023,-0.763,-0.7903,-0.7903,-0.7903,-0.7903,-0.7903,-0.7903,-0.7903,-0.7903,-0.7903,-0.7903,-0.7903,-0.7903,-0.7903,-0.7903,-0.7903,-0.7903,-0.7933,-0.9022,-1.0286,-1.1701,-1.2877,-1.4177,-1.5521,-1.5182,-1.4973,-1.4885,-1.4885,-1.4783,-1.4556,-1.4524,-1.4202,-1.3641,-1.3728,-1.361,-1.3179,-1.3414,-1.3544,-1.3513,-1.334,-1.3432,-1.3836,-1.3706,-1.3701,0.0,-1.4304,0.0,0.0,0.0,0.0,0.0,0.0,0.0,0.0,-1.3214,-1.296,-1.3092,-1.1264,-1.0069,-1.0097,-0.918,-0.862,-0.862,-0.862,-0.8623,-0.8642,-0.8598,-0.8592,-0.8642,-0.8645,-0.8645,-0.8681,-0.9882,-1.1253,-1.269,-1.4123,-1.5523,-1.6767,-1.7055,-1.7001,-1.7001,-1.7001,-1.7001,-1.7028,-1.7211,-1.7362,-1.7394,-1.754,-1.7694,-1.7726,-1.7771,-1.7748,-1.7786,-1.7812,-1.7836,-1.778,-1.7623,-1.6977,-1.5735,-1.5321,-1.5361,-1.6042,-1.6487,-1.6742,-0.6413,-0.6339,-0.6272,-0.6411,-0.6562,-0.6166,-0.5955,-0.5916,-0.6252,-0.6742,-0.7324,-0.7719,-0.7903,-0.7903,-0.7903,-0.7903,-0.7903,-0.7903,-0.7903,-0.7903,-0.7903,-0.7903,-0.7903,-0.7903,-0.7903,-0.7903,-0.7903,-0.7903,-0.7903,-0.8144,-0.9441,-1.1675,-1.1942,-1.3241,-1.5472,0.0,0.0,0.0,-1.4885,-1.4864,-1.481,-1.4605,-1.4357,-1.4094,-1.39,0.0,-1.3457,-1.3631,-1.3755,-1.3734,-1.3906,0.0,0.0,0.0,0.0,0.0,0.0,0.0,0.0,0.0,0.0,0.0,-1.3906,-1.3571,-1.3495,-1.1907,-1.0884,-1.0852,-0.9697,-0.8921,-0.8914,-0.8737,-0.862,-0.862,-0.862,-0.8625,-0.8751,-0.8683,-0.8625,-0.8757,-0.8768,-0.877,-0.8841,-1.007,-1.1558,-1.29,-1.4416,-1.5846,-1.7299,-1.7221,-1.7023,-1.7007,-1.7039,-1.7017,-1.7001,-1.7233,-1.7426,-1.741,-1.7572,-1.7793,-1.7981,-1.8024,-1.8094,-1.8199,-1.8264,-1.8253,-1.8248,-1.7159,-1.6137,-1.5755,-1.4585,-1.3603,-1.364,-1.4612,-1.5413,-0.6558,-0.6647,-0.6647,-0.6791,0.0,-0.6784,-0.6613,-0.6474,-0.6241,-0.6528,-0.7174,-0.7508,-0.775,-0.7903,-0.7903,-0.7903,-0.7903,-0.7903,-0.7903,-0.7903,-0.7903,-0.7903,-0.7903,-0.7903,-0.7903,-0.7903,-0.7903,-0.7903,-0.7903,-0.7903,-0.887,-1.0736,-1.0767,-1.1732,-1.363,-1.4331,-1.4848,-1.5241,-1.5235,-1.5176,-1.5063,-1.4927,-1.475,-1.4541,-1.4412,0.0,0.0,0.0,0.0,0.0,0.0,0.0,0.0,0.0,0.0,-1.5373,-1.5634,-1.5541,-1.4958,-1.5003,-1.4608,-1.3596,-1.2738,-1.2482,-1.2919,-1.2071,-1.1232,-1.0552,-0.9967,-0.935,-0.869,-0.8675,-0.871,-0.8677,-0.871,-0.8723,-0.8818,-0.8696,-0.8663,-0.8818,-0.8807,-0.8788,-0.8853,-1.0172,-1.131,-1.2204,-1.4049,-1.5638,-1.6437,-1.7046,-1.7329,-1.7356,-1.7356,-1.7356,-1.735,-1.7566,-1.7723,-1.776,-1.7922,-1.807,-1.8239,-1.8261,-1.8269,-1.8377,-1.8398,-1.8398,-1.8288,-1.7087,-1.5752,-1.4854,-1.3495,-1.206,-1.1264,-1.2605,-1.4405,-0.6654,-0.6918,-0.6985,-0.7173,-0.7428,-0.7409,-0.7287,-0.7101,0.0,0.0,0.0,-0.7296,-0.76,-0.7903,-0.7903,-0.7903,-0.7903,-0.7903,-0.7903,-0.7903,-0.7903,-0.7903,-0.7903,-0.7903,-0.7903,-0.7903,-0.7903,-0.7903,-0.7903,-0.7903,-0.8538,-0.9684,-0.9805,-1.0434,-1.1701,-1.3032,-1.4088,-1.4873,-1.5353,-1.5475,-1.5287,-1.5215,-1.5126,-1.4978,-1.4935,-1.4885,-1.4885,-1.4923,-1.488,-1.4712,-1.4945,-1.5182,-1.54,-1.5661,-1.5962,-1.6313,-1.6371,-1.5856,-1.4731,-1.4554,-1.3918,-1.2537,-1.1127,-1.0811,-1.201,-1.2094,-1.1585,-1.0439,-1.0339,-0.9845,-0.872,-0.8729,-0.8806,-0.8806,-0.8788,-0.8851,-0.8914,-0.8791,-0.8747,-0.8892,-0.8902,-0.8872,-0.897,-0.9974,-1.091,-1.1431,-1.315,-1.4877,-1.5284,-1.6599,-1.7366,-1.6716,-1.7003,-1.7623,-1.7396,-1.7803,-1.8049,-1.8062,-1.8261,-1.8393,-1.8363,-1.8188,-1.8117,-1.8393,-1.8258,-1.7972,-1.7866,-1.668,-1.5282,-1.3646,-1.2169,-1.0772,-0.9593,-1.0812,-1.2831,-0.652,-0.6585,-0.6886,-0.7181,-0.7498,-0.7407,-0.7365,-0.7235,-0.6924,-0.7112,-0.7747,-0.7508,-0.76,-0.7903,-0.7903,-0.7903,-0.7903,-0.7903,-0.7903,-0.7903,-0.7903,-0.7903,-0.7903,-0.7903,-0.7903,-0.7903,-0.7903,-0.7903,-0.7903,-0.7903,-0.8565,-0.9653,-0.9805,-1.0407,-1.1701,-1.3032,-1.3211,-1.2333,-1.4475,-1.5585,-1.5548,-1.5325,-1.5206,-1.5135,-1.4999,-1.4885,-1.4891,-1.5067,-1.5249,-1.544,-1.5701,-1.5939,-1.6156,-1.6408,-1.6575,-1.6587,-1.5728,-1.5065,-1.4832,-1.3737,-1.2504,-1.1097,-0.9712,-0.9471,-1.0739,-0.9866,-0.9117,-0.892,-0.8953,-0.8817,-0.8628,-0.8738,-0.8814,-0.8788,-0.8867,-0.8938,-0.9054,-0.8941,-0.8908,-0.9052,-0.9063,-0.9044,-0.9106,-0.9396,-1.0117,-1.1194,-1.2041,-1.2677,-1.4077,-1.6171,-1.6409,-1.488,-1.6074,-1.6897,-1.6245,-1.7097,-1.771,-1.8099,-1.8079,-1.8047,-1.8007,-1.7193,-1.6906,-1.8082,-1.7223,-1.6583,-1.6447,-1.527,-1.3788,-1.2287,-1.0862,-0.9634,-0.9228,-0.9762,-1.0415,-0.5707,-0.604,-0.7116,-0.7789,-0.8082,-0.8004,-0.793,-0.7866,-0.7514,-0.7471,-0.7689,-0.7506,-0.76,-0.7908,-0.7971,-0.8001,-0.8001,-0.8001,-0.8032,-0.8001,-0.8001,-0.8032,-0.8009,-0.8035,-0.807,-0.8065,-0.8031,-0.8001,-0.7993,-0.7935,-0.8202,-0.8754,-0.8851,-0.9196,-0.9811,-1.1121,-1.1503,-1.0973,-1.3994,-1.5264,-1.46,-1.5135,-1.547,-1.5623,-1.5539,-1.5556,-1.5655,-1.5738,-1.5851,-1.5953,-1.6235,-1.6419,-1.6532,-1.6753,-1.6882,-1.6818,-1.5607,-1.4544,-1.3787,-1.1747,-1.027,-0.9613,-0.8984,-0.8853,-0.9513,-0.8984,-0.862,-0.862,-0.862,-0.8617,-0.8716,-0.8799,-0.8862,-0.8962,-0.8984,-0.9063,-0.9144,-0.9025,-0.8992,-0.9147,-0.9136,-0.9125,-0.9182,-0.9272,-0.9482,-1.0341,-1.0946,-1.1869,-1.2591,-1.4305,-1.5202,-1.4021,-1.4788,-1.5241,-1.4749,-1.5204,-1.5768,-1.5843,-1.5882,-1.5978,-1.5943,-1.5265,-1.5341,-1.5766,-1.5376,-1.5017,-1.4951,-1.3698,-1.248,-1.1801,-1.0374,-0.9446,-0.9304,-0.9304,-0.9794,-0.4564,-0.5066,-0.651,-0.7517,-0.8079,-0.7995,-0.8125,-0.8377,-0.803,-0.7837,-0.7749,-0.7575,-0.7645,-0.7964,-0.8083,-0.8126,-0.8126,-0.8126,-0.8126,-0.8126,-0.8126,-0.8126,-0.8134,-0.8193,-0.8202,-0.8193,-0.8138,-0.8126,-0.8113,-0.8028,-0.7954,-0.7993,-0.808,-0.8126,-0.816,-0.9507,-1.0037,-0.9992,-1.3079,-1.4475,-1.3892,-1.5035,-1.582,-1.6041,-1.6088,-1.6149,-1.6301,-1.6312,-1.6339,-1.6398,-1.6597,-1.6588,-1.6323,-1.6743,-1.6742,-1.6084,-1.5033,-1.3652,-1.1944,-0.9839,-0.862,-0.862,-0.862,-0.862,-0.862,-0.862,-0.862,-0.862,-0.862,-0.8636,-0.8787,-0.8875,-0.8965,-0.9082,-0.9125,-0.9168,-0.9269,-0.9106,-0.9057,-0.9261,-0.9187,-0.9174,-0.928,-0.9304,-0.9338,-0.9518,-1.0374,-1.1015,-1.123,-1.2162,-1.2774,-1.3024,-1.3416,-1.3753,-1.3559,-1.38,-1.4014,-1.3884,-1.3987,-1.4169,-1.4058,-1.3773,-1.3666,-1.388,-1.3666,-1.3412,-1.3274,-1.2516,-1.1586,-1.1051,-0.9981,-0.9338,-0.9304,-0.9304,-0.9837,-0.3092,-0.3429,-0.4097,-0.5135,-0.6541,-0.66,-0.7296,-0.8352,-0.835,-0.8331,-0.8072,-0.7865,-0.7811,-0.814,-0.8177,-0.8188,-0.8188,-0.8188,-0.8185,-0.8188,-0.8188,-0.8188,-0.8193,-0.8204,-0.8204,-0.8218,-0.8207,-0.8239,-0.8207,-0.8174,-0.8195,-0.8172,-0.818,-0.8185,-0.8347,-0.95,-0.9602,-0.8457,-1.1051,-1.2979,-1.4155,-1.5345,-1.6063,-1.6269,-1.6249,-1.6291,-1.6152,-1.6312,-1.6389,-1.664,-1.6599,-1.6184,-1.5315,-1.6273,-1.5851,-1.3484,-1.3091,-1.1846,-0.9347,-0.8751,-0.862,-0.862,-0.862,-0.862,-0.862,-0.859,-0.8623,-0.8628,-0.8626,-0.8652,-0.8795,-0.8886,-0.8979,-0.91,-0.919,-0.9296,-0.9296,-0.9288,-0.9283,-0.9296,-0.9285,-0.9294,-0.9299,-0.9304,-0.9304,-0.9304,-0.9552,-0.9804,-0.9804,-0.9981,-1.02,-1.0449,-1.1915,-1.2952,-1.2302,-1.3016,-1.3309,-1.3595,-1.3773,-1.3523,-1.3202,-1.2556,-1.2123,-1.2699,-1.2552,-1.1872,-1.1804,-1.1586,-1.1051,-1.0158,-0.9554,-0.9304,-0.9304,-0.9304,-0.9876,-0.2117,-0.2386,-0.3592,-0.4497,-0.5131,-0.5165,-0.5499,-0.603,-0.6,-0.5986,-0.5949,-0.5783,-0.6632,-0.8178,-0.8277,-0.831,-0.831,-0.831,-0.831,-0.831,-0.831,-0.8345,-0.8446,-0.8522,-0.8584,-0.861,-0.8587,-0.8552,-0.8527,-0.838,-0.8275,-0.8218,-0.8275,-0.8313,-0.8348,-0.8959,-0.8964,-0.8538,-1.0142,-1.1388,-1.2153,-1.3164,-1.3732,-1.3819,-1.3929,-1.4025,-1.4139,-1.4248,-1.4441,-1.4619,-1.4532,-1.4303,-1.3788,-1.4243,-1.4012,-1.2865,-1.2014,-1.0697,-0.8753,-0.862,-0.862,-0.862,-0.862,-0.862,-0.8592,-0.8686,-0.8696,-0.8729,-0.8732,-0.8747,-0.8832,-0.8954,-0.9071,-0.9179,-0.9277,-0.9304,-0.9304,-0.9304,-0.9304,-0.9304,-0.9304,-0.9304,-0.9304,-0.9304,-0.9304,-0.9304,-0.9304,-0.931,-0.9307,-0.9304,-0.9304,-0.9446,-1.0485,-1.0806,-1.0446,-1.0662,-1.1165,-1.1237,-1.1201,-1.1165,-1.1201,-1.0806,-1.0518,-1.1165,-1.077,-1.0374,-1.0233,-1.0233,-0.9948,-0.9341,-0.9304,-0.9304,-0.9304,-0.9304,-0.966,-0.1076,-0.1345,-0.2585,-0.3356,-0.3691,-0.3691,-0.3926,-0.4293,-0.4294,-0.4294,-0.4294,-0.4294,-0.5541,-0.7509,-0.7802,-0.8035,-0.8404,-0.8497,-0.8516,-0.8519,-0.8549,-0.8609,-0.8693,-0.8774,-0.8867,-0.8892,-0.8856,-0.8818,-0.8802,-0.866,-0.8486,-0.8424,-0.8486,-0.8532,-0.8535,-0.8622,-0.8669,-0.8725,-0.9464,-0.9952,-1.025,-1.0845,-1.1545,-1.2219,-1.2463,-1.2616,-1.2707,-1.2902,-1.3027,-1.3148,-1.3025,-1.2761,-1.2394,-1.2637,-1.2631,-1.2142,-1.0932,-0.9715,-0.8653,-0.8619,-0.8638,-0.8669,-0.8638,-0.8652,-0.8687,-0.877,-0.8783,-0.8821,-0.8882,-0.8916,-0.8957,-0.9046,-0.9144,-0.9285,-0.9304,-0.9304,-0.9304,-0.9304,-0.9304,-0.9304,-0.9304,-0.9304,-0.9304,-0.9304,-0.9313,-0.9353,-0.9359,-0.9353,-0.9364,-0.9383,-0.9402,-0.9364,-0.9392,-0.9376,-0.9313,-0.9518,-0.9304,-0.9304,-0.9518,-0.959,-0.9304,-0.9341,-0.9341,-1.0161,-0.9518,-0.9374,-0.959,-0.9485,-0.9377,-0.9341,-0.9304,-0.9304,-0.9304,-0.9304,-0.9304,0.0236,-0.0067,0.0,-0.1076,-0.2184,-0.2184,-0.2955,-0.3992,-0.4159,-0.4226,-0.4093,-0.4127,-0.5061,-0.6321,-0.6325,-0.7238,-0.8495,-0.8724,-0.8768,-0.8745,-0.8813,-0.8852,-0.8903,-0.8908,-0.8908,-0.893,-0.8922,-0.8911,-0.8906,-0.8895,-0.8892,-0.8873,-0.8859,-0.8878,-0.8851,-0.8796,-0.8795,-0.8804,-0.8792,-0.8795,-0.89,-0.8971,-1.0254,-1.225,-1.2809,-1.273,-1.2821,-1.2929,-1.2912,-1.2953,-1.2697,-1.2107,-1.1082,-1.1992,-1.2058,-1.088,-0.9528,-0.8731,-0.865,-0.8704,-0.8798,-0.8798,-0.8764,-0.8807,-0.8849,-0.8845,-0.8848,-0.8897,-0.9006,-0.9076,-0.9087,-0.9106,-0.9157,-0.9285,-0.9304,-0.9304,-0.9304,-0.9304,-0.9304,-0.9304,-0.9304,-0.9313,-0.931,-0.9304,-0.9372,-0.9446,-0.9478,-0.9478,-0.9489,-0.9608,-0.9611,-0.9545,-0.947,-0.9438,-0.9337,-0.9304,-0.9304,-0.9304,-0.9304,-0.9304,-0.9304,-0.9304,-0.9304,-0.9304,-0.9304,-0.9304,-0.9304,-0.9304,-0.9304,-0.9304,-0.9304,-0.9304,-0.9304,-0.9304,-0.9304,0.0101,0.0,0.0,-0.0303,-0.074,-0.074,-0.1076,-0.1512,-0.1546,-0.1545,-0.1546,0.0,-0.2318,-0.3627,-0.366,-0.5531,-0.8535,-0.8787,-0.8806,-0.8774,-0.8815,-0.8834,-0.8837,-0.8837,-0.8892,-0.9017,-0.9035,-0.9033,-0.9035,-0.9033,-0.8992,-0.8924,-0.8916,-0.8916,-0.8897,-0.8831,-0.8806,-0.8792,-0.8683,-0.8609,-0.8688,-0.8688,-0.9194,-1.0017,-1.0242,-1.0326,-1.0381,-1.0336,-1.0323,-1.0378,-1.0282,-1.001,-0.9609,-0.9942,-1.005,-0.9589,-0.9057,-0.8786,-0.8792,-0.8827,-0.8886,-0.8886,-0.8849,-0.8873,-0.8914,-0.8946,-0.9024,-0.9044,-0.9138,-0.9201,-0.9206,-0.9242,-0.9258,-0.9291,-0.9304,-0.9304,-0.9304,-0.9304,-0.9304,-0.9304,-0.9304,-0.9332,-0.94,-0.9421,-0.9507,-0.9613,-0.9641,-0.9603,-0.9606,-0.9684,-0.9698,-0.966,-0.9601,-0.9563,-0.9477,-0.9345,-0.9304,-0.9304,-0.9304,-0.9304,-0.9304,-0.9304,-0.9304,-0.9304,-0.9304,-0.9304,-0.9304,-0.9304,-0.9304,-0.9304,-0.9304,-0.9304,-0.9304,-0.9304,-0.9304,0.0,0.0,0.0,0.0,0.0,0.0,0.0,0.0,0.0,0.0,0.0,0.0,-0.0773,-0.195,-0.2117,-0.4227,-0.7837,-0.8085,-0.8326,-0.8774,-0.881,-0.8829,-0.8829,-0.8829,-0.8878,-0.9017,-0.9041,-0.9071,-0.9136,-0.9076,-0.9038,-0.9033,-0.896,-0.8906,-0.8943,-0.8851,-0.8806,-0.8781,-0.8683,-0.867,-0.877,-0.8714,-0.8736,-0.8873,-0.8852,-0.8807,-0.8851,-0.8812,-0.8804,-0.8864,-0.8774,-0.8762,-0.88,-0.8807,-0.8864,-0.8871,-0.8914,-0.8916,-0.8924,-0.8952,-0.8976,-0.8979,-0.9011,-0.903,-0.9035,-0.9109,-0.9149,-0.9209,-0.925,-0.9304,-0.9304,-0.9302,-0.9304,-0.9304,-0.9304,-0.9304,-0.9304,-0.9304,-0.9323,-0.9353,-0.9329,-0.9381,-0.954,-0.95,-0.9565,-0.9734,-0.9761,-0.9723,-0.9723,-0.9761,-0.9761,-0.9734,-0.9723,-0.9693,-0.9598,-0.9492,-0.9351,-0.9326,-0.9304,-0.9304,-0.9313,-0.931,-0.9315,-0.931,-0.9307,-0.9304,-0.9304,-0.9304,-0.9304,-0.9304,-0.9304,-0.9304,-0.9304,-0.9304,-0.9304,0.0,0.0,0.0,0.0,0.0,0.0,0.0,0.0,0.0,0.0,0.0,0.0,-0.0706,-0.1747,-0.1848,-0.3654,-0.5973,-0.6496,-0.7424,-0.8709,-0.8875,-0.8878,-0.8865,-0.8857,-0.887,-0.8919,-0.8922,-0.9035,-0.9237,-0.9038,-0.9025,-0.9165,-0.9006,-0.8962,-0.9084,-0.8886,-0.8806,-0.8781,-0.8683,-0.8842,-0.9188,-0.8976,-0.9052,-0.9357,-0.908,-0.8866,-0.8848,-0.88,-0.8755,-0.8787,-0.866,-0.8652,-0.8814,-0.8889,-0.8922,-0.8909,-0.8938,-0.8935,-0.8946,-0.9057,-0.9138,-0.913,-0.9239,-0.9285,-0.9285,-0.9285,-0.9288,-0.9285,-0.9294,-0.9304,-0.9304,-0.9304,-0.9304,-0.9304,-0.9304,-0.9304,-0.9304,-0.9307,-0.9351,-0.9435,-0.9402,-0.9424,-0.9608,-0.9595,-0.9625,-0.9783,-0.9802,-0.9802,-0.9807,-0.9872,-0.9938,-0.9823,-0.9769,-0.9769,-0.9715,-0.9642,-0.9478,-0.9348,-0.9321,-0.9307,-0.9332,-0.934,-0.9367,-0.937,-0.9367,-0.9362,-0.9304,-0.9304,-0.9304,-0.9304,-0.9304,-0.9338,-0.9304,-0.9304,-0.9304,0.0,0.0,0.0,0.0,0.0,0.0,0.0,0.0,0.0,0.0,0.0,0.0,-0.0269,0.0,-0.0673,-0.1719,-0.3515,-0.4562,-0.6346,-0.8423,-0.881,-0.8783,-0.872,-0.8704,-0.8745,-0.8829,-0.8878,-0.8952,-0.9003,-0.8949,-0.893,-0.8995,-0.8954,-0.8903,-0.8962,-0.8853,-0.8806,-0.8823,-0.8881,-0.904,-0.9175,-0.9351,-0.9478,-0.9606,-0.9509,-0.9325,-0.9169,-0.8859,-0.868,-0.8649,-0.8609,-0.8679,-0.8835,-0.8976,-0.9079,-0.9193,-0.9277,-0.9275,-0.9228,-0.9372,-0.9446,-0.94,-0.9408,-0.9427,-0.9419,-0.9351,-0.931,-0.9304,-0.9304,-0.9304,-0.9304,-0.9304,-0.9304,-0.9304,-0.9304,-0.9304,-0.9323,-0.9378,-0.9438,-0.9484,-0.9527,-0.9625,-0.9734,-0.9693,-0.9775,-0.9913,-0.9915,-0.9954,-0.9929,-0.9987,-0.9932,-0.9826,-0.9807,-0.9772,-0.9718,-0.9647,-0.9544,-0.9419,-0.937,-0.9356,-0.9372,-0.9375,-0.9405,-0.9408,-0.9408,-0.942,-0.9362,-0.9338,-0.9374,-0.9374,-0.941,-0.9374,-0.9338,-0.9338,-0.9413,0.0,0.0,0.0,0.0,0.0,0.0,0.0,0.0,0.0,0.0,0.0,0.0,0.0,0.0,0.0,0.0,-0.2184,-0.3659,-0.5594,-0.7776,-0.8569,-0.8658,-0.8626,-0.862,-0.8652,-0.875,-0.8802,-0.8832,-0.8911,-0.883,-0.8827,-0.8897,-0.883,-0.8808,-0.883,-0.8766,-0.8769,-0.8892,-0.9026,-0.922,-0.9455,-0.9628,-0.9786,-0.9926,-0.9835,-0.9606,-0.9336,-0.9131,-0.8954,-0.873,-0.8696,-0.8821,-0.8973,-0.9095,-0.9231,-0.9304,-0.94,-0.9427,-0.9343,-0.9465,-0.9549,-0.9451,-0.9459,-0.9457,-0.9427,-0.9364,-0.9362,-0.931,-0.9304,-0.9304,-0.9304,-0.9304,-0.9304,-0.9304,-0.9304,-0.9323,-0.9367,-0.9438,-0.9536,-0.9595,-0.9647,-0.9745,-0.9818,-0.9818,-0.9856,-0.9987,-1.0019,-1.0019,-1.0019,-1.0017,-0.9905,-0.9859,-0.9864,-0.9826,-0.9736,-0.9673,-0.9593,-0.9506,-0.9463,-0.943,-0.944,-0.9424,-0.9469,-0.9389,-0.9375,-0.9535,-0.9521,-0.9557,-0.959,-0.959,-0.9663,-0.9807,-0.9879,-0.9627,-0.9629,0.0,0.0,0.0,0.0,0.0,0.0,0.0,0.0,0.0,0.0,0.0,0.0,0.0,0.0,0.0,-0.0673,-0.2016,-0.3357,-0.4766,-0.6349,-0.7593,-0.8359,-0.8554,-0.862,-0.8644,-0.8748,-0.8688,-0.8717,-0.8838,-0.8683,-0.8701,-0.883,-0.8717,-0.8658,-0.8742,-0.8686,-0.8776,-0.9063,-0.9131,-0.9489,-1.0093,-0.9979,-0.9996,-1.038,-1.0162,-0.9872,-0.9609,-0.9702,-0.952,-0.8953,-0.8861,-0.8938,-0.9084,-0.9206,-0.9296,-0.931,-0.9419,-0.9408,-0.9362,-0.9454,-0.9478,-0.9378,-0.9432,-0.948,-0.9375,-0.94,-0.9394,-0.9315,-0.9304,-0.9304,-0.9304,-0.9304,-0.9304,-0.9307,-0.9323,-0.9375,-0.9465,-0.95,-0.9617,-0.9753,-0.9758,-0.9804,-0.9937,-0.9878,-0.9891,-0.9984,-1.0019,-1.0014,-0.9995,-0.9973,-0.9902,-0.9861,-0.984,-0.978,-0.9671,-0.9643,-0.9576,-0.9598,-0.9536,-0.9552,-0.9563,-0.9549,-0.9478,-0.943,-0.9495,-0.9638,-0.9738,-0.981,-0.9987,-1.0131,-1.0275,-1.0455,-1.0347,-1.0059,-0.9954,0.0,0.0,0.0,0.0,0.0,0.0,0.0,0.0,0.0,0.0,0.0,0.0,0.0,0.0,0.0,-0.0236,-0.0908,-0.2117,-0.3458,-0.4899,-0.6307,-0.7615,-0.842,-0.862,-0.8637,-0.8664,-0.8642,-0.8656,-0.8674,-0.8622,-0.863,-0.8677,-0.8647,-0.8652,-0.8765,-0.8658,-0.8842,-0.9199,-0.9467,-0.9724,-1.0173,-1.0461,-1.0634,-1.0741,-1.081,-1.062,-1.0279,-1.0107,-0.978,-0.9225,-0.8987,-0.8973,-0.9136,-0.9242,-0.9304,-0.9323,-0.941,-0.9432,-0.9372,-0.9532,-0.9586,-0.9457,-0.9449,-0.9507,-0.948,-0.9381,-0.9345,-0.9304,-0.9304,-0.9304,-0.9304,-0.9304,-0.9304,-0.9315,-0.9381,-0.9446,-0.9508,-0.9644,-0.9739,-0.9791,-0.9842,-0.9941,-0.9981,-0.9987,-0.997,-1.0006,-1.0014,-0.9948,-0.991,-0.9951,-0.9894,-0.9723,-0.9671,-0.966,-0.9624,-0.9565,-0.9579,-0.965,-0.9666,-0.9707,-0.9731,-0.9753,-0.9647,-0.9544,-0.9764,-0.9911,-1.0018,-1.0098,-1.0314,-1.0603,-1.0639,-1.0675,-1.0567,-1.0347,-1.035,0.0,0.0,0.0,0.0,0.0,0.0,0.0,0.0,0.0,0.0,0.0,0.0,0.0,0.0,0.0,0.0,0.0,-0.1446,-0.2922,-0.4495,-0.6473,-0.7815,-0.8487,-0.862,-0.862,-0.862,-0.862,-0.8623,-0.8592,-0.862,-0.8614,-0.8702,-0.8697,-0.8725,-0.884,-0.8785,-0.901,-0.9431,-0.9673,-0.9953,-1.0409,-1.0672,-1.0911,-1.1053,-1.1223,-1.1172,-1.0981,-1.0436,-0.988,-0.9469,-0.931,-0.9293,-0.941,-0.9336,-0.9304,-0.931,-0.9419,-0.9432,-0.9364,-0.9487,-0.9525,-0.9438,-0.941,-0.941,-0.9394,-0.934,-0.9304,-0.9304,-0.9304,-0.9304,-0.9304,-0.9304,-0.9356,-0.9446,-0.9478,-0.9545,-0.9589,-0.9723,-0.981,-0.9864,-0.9891,-0.9932,-1.0006,-0.9943,-0.9943,-1.0003,-1.0019,-0.9913,-0.9845,-0.9872,-0.9864,-0.9647,-0.9581,-0.9597,-0.9594,-0.9538,-0.9662,-0.9733,-0.9856,-0.987,-0.9952,-0.9987,-0.9913,-0.9874,-1.0068,-1.0233,-1.0407,-1.0583,-1.075,-1.093,-1.0894,-1.093,-1.093,-1.1067,-1.0995,0.0,0.0,0.0,0.0,0.0,0.0,0.0,0.0,0.0,0.0,0.0,0.0,0.0,0.0,0.0,0.0,0.0,-0.1479,-0.3089,-0.4964,-0.7042,-0.8554,-0.8554,-0.862,-0.862,-0.862,-0.862,-0.862,-0.8637,-0.8611,-0.869,-0.8774,-0.8802,-0.888,-0.8965,-0.8991,-0.9265,-0.9735,-0.9918,-1.0216,-1.0622,-1.0826,-1.1053,-1.129,-1.1345,-1.1381,-1.1163,-1.0677,-1.0051,-0.9631,-0.9639,-0.9672,-0.9742,-0.9446,-0.9341,-0.9315,-0.9386,-0.9402,-0.934,-0.9405,-0.943,-0.934,-0.9315,-0.9304,-0.9315,-0.9307,-0.9304,-0.9304,-0.9304,-0.9315,-0.934,-0.9332,-0.9413,-0.9541,-0.9538,-0.9608,-0.9679,-0.975,-0.9864,-0.9962,-0.9842,-0.9867,-0.9894,-0.9897,-0.9864,-1.0006,-1.0011,-0.9915,-0.9845,-0.9832,-0.9721,-0.9557,-0.9516,-0.9536,-0.9527,-0.9514,-0.9664,-0.9819,-0.9994,-1.0061,-1.0223,-1.0267,-1.0229,-1.0306,-1.0543,-1.081,-1.1053,-1.1205,-1.1286,-1.1588,-1.1763,-1.1693,-1.1659,-1.1893,-1.1997,0.0,0.0,0.0,0.0,0.0,0.0,0.0,0.0,0.0,0.0,0.0,0.0,0.0,0.0,0.0,0.0,0.0,-0.1614,-0.3424,-0.6005,-0.7681,-0.8554,-0.862,-0.862,-0.862,-0.862,-0.862,-0.859,-0.8619,-0.8772,-0.8851,-0.8884,-0.8973,-0.9114,-0.9223,-0.9333,-0.9567,-0.9946,-1.0251,-1.0524,-1.0839,-1.1097,-1.1253,-1.1402,-1.1409,-1.1271,-1.1037,-1.078,-1.0502,-1.0159,-0.9868,-0.9698,-0.9532,-0.9382,-0.9315,-0.9323,-0.9332,-0.934,-0.9318,-0.9337,-0.9337,-0.9313,-0.9304,-0.9304,-0.9304,-0.9304,-0.9304,-0.9304,-0.9304,-0.9343,-0.9432,-0.9449,-0.9492,-0.9557,-0.959,-0.9584,-0.9603,-0.9636,-0.9729,-0.9756,-0.9807,-0.981,-0.9842,-0.9913,-0.9924,-1.0011,-0.9995,-0.9918,-0.9856,-0.9791,-0.9669,-0.9484,-0.9457,-0.9468,-0.9493,-0.9592,-0.9896,-1.0093,-1.0233,-1.0456,-1.062,-1.0691,-1.07,-1.0854,-1.1073,-1.1307,-1.1526,-1.1577,-1.1577,-1.2096,-1.2445,-1.2161,-1.2072,-1.2481,-1.257,0.0,0.0,0.0,0.0,0.0,0.0,0.0,0.0,0.0,0.0,0.0,0.0,0.0,0.0,0.0,0.0,0.0,-0.2217,-0.4296,-0.6341,-0.7851,-0.8587,-0.862,-0.862,-0.862,-0.8595,-0.8652,-0.8671,-0.8736,-0.887,-0.9027,-0.9079,-0.9149,-0.9374,-0.9607,-0.9701,-0.9944,-1.0337,-1.0569,-1.0814,-1.1045,-1.1192,-1.1385,-1.1491,-1.1523,-1.1488,-1.1358,-1.121,-1.0899,-1.0497,-1.0176,-0.9917,-0.9593,-0.9465,-0.9386,-0.9389,-0.9389,-0.9389,-0.9389,-0.9337,-0.9307,-0.9307,-0.9304,-0.9304,-0.9304,-0.9304,-0.9304,-0.9304,-0.9318,-0.937,-0.9544,-0.9608,-0.9587,-0.9628,-0.9603,-0.9597,-0.9522,-0.963,-0.9706,-0.9714,-0.9726,-0.9745,-0.9804,-0.9886,-0.9937,-0.9962,-1.0006,-0.9924,-0.9794,-0.9718,-0.9598,-0.9465,-0.9413,-0.9389,-0.9412,-0.9666,-1.0159,-1.0407,-1.0655,-1.094,-1.1215,-1.1249,-1.1229,-1.1378,-1.1529,-1.1671,-1.1838,-1.1878,-1.182,-1.1955,-1.21,-1.2178,-1.2273,-1.2467,-1.2373,0.0,0.0,0.0,0.0,0.0,0.0,0.0,0.0,0.0,0.0,0.0,0.0,0.0,0.0,0.0,0.0,-0.1311,-0.292,-0.5064,-0.7011,-0.8051,-0.8554,-0.862,-0.862,-0.8642,-0.8622,-0.874,-0.8798,-0.888,-0.9041,-0.9207,-0.9307,-0.9329,-0.9487,-0.9871,-1.0048,-1.0185,-1.0536,-1.0838,-1.1035,-1.1208,-1.1257,-1.1409,-1.1569,-1.1677,-1.1623,-1.1494,-1.1329,-1.1038,-1.0483,-1.0378,-1.0173,-0.9923,-0.9638,-0.9506,-0.9506,-0.9514,-0.9551,-0.95,-0.9435,-0.9378,-0.9343,-0.9337,-0.9318,-0.9313,-0.9332,-0.9351,-0.9356,-0.9383,-0.9476,-0.9701,-0.9731,-0.9739,-0.9764,-0.9633,-0.957,-0.9567,-0.9598,-0.9654,-0.9673,-0.9712,-0.9734,-0.9775,-0.9856,-0.9905,-0.9945,-0.9951,-0.9951,-0.9826,-0.9671,-0.9573,-0.9504,-0.9421,-0.9593,-0.9655,-0.9781,-1.0276,-1.0737,-1.1,-1.1359,-1.1669,-1.1682,-1.1663,-1.1782,-1.1937,-1.205,-1.2085,-1.2063,-1.2013,-1.1894,-1.2601,-1.353,-1.3275,-1.2572,-1.2856,0.0,0.0,0.0,0.0,0.0,0.0,0.0,0.0,0.0,0.0,0.0,0.0,0.0,0.0,0.0,0.0,-0.2954,-0.4326,-0.5769,-0.7715,-0.852,-0.8587,-0.862,-0.8642,-0.8683,-0.8754,-0.8825,-0.8889,-0.9044,-0.9209,-0.9365,-0.9466,-0.9482,-0.9617,-0.9883,-1.0091,-1.04,-1.0641,-1.1074,-1.1371,-1.1374,-1.145,-1.1518,-1.1584,-1.1664,-1.1526,-1.1194,-1.0883,-1.0507,-1.0173,-0.986,-0.9769,-0.9745,-0.9615,-0.9597,-0.9654,-0.9636,-0.9671,-0.9649,-0.9646,-0.9546,-0.9489,-0.9457,-0.9405,-0.937,-0.94,-0.9449,-0.9481,-0.9546,-0.9661,-0.9791,-0.9807,-0.9772,-0.9764,-0.9734,-0.9673,-0.9657,-0.9624,-0.9568,-0.9598,-0.9647,-0.9709,-0.9767,-0.9856,-0.9926,-0.9932,-0.9897,-0.9974,-0.9968,-0.9798,-0.961,-0.9518,-0.944,-0.97,-0.9925,-1.0086,-1.0417,-1.103,-1.1397,-1.1716,-1.1942,-1.2013,-1.2097,-1.2788,-1.2581,-1.2264,-1.2278,-1.2357,-1.2189,-1.2088,-1.3504,-1.5113,-1.4521,-1.4011,-1.6021,0.0,0.0,0.0,0.0,0.0,0.0,0.0,0.0,0.0,0.0,0.0,0.0,0.0,0.0,0.0,0.0,-0.3792,-0.5198,-0.6608,-0.8284,-0.862,-0.862,-0.8606,-0.868,-0.8753,-0.8853,-0.8929,-0.9003,-0.9109,-0.9315,-0.9523,-0.9759,-0.9818,-0.9999,-1.034,-1.0638,-1.0796,-1.0963,-1.1321,-1.1586,-1.1511,-1.1589,-1.1577,-1.158,-1.158,-1.1508,-1.1342,-1.1266,-1.0915,-1.0474,-1.0287,-1.005,-0.9809,-0.9712,-0.9688,-0.9739,-0.975,-0.9723,-0.9723,-0.9701,-0.9643,-0.9551,-0.9578,-0.9594,-0.9522,-0.9552,-0.9619,-0.9646,-0.9682,-0.9775,-0.9791,-0.985,-0.9859,-0.9804,-0.9783,-0.9731,-0.968,-0.9617,-0.962,-0.9642,-0.9729,-0.9796,-0.9786,-0.9872,-0.9992,-0.9973,-0.9894,-0.9985,-1.0091,-0.991,-0.9744,-0.9897,-0.9933,-1.0148,-1.0385,-1.0525,-1.0675,-1.1238,-1.157,-1.1921,-1.2145,-1.219,-1.335,-1.4563,-1.3964,-1.2721,-1.2901,-1.31,-1.2725,-1.2522,-1.3954,-1.5129,-1.53,-1.5948,-1.7822,0.0,0.0,0.0,0.0,0.0,0.0,0.0,0.0,0.0,0.0,0.0,0.0,0.0,0.0,0.0,-0.1915,-0.4361,-0.5704,-0.7145,-0.8318,-0.8623,-0.8626,-0.8652,-0.8723,-0.8837,-0.8949,-0.9019,-0.9125,-0.9281,-0.946,-0.9767,-0.9982,-1.0131,-1.0398,-1.0833,-1.0905,-1.1194,-1.1368,-1.158,-1.158,-1.158,-1.158,-1.158,-1.158,-1.158,-1.1548,-1.1414,-1.1342,-1.1027,-1.066,-1.0458,-1.0344,-0.9894,-0.9799,-0.9799,-0.9799,-0.9799,-0.9745,-0.9739,-0.9709,-0.9682,-0.9609,-0.9658,-0.968,-0.9674,-0.9669,-0.9715,-0.9748,-0.9813,-0.9837,-0.9861,-0.9921,-0.9921,-0.9869,-0.9818,-0.978,-0.9777,-0.975,-0.9772,-0.9807,-0.9818,-0.9818,-0.9818,-0.9854,-0.9957,-1.0063,-0.9983,-1.0198,-1.028,-1.0119,-1.0037,-1.035,-1.0529,-1.0687,-1.0874,-1.1028,-1.1203,-1.1527,-1.1707,-1.1842,-1.2136,-1.2368,-1.3845,-1.5165,-1.4261,-1.3226,-1.3584,-1.3894,-1.3559,-1.3703,-1.4624,-1.5419,-1.6043,-1.7388,-1.9236,0.0,0.0,0.0,0.0,0.0,0.0,0.0,0.0,0.0,0.0,0.0,0.0,0.0,0.0,-0.1446,-0.2787,-0.4395,-0.5969,-0.7345,-0.8487,-0.8623,-0.8675,-0.8765,-0.8789,-0.8979,-0.9133,-0.916,-0.9225,-0.9485,-0.9747,-0.9932,-1.0133,-1.0365,-1.0558,-1.0794,-1.1024,-1.1011,-1.1152,-1.144,-1.158,-1.158,-1.158,-1.158,-1.158,-1.1584,-1.1476,-1.1204,-1.1097,-1.0731,-1.0403,-1.0077,-0.9927,-0.9799,-0.9799,-0.9799,-0.9799,-0.9799,-0.9791,-0.9769,-0.9777,-0.9799,-0.9726,-0.9772,-0.9764,-0.9769,-0.9791,-0.9821,-0.9937,-0.9951,-0.9943,-0.9934,-1.0003,-1.0006,-0.9929,-0.9869,-0.9883,-0.9913,-0.9854,-0.9878,-0.9892,-0.988,-0.9832,-0.9802,-0.9832,-0.9894,-1.0054,-1.0197,-1.0386,-1.0574,-1.0486,-1.0314,-1.0589,-1.0899,-1.1105,-1.1202,-1.1367,-1.1477,-1.1746,-1.1748,-1.1854,-1.2402,-1.2962,-1.4034,-1.4845,-1.4099,-1.4667,-1.588,-1.5872,-1.483,-1.4951,-1.5909,-1.6645,-1.7256,-1.8875,-2.0603,0.0,0.0,0.0,0.0,0.0,0.0,0.0,0.0,0.0,0.0,0.0,0.0,-0.0404,-0.1278,-0.2687,-0.4127,-0.5568,-0.6976,-0.7917,-0.8492,-0.8637,-0.8694,-0.8832,-0.9051,-0.9292,-0.9486,-0.9731,-0.9979,-1.007,-0.9961,-1.0028,-1.0344,-1.064,-1.0936,-1.1002,-1.1257,-1.1332,-1.1404,-1.1512,-1.158,-1.158,-1.158,-1.158,-1.158,-1.158,-1.1472,-1.1326,-1.1137,-1.0822,-1.0473,-1.0199,-0.9966,-0.9818,-0.9734,-0.9718,-0.9642,-0.9707,-0.9767,-0.9791,-0.9859,-0.9856,-0.9861,-0.991,-1.0028,-0.9979,-0.9943,-0.991,-1.0008,-1.0017,-1.0019,-1.0019,-1.0019,-1.0019,-0.9998,-0.996,-0.9973,-0.9951,-0.994,-0.9921,-0.9929,-0.9957,-0.9881,-0.9862,-0.99,-1.0033,-1.0263,-1.0471,-1.0696,-1.103,-1.127,-1.1046,-1.0805,-1.1144,-1.146,-1.1494,-1.156,-1.1554,-1.1712,-1.1665,-1.1964,-1.2871,-1.3674,-1.451,-1.5152,-1.5065,-1.6149,-1.7945,-1.7328,-1.5758,-1.6337,-1.7222,-1.7905,-1.8625,-2.0134,-2.1493,0.0,0.0,0.0,0.0,0.0,0.0,0.0,0.0,0.0,0.0,0.0,0.0,-0.0807,-0.2318,-0.3725,-0.513,-0.6706,-0.8215,-0.8776,-0.8887,-0.8915,-0.905,-0.9277,-0.9564,-0.9742,-0.9844,-1.0171,-1.0377,-1.0383,-1.0353,-1.0389,-1.0639,-1.0975,-1.1257,-1.1508,-1.1544,-1.1544,-1.1544,-1.1584,-1.158,-1.158,-1.158,-1.158,-1.158,-1.158,-1.158,-1.1568,-1.1209,-1.0844,-1.0654,-1.0208,-0.9897,-0.9708,-0.9657,-0.963,-0.9557,-0.962,-0.9734,-0.9821,-0.9859,-0.9902,-0.9959,-1.0063,-1.0177,-1.021,-1.0123,-1.0047,-1.0074,-0.9991,-1.0025,-1.0019,-1.0019,-1.0019,-1.0019,-1.0008,-1.0017,-1.0014,-0.9951,-0.9915,-0.9891,-0.9938,-0.9954,-0.9954,-0.9968,-1.0171,-1.0463,-1.0706,-1.1004,-1.1357,-1.176,-1.1606,-1.1279,-1.1447,-1.1757,-1.1757,-1.1773,-1.1729,-1.1658,-1.1614,-1.1799,-1.2502,-1.3523,-1.447,-1.5053,-1.5695,-1.6683,-1.7942,-1.7311,-1.6804,-1.762,-1.8412,-1.9181,-2.0141,-2.1492,-2.207,0.0,0.0,0.0,0.0,0.0,0.0,0.0,0.0,0.0,0.0,0.0,0.0,-0.121,-0.2786,-0.4391,-0.5928,-0.7538,-0.8953,-0.9442,-0.9645,-0.981,-0.9757,-0.9871,-1.0027,-1.0203,-1.0223,-1.0541,-1.0632,-1.0603,-1.0861,-1.0897,-1.1008,-1.1296,-1.1508,-1.158,-1.158,-1.158,-1.158,-1.158,-1.158,-1.158,-1.158,-1.158,-1.158,-1.158,-1.1584,-1.1554,-1.0975,-1.063,-1.0486,-1.0033,-0.9728,-0.9551,-0.9503,-0.9476,-0.9519,-0.9638,-0.9726,-0.9845,-0.9861,-0.994,-1.0106,-1.0185,-1.0221,-1.0286,-1.0128,-1.0087,-1.0125,-1.0018,-1.0025,-1.0019,-1.0019,-1.0019,-1.0019,-1.0019,-1.0019,-1.0008,-0.9987,-0.991,-0.9859,-0.9905,-0.998,-1.0285,-1.037,-1.053,-1.0852,-1.1192,-1.1451,-1.1612,-1.1922,-1.1962,-1.1834,-1.1895,-1.1999,-1.1989,-1.1908,-1.1755,-1.1694,-1.166,-1.1597,-1.1832,-1.293,-1.4346,-1.5336,-1.6085,-1.6985,-1.7703,-1.7553,-1.7759,-1.8729,-1.9565,-2.0179,-2.0601,-2.1423,-2.1888,0.0,0.0,0.0,0.0,0.0,0.0,0.0,0.0,0.0,0.0,-0.0101,-0.1176,-0.2518,-0.4091,-0.5761,-0.7303,-0.8751,-0.9322,-0.9701,-0.9749,-0.9786,-0.99,-1.0107,-1.0373,-1.0566,-1.0702,-1.0976,-1.1181,-1.1221,-1.1296,-1.1332,-1.144,-1.1512,-1.1548,-1.158,-1.158,-1.158,-1.158,-1.158,-1.158,-1.158,-1.158,-1.158,-1.158,-1.1296,-1.126,-1.1122,-1.0544,-1.0275,-1.0078,-0.9688,-0.9494,-0.9402,-0.9389,-0.9421,-0.9489,-0.9641,-0.975,-0.9905,-0.991,-0.9994,-1.0123,-1.0144,-1.0147,-1.0269,-1.0112,-1.0052,-1.0057,-1.001,-1.0006,-1.0019,-1.0019,-1.0019,-1.0019,-1.0019,-1.0019,-1.0,-0.9934,-0.9888,-0.9832,-0.9974,-1.0082,-1.0453,-1.0795,-1.1021,-1.1241,-1.159,-1.1894,-1.1989,-1.2006,-1.204,-1.1962,-1.1962,-1.1911,-1.1887,-1.1799,-1.1671,-1.1684,-1.1664,-1.164,-1.1724,-1.2968,-1.429,-1.5354,-1.6438,-1.7375,-1.7991,-1.8151,-1.861,-1.9255,-2.0106,-2.0988,-2.134,-2.1582,-2.1724,0.0,0.0,0.0,0.0,0.0,0.0,0.0,0.0,0.0,0.0,-0.0269,-0.1981,-0.3623,-0.5227,-0.6831,-0.8473,-0.9552,-1.003,-1.0059,-1.0124,-1.0175,-1.018,-1.0378,-1.0651,-1.0949,-1.1138,-1.1384,-1.1544,-1.1508,-1.158,-1.1548,-1.1548,-1.158,-1.158,-1.158,-1.158,-1.158,-1.158,-1.158,-1.158,-1.158,-1.158,-1.1476,-1.1476,-1.126,-1.1077,-1.0858,-1.0438,-1.0146,-0.9893,-0.9574,-0.9349,-0.9307,-0.9321,-0.9372,-0.9484,-0.9612,-0.9767,-0.9921,-1.0093,-1.0158,-1.025,-1.0161,-1.0155,-1.0144,-1.0068,-0.9934,-0.9983,-0.9959,-0.994,-1.0,-1.0019,-1.0019,-1.0019,-1.0019,-1.0017,-0.9979,-0.9907,-0.9856,-0.9799,-1.0036,-1.0355,-1.0832,-1.1233,-1.1516,-1.1715,-1.1889,-1.204,-1.1986,-1.2047,-1.2033,-1.1938,-1.1874,-1.1803,-1.1685,-1.1655,-1.1631,-1.1621,-1.1636,-1.1633,-1.1972,-1.3103,-1.3539,-1.3914,-1.5237,-1.7323,-1.8217,-1.843,-1.8948,-1.9552,-2.0465,-2.1354,-2.1637,-2.1828,-2.1852,0.0,0.0,0.0,0.0,0.0,0.0,0.0,0.0,0.0,-0.0202,-0.0673,-0.2183,-0.3993,-0.5834,-0.75,-0.9141,-1.022,-1.0558,-1.0618,-1.0681,-1.0594,-1.0762,-1.0913,-1.1082,-1.1131,-1.1267,-1.1426,-1.1582,-1.158,-1.158,-1.158,-1.158,-1.158,-1.158,-1.158,-1.158,-1.158,-1.158,-1.158,-1.158,-1.158,-1.1584,-1.144,-1.1224,-1.1221,-1.1002,-1.053,-1.0275,-0.9987,-0.9771,-0.9482,-0.9341,-0.9304,-0.9304,-0.937,-0.9537,-0.9609,-0.9731,-0.9823,-1.018,-1.0299,-1.028,-1.0102,-1.0081,-1.0117,-0.9967,-0.985,-0.9913,-0.9883,-0.9888,-0.9929,-1.0019,-1.0019,-1.0019,-1.0019,-1.0128,-1.0092,-1.0185,-1.0209,-1.0246,-1.0401,-1.07,-1.1197,-1.166,-1.2033,-1.2219,-1.2274,-1.2189,-1.2057,-1.2006,-1.1979,-1.1881,-1.1803,-1.1739,-1.1675,-1.1621,-1.159,-1.1584,-1.158,-1.158,-1.1864,-1.2606,-1.2848,-1.2768,-1.4318,-1.6595,-1.7819,-1.872,-1.9435,-2.015,-2.0828,-2.1523,-2.1837,-2.2024,-2.2036,0.0,0.0,0.0,0.0,0.0,0.0,0.0,0.0,-0.0202,-0.0404,-0.1143,-0.3424,-0.5064,-0.6502,-0.8507,-1.0081,-1.0552,-1.0724,-1.0769,-1.0884,-1.0823,-1.0951,-1.1046,-1.107,-1.1151,-1.1307,-1.1453,-1.1552,-1.158,-1.158,-1.158,-1.158,-1.158,-1.158,-1.158,-1.158,-1.158,-1.158,-1.158,-1.158,-1.158,-1.1584,-1.1404,-1.0972,-1.0966,-1.0639,-1.0131,-0.9951,-0.9771,-0.959,-0.9341,-0.9304,-0.9304,-0.9304,-0.9397,-0.9581,-0.9709,-0.9807,-0.9992,-1.0212,-1.0207,-1.0142,-1.0018,-0.9948,-0.9899,-0.9824,-0.9813,-0.9823,-0.9815,-0.985,-0.9948,-1.0014,-1.0019,-1.0097,-1.0136,-1.0369,-1.0449,-1.0673,-1.0797,-1.0878,-1.1018,-1.128,-1.172,-1.1868,-1.2188,-1.2207,-1.2145,-1.1996,-1.1826,-1.1843,-1.1843,-1.1789,-1.1702,-1.1702,-1.1675,-1.1614,-1.1584,-1.1584,-1.158,-1.158,-1.1972,-1.2323,-1.2664,-1.2867,-1.4325,-1.5841,-1.7434,-1.8944,-2.0005,-2.0787,-2.1191,-2.1438,-2.1649,-2.1909,-2.2127,0.0,0.0,0.0,0.0,0.0,0.0,-0.0034,-0.0202,-0.0437,-0.0875,-0.2185,-0.4698,-0.6337,-0.7438,-0.931,-1.0721,-1.0721,-1.0724,-1.0704,-1.0819,-1.0745,-1.0839,-1.0924,-1.1036,-1.1151,-1.1304,-1.144,-1.1538,-1.1577,-1.158,-1.158,-1.158,-1.158,-1.158,-1.158,-1.158,-1.158,-1.158,-1.158,-1.158,-1.1548,-1.144,-1.1185,-1.0858,-1.0603,-1.0275,-0.9843,-0.9554,-0.9446,-0.9374,-0.9304,-0.9304,-0.9304,-0.9329,-0.941,-0.9549,-0.9758,-0.9818,-0.9985,-1.0041,-1.0,-0.9905,-0.9807,-0.978,-0.9731,-0.9671,-0.9693,-0.9737,-0.9737,-0.9878,-0.9973,-0.9998,-1.0136,-1.0178,-1.0408,-1.0641,-1.0886,-1.1069,-1.1141,-1.1254,-1.1368,-1.1699,-1.2026,-1.2141,-1.2247,-1.2118,-1.1989,-1.1833,-1.1661,-1.1685,-1.1755,-1.1678,-1.1644,-1.1644,-1.1634,-1.1604,-1.1584,-1.158,-1.158,-1.158,-1.1652,-1.1936,-1.2431,-1.2964,-1.3991,-1.5372,-1.7594,-1.9111,-1.9785,-2.0514,-2.1154,-2.1341,-2.1474,-2.1496,-2.1556,0.0,0.0,0.0,0.0,0.0,0.0,-0.0236,-0.0505,-0.0539,-0.1748,-0.3794,-0.5166,-0.6735,-0.8509,-1.0081,-1.0684,-1.0721,-1.0721,-1.0718,-1.0715,-1.0711,-1.0742,-1.0863,-1.1009,-1.1094,-1.1233,-1.1372,-1.148,-1.1592,-1.158,-1.158,-1.158,-1.158,-1.158,-1.158,-1.158,-1.158,-1.158,-1.158,-1.158,-1.1548,-1.126,-1.0933,-1.0642,-1.0419,-1.0023,-0.9665,-0.9557,-0.9518,-0.941,-0.9304,-0.9304,-0.9304,-0.9304,-0.9383,-0.9508,-0.9701,-0.9745,-0.9796,-0.9835,-0.9813,-0.9758,-0.9764,-0.9739,-0.9666,-0.956,-0.9563,-0.9665,-0.9693,-0.987,-1.0023,-1.0139,-1.0253,-1.0486,-1.0719,-1.0943,-1.1205,-1.1355,-1.1363,-1.1428,-1.1496,-1.1734,-1.1995,-1.2172,-1.2132,-1.205,-1.1938,-1.1901,-1.1732,-1.1657,-1.1677,-1.1627,-1.16,-1.159,-1.158,-1.158,-1.158,-1.158,-1.158,-1.158,-1.158,-1.158,-1.1936,-1.2502,-1.3281,-1.48,-1.6916,-1.8331,-1.9186,-1.9987,-2.0988,-2.1347,-2.1462,-2.0555,-2.033,0.0,0.0,0.0,0.0,0.0,-0.0269,-0.0438,-0.0539,-0.1043,-0.2286,-0.3896,-0.5566,-0.7269,-0.8673,-1.0081,-1.0585,-1.0721,-1.0738,-1.0772,-1.0772,-1.0725,-1.0769,-1.0843,-1.0934,-1.0978,-1.1084,-1.1212,-1.1392,-1.148,-1.1548,-1.158,-1.158,-1.158,-1.158,-1.158,-1.158,-1.158,-1.158,-1.1584,-1.1584,-1.1476,-1.1152,-1.0822,-1.053,-1.0203,-0.9774,-0.9521,-0.9449,-0.941,-0.9338,-0.9304,-0.9304,-0.9304,-0.9307,-0.9359,-0.9481,-0.962,-0.9701,-0.9717,-0.9736,-0.969,-0.9636,-0.9625,-0.9576,-0.9514,-0.9462,-0.9469,-0.9564,-0.9751,-0.9967,-1.0196,-1.037,-1.0598,-1.0916,-1.1148,-1.1377,-1.1638,-1.1782,-1.1814,-1.169,-1.1755,-1.172,-1.1993,-1.2013,-1.1965,-1.1925,-1.1891,-1.183,-1.1776,-1.1655,-1.1633,-1.1584,-1.158,-1.158,-1.158,-1.158,-1.158,-1.158,-1.158,-1.158,-1.158,-1.158,-1.158,-1.2008,-1.2785,-1.4303,-1.6207,-1.7373,-1.8401,-1.9895,-2.0914,-2.1197,-2.1222,-2.0343,-1.9682,0.0,0.0,0.0,0.0,0.0,-0.0505,-0.0741,-0.0942,-0.1951,-0.3326,-0.4931,-0.66,-0.8071,-0.9446,-1.0349,-1.0721,-1.0721,-1.0721,-1.0732,-1.0742,-1.0732,-1.0745,-1.0806,-1.0894,-1.0968,-1.104,-1.1131,-1.1346,-1.143,-1.1541,-1.158,-1.158,-1.158,-1.1577,-1.158,-1.158,-1.158,-1.1548,-1.1476,-1.1512,-1.1332,-1.1005,-1.0567,-1.0419,-0.9987,-0.9554,-0.9341,-0.9304,-0.9304,-0.9304,-0.9304,-0.9304,-0.9304,-0.9307,-0.9315,-0.9424,-0.9519,-0.9546,-0.9562,-0.9568,-0.9563,-0.9564,-0.9504,-0.9432,-0.9405,-0.9367,-0.941,-0.9523,-0.9824,-1.0092,-1.0384,-1.0665,-1.1037,-1.1372,-1.1603,-1.1837,-1.2064,-1.2256,-1.2205,-1.2036,-1.1949,-1.181,-1.181,-1.1793,-1.18,-1.1853,-1.1837,-1.1763,-1.1715,-1.1631,-1.159,-1.1584,-1.158,-1.158,-1.158,-1.158,-1.158,-1.158,-1.158,-1.158,-1.158,-1.158,-1.158,-1.1868,-1.2295,-1.3777,-1.5181,-1.6489,-1.767,-1.9084,-2.0379,-2.0964,-2.0828,-2.0109,-1.9579,0.0,0.0,-0.0034,0.0,0.0,-0.0842,-0.1211,-0.1548,-0.3291,-0.4865,-0.64,-0.7902,-0.9208,-1.0216,-1.0684,-1.0721,-1.0721,-1.0721,-1.0724,-1.0724,-1.0731,-1.0708,-1.0752,-1.0836,-1.0917,-1.1073,-1.1196,-1.1219,-1.1467,-1.1531,-1.1511,-1.1592,-1.1552,-1.1535,-1.1555,-1.1562,-1.154,-1.1548,-1.1332,-1.1188,-1.1149,-1.0675,-1.0095,-1.0239,-0.9807,-0.9304,-0.9304,-0.9304,-0.9304,-0.9304,-0.9304,-0.9304,-0.9304,-0.9304,-0.931,-0.9334,-0.9424,-0.9416,-0.9478,-0.9545,-0.952,-0.9476,-0.9416,-0.9543,-0.9652,-0.9538,-0.9554,-0.9683,-0.9974,-1.0397,-1.0685,-1.0917,-1.1267,-1.1584,-1.1812,-1.1964,-1.2115,-1.2192,-1.207,-1.1922,-1.1824,-1.1736,-1.1722,-1.1715,-1.1745,-1.1786,-1.1742,-1.1692,-1.1661,-1.1597,-1.1587,-1.158,-1.158,-1.158,-1.158,-1.158,-1.158,-1.158,-1.158,-1.158,-1.158,-1.158,-1.158,-1.1796,-1.2043,-1.2749,-1.3951,-1.5257,-1.6569,-1.7866,-1.9134,-2.0397,-2.0401,-1.9792,-1.9481,0.0,0.0,-0.0269,-0.037,-0.0471,-0.1178,-0.2153,-0.3292,-0.5031,-0.6032,-0.6633,-0.8005,-0.9377,-1.0552,-1.0721,-1.0721,-1.0721,-1.0721,-1.0721,-1.0721,-1.0721,-1.0721,-1.0744,-1.0816,-1.0874,-1.0846,-1.0914,-1.1118,-1.126,-1.1304,-1.1341,-1.1426,-1.1396,-1.1382,-1.1487,-1.1491,-1.1496,-1.1577,-1.1332,-1.1077,-1.0969,-1.0711,-1.0308,-1.0059,-0.959,-0.9338,-0.9304,-0.9304,-0.9304,-0.9304,-0.9304,-0.9304,-0.9304,-0.9338,-0.9341,-0.931,-0.9412,-0.944,-0.9513,-0.9669,-0.9766,-0.9902,-0.9951,-1.0131,-1.0131,-0.9918,-0.9836,-0.9999,-1.0252,-1.0669,-1.1002,-1.1195,-1.144,-1.1702,-1.1968,-1.2043,-1.2118,-1.2026,-1.1891,-1.1793,-1.1695,-1.1665,-1.1651,-1.1641,-1.167,-1.1667,-1.1627,-1.1611,-1.1617,-1.1584,-1.1584,-1.158,-1.158,-1.158,-1.158,-1.158,-1.158,-1.158,-1.158,-1.158,-1.158,-1.158,-1.158,-1.158,-1.1828,-1.2431,-1.3067,-1.3987,-1.5301,-1.6795,-1.8168,-1.9571,-2.0081,-1.9706,-1.9467,-0.0373,-0.0942,-0.1312,-0.1076,-0.0807,-0.1984,-0.3058,-0.4129,-0.6335,-0.7367,-0.7569,-0.8842,-0.9981,-1.0684,-1.0721,-1.0721,-1.0721,-1.0721,-1.0721,-1.0721,-1.0721,-1.0721,-1.0735,-1.0779,-1.0826,-1.0813,-1.0965,-1.109,-1.109,-1.12,-1.1278,-1.1341,-1.1322,-1.1311,-1.145,-1.1494,-1.1518,-1.1577,-1.1325,-1.1113,-1.0861,-1.0455,-1.0311,-0.9987,-0.9699,-0.941,-0.9304,-0.9304,-0.9304,-0.9377,-0.9485,-0.9735,-0.9843,-0.9915,-0.9879,-0.9879,-0.9882,-0.9843,-0.9879,-0.9987,-1.0167,-1.0275,-1.0344,-1.0419,-1.0455,-1.0242,-1.0314,-1.0447,-1.0721,-1.1105,-1.1219,-1.139,-1.1585,-1.1811,-1.1885,-1.1925,-1.1959,-1.1918,-1.1783,-1.1688,-1.1627,-1.1617,-1.1607,-1.1611,-1.164,-1.164,-1.1587,-1.1584,-1.1584,-1.158,-1.158,-1.158,-1.158,-1.158,-1.158,-1.158,-1.158,-1.158,-1.158,-1.158,-1.158,-1.158,-1.158,-1.158,-1.1652,-1.1903,-1.2574,-1.342,-1.4689,-1.6317,-1.757,-1.8811,-1.916,-1.948,-1.9425,-0.0707,-0.1815,-0.2488,-0.1917,-0.1043,-0.2923,-0.3997,-0.4664,-0.7238,-0.8706,-0.8975,-1.0084,-1.0651,-1.0721,-1.0721,-1.0721,-1.0721,-1.0721,-1.0721,-1.0721,-1.0721,-1.0721,-1.0721,-1.0734,-1.0759,-1.0873,-1.0975,-1.0951,-1.0945,-1.1033,-1.1118,-1.129,-1.1362,-1.1392,-1.1472,-1.154,-1.1533,-1.1536,-1.1403,-1.1142,-1.0711,-1.0164,-1.0167,-1.0023,-0.9735,-0.9338,-0.9304,-0.9374,-0.9374,-0.9554,-0.9774,-1.0059,-1.0239,-1.0311,-1.0347,-1.0311,-1.0311,-1.0347,-1.0419,-1.0458,-1.053,-1.0603,-1.0599,-1.0635,-1.0711,-1.0746,-1.0822,-1.0935,-1.1176,-1.1321,-1.1437,-1.1514,-1.17,-1.1776,-1.1776,-1.1776,-1.1773,-1.1766,-1.1685,-1.1594,-1.159,-1.1584,-1.158,-1.158,-1.158,-1.158,-1.158,-1.158,-1.158,-1.158,-1.158,-1.158,-1.158,-1.158,-1.158,-1.158,-1.158,-1.158,-1.158,-1.158,-1.158,-1.158,-1.158,-1.158,-1.1688,-1.1796,-1.2291,-1.3103,-1.4441,-1.5641,-1.6705,-1.7745,-1.8317,-1.8695,-1.9209,-0.0135,-0.0538,-0.232,-0.2287,-0.1481,-0.3328,-0.4833,-0.6099,-0.7772,-0.9211,-1.0081,-1.0419,-1.0721,-1.0721,-1.0721,-1.0721,-1.0721,-1.0721,-1.0721,-1.0721,-1.0721,-1.0721,-1.0721,-1.0721,-1.0701,-1.0789,-1.0846,-1.0823,-1.0843,-1.0823,-1.086,-1.1019,-1.1022,-1.1049,-1.109,-1.1222,-1.1463,-1.1487,-1.1465,-1.126,-1.0933,-1.0458,-0.9987,-0.9735,-0.9374,-0.9304,-0.9374,-0.9627,-0.9735,-0.9915,-1.0167,-1.0419,-1.0563,-1.0639,-1.0639,-1.0675,-1.0675,-1.0675,-1.0711,-1.0858,-1.0894,-1.093,-1.1038,-1.1253,-1.1293,-1.1293,-1.1329,-1.1329,-1.15,-1.15,-1.1575,-1.1575,-1.1651,-1.1651,-1.1651,-1.1651,-1.1648,-1.1648,-1.1614,-1.1587,-1.1584,-1.158,-1.158,-1.158,-1.158,-1.158,-1.158,-1.158,-1.158,-1.158,-1.1573,-1.158,-1.158,-1.158,-1.158,-1.158,-1.158,-1.158,-1.158,-1.158,-1.158,-1.158,-1.158,-1.158,-1.158,-1.1652,-1.2255,-1.2875,-1.3468,-1.4564,-1.5641,-1.659,-1.7298,-1.7765,-1.8191]},{"header":{"parameterUnit":"m.s-1","parameterCategory":1,"la1":31.0,"la2":29.5877,"lo1":-88.7671,"lo2":-86.6584,"dy":0.0162,"dx":0.0185,"nx":115,"ny":88,"refTime":"2024-08-31T06:00:00:Z","depth":0,"parameterNumber":3,"parameterNumberName":"V-component_of_WINDS"},"data":[0.0,0.0,0.0,0.0,0.0,0.0,0.0,0.0,0.0,0.0,0.0,0.0,0.0,0.0,0.0,0.0,0.0,0.0,0.0,0.0,0.0,0.0,0.0,0.0,0.0,0.0,0.0,0.0,0.0,0.0,0.0,0.0,0.0,0.0,0.0,0.0,0.0,0.0,0.0,0.0,0.0,0.0,0.0,0.0,0.0,0.0,0.0,0.0,0.0,0.0,0.0,0.0,0.0,0.0,0.0,0.0,0.0,0.0,0.0,0.0,0.0,0.0,0.0,0.0,0.0,0.0,0.0,0.0,0.0,0.0,0.0,0.0,0.0,0.0,0.0,0.0,0.0,0.0,0.0,0.0,0.0,0.0,0.0,0.0,0.0,0.0,0.0,0.0,0.0,0.0,0.0,0.0,0.0,0.0,0.0,0.0,0.0,0.0,0.0,0.0,0.0,0.0,0.0,0.0,0.0,0.0,0.0,0.0,0.0,0.0,0.0,0.0,0.0,0.0,0.0,0.0,0.0,0.0,0.0,0.0,0.0,0.0,0.0,0.0,0.0,0.0,0.0,0.0,0.0,0.0,0.0,0.0,0.0,0.0,0.0,0.0,0.0,0.0,0.0,0.0,0.0,0.0,0.0,0.0,0.0,0.0,0.0,0.0,0.0,0.0,0.0,0.0,0.0,0.0,0.0,0.0,0.0,0.0,0.0,0.0,0.0,0.0,0.0,0.0,0.0,0.0,0.0,0.0,0.0,0.0,0.0,0.0,0.0,0.0,0.0,0.0,0.0,0.0,0.0,0.0,0.0,0.0,0.0,0.0,0.0,0.0,0.0,0.0,0.0,0.0,0.0,0.0,0.0,0.0,0.0,0.0,0.0,0.0,0.0,0.0,0.0,0.0,0.0,0.0,0.0,0.0,0.0,0.0,0.0,0.0,0.0,0.0,0.0,0.0,0.0,0.0,0.0,0.0,0.0,0.0,0.0,0.0,0.0,0.0,0.0,0.0,0.0,0.0,0.0,0.0,0.0,0.0,0.0,0.0,0.0,0.0,0.0,0.0,0.0,0.0,0.0,0.0,0.0,0.0,0.0,0.0,0.0,0.0,0.0,0.0,0.0,0.0,0.0,0.0,0.0,0.0,0.0,0.0,0.0,0.0,0.0,0.0,0.0,0.0,0.0,0.0,0.0,0.0,0.0,0.0,0.0,0.0,0.0,0.0,0.0,0.0,0.0,0.0,0.0,0.0,0.0,0.0,0.0,0.0,0.0,0.0,0.0,0.0,0.0,0.0,0.0,0.0,0.0,0.0,0.0,0.0,0.0,0.0,0.0,0.0,0.0,0.0,0.0,0.0,0.0,0.0,0.0,0.0,0.0,0.0,0.0,0.0,0.0,0.0,0.0,0.0,0.0,0.0,0.0,0.0,0.0,0.0,0.0,0.0,0.0,0.0,0.0,0.0,0.0,0.0,0.0,0.0,0.0,0.0,0.0,0.0,0.0,0.0,0.0,0.0,0.0,0.0,0.0,0.0,0.0,0.0,0.0,0.0,0.0,0.0,0.0,0.0,0.0,0.0,0.0,0.0,0.0,0.0,0.0,0.0,0.0,0.0,0.0,0.0,0.0,0.0,0.0,0.0,0.0,0.0,0.0,0.0,0.0,0.0,0.0,0.0,0.0,0.0,0.0,0.0,0.0,0.0,0.0,0.0,0.0,0.0,0.0,0.0,0.0,0.0,0.0,0.0,0.0,0.0,0.0,0.0,0.0,0.0,0.0,0.0,0.0,0.0,0.0,0.0,0.0,0.0,0.0,0.0,0.0,0.0,0.0,0.0,0.0,0.0,0.0,0.0,0.0,0.0,0.0,0.0,0.0,0.0,0.0,0.0,0.0,0.0,0.0,0.0,0.0,0.0,0.0,0.0,0.0,0.0,0.0,0.0,0.0,0.0,0.0,0.0,0.0,0.0,0.0,0.0,0.0,0.0,0.0,0.0,0.0,0.0,0.0,0.0,0.0,0.0,0.0,0.0,0.0,0.0,0.0,0.0,0.0,0.0,0.0,0.0,0.0,0.0,0.0,0.0,0.0,0.0,0.0,0.0,0.0,0.0,0.0,0.0,0.0,0.0,0.0,0.0,0.0,0.0,0.0,0.0,0.0,0.0,0.0,0.0,0.0,0.0,0.0,0.0,0.0,0.0,0.0,0.0,0.0,0.0,0.0,0.0,0.0,0.0,0.0,0.0,0.0,0.0,0.0,0.0,0.0,0.0,0.0,0.0,0.0,0.0,0.0,0.0,0.0,0.0,0.0,0.0,0.0,0.0,0.0,0.0,0.0,0.0,0.0,0.0,0.0,0.0,0.0,0.0,0.0,0.0,0.0,0.0,0.0,0.0,0.0,0.0,0.0,0.0,0.0,0.0,0.0,0.0,0.0,0.0,0.0,0.0,0.0,0.0,0.0,0.0,0.0,0.0,0.0,0.0,0.0,0.0,0.0,0.0,0.0,0.0,0.0,0.0,0.0,0.0,0.0,0.0,0.0,0.0,0.0,0.0,0.0,0.0,0.0,0.0,0.0,0.0,0.0,0.0,0.0,0.0,0.0,0.0,0.0,0.0,0.0,0.0,0.0,0.0,0.0,0.0,0.0,0.0,0.0,0.0,0.0,0.0,0.0,0.0,0.0,0.0,0.0,0.0,0.0,0.0,0.0,0.0,0.0,0.0,0.0,0.0,0.0,0.0,0.0,0.0,0.0,0.0,0.0,0.0,0.0,0.0,0.0,0.0,0.0,0.0,0.0,0.0,0.0,0.0,0.0,0.0,0.0,0.0,0.0,0.0,0.0,0.0,0.0,0.0,0.0,0.0,0.0,0.0,0.0,0.0,0.0,0.0,0.0,0.0,0.0,0.0,0.0,0.0,0.0,0.0,0.0,0.0,0.0,0.0,0.0,0.0,0.0,0.0,0.0,0.0,0.0,0.0,0.0,0.0,0.0,0.0,0.0,0.0,0.0,0.0,0.0,0.0,0.0,0.0,0.0,0.0,0.0,0.0,0.0,0.0,0.0,0.0,0.0,0.0,0.0,0.0,0.0,0.0,0.0,0.0,0.0,0.0,0.0,0.0,0.0,0.0,0.0,0.0,0.0,0.0,0.0,0.0,0.0,0.0,0.0,0.0,0.0,0.0,0.0,0.0,0.0,0.0,0.0,0.0,0.0,0.0,0.0,0.0,0.0,0.0,0.0,0.0,0.0,0.0,0.0,0.0,0.0,0.0,0.0,0.0,0.0,0.0,0.0,0.0,0.0,0.0,0.0,0.0,0.0,0.0,0.0,0.0,0.0,0.0,0.0,0.0,0.0,0.0,0.0,0.0,0.0,0.0,0.0,0.0,0.0,0.0,0.0,0.0,0.0,0.0,0.0,0.0,0.0,0.0,0.0,0.0,0.0,0.0,0.0,0.0,0.0,0.0,0.0,0.0,0.0,0.0,0.0,0.0,0.0,0.0,0.0,0.0,0.0,0.0,0.0,0.0,0.0,0.0,0.0,0.0,0.0,0.0,0.0,0.0,0.0,0.0,0.0,0.0,0.0,0.0,0.0,0.0,0.0,0.0,0.0,0.0,0.0,0.0,0.0,0.0,0.0,0.0,0.0,0.0,0.0,0.0,0.0,0.0,0.0,0.0,0.0,0.0,0.0,0.0,0.0,0.0,0.0,0.0,0.0,0.0,0.0,0.0,0.0,0.0,0.0,0.0,0.0,0.0,0.0,0.0,0.0,0.0,0.0,0.0,0.0,0.0,0.0,0.0,0.0,0.0,0.0,0.0,0.0,0.0,0.0,0.0,0.0,0.0,0.0,0.0,0.0,0.0,0.0,0.0,0.0,0.0,0.0,0.0,0.0,0.0,0.0,0.0,0.0,0.0,0.0,0.0,0.0,0.0,0.0,0.0,0.0,0.0,0.0,0.0,0.0,0.0,0.0,0.0,0.0,0.0,0.0,0.0,0.0,0.0,0.0,0.0,0.0,0.0,0.0,0.0,0.0,0.0,0.0,0.0,0.0,0.0,0.0,0.0,0.0,0.0,0.0,0.0,0.0,0.0,0.0,0.0,0.0,0.0,0.0,0.0,0.0,0.0,0.0,0.0,0.0,0.0,0.0,0.0,0.0,0.0,0.0,0.0,0.0,0.0,0.0,0.0,0.0,0.0,0.0,0.0,0.0,0.0,0.0,0.0,0.0,0.0,0.0,0.0,0.0,0.0,0.0,0.0,0.0,0.0,0.0,0.0,0.0,0.0,4.2395,0.0,0.0,0.0,0.0,0.0,0.0,0.0,0.0,0.0,0.0,0.0,0.0,0.0,0.0,0.0,0.0,0.0,0.0,0.0,0.0,0.0,0.0,0.0,0.0,0.0,0.0,0.0,0.0,0.0,0.0,0.0,0.0,0.0,0.0,0.0,0.0,0.0,0.0,0.0,0.0,0.0,0.0,0.0,0.0,0.0,0.0,0.0,0.0,0.0,0.0,0.0,0.0,0.0,0.0,0.0,0.0,0.0,0.0,0.0,0.0,0.0,0.0,0.0,0.0,0.0,0.0,0.0,0.0,0.0,0.0,0.0,0.0,0.0,0.0,0.0,0.0,0.0,0.0,0.0,0.0,0.0,0.0,0.0,0.0,0.0,0.0,0.0,0.0,0.0,0.0,0.0,0.0,0.0,0.0,0.0,0.0,0.0,0.0,0.0,0.0,0.0,0.0,0.0,0.0,0.0,0.0,0.0,0.0,0.0,0.0,4.5231,4.5187,4.5055,4.4169,4.2473,0.0,0.0,0.0,0.0,0.0,0.0,0.0,0.0,0.0,0.0,0.0,0.0,0.0,0.0,0.0,0.0,0.0,0.0,0.0,0.0,0.0,0.0,0.0,0.0,0.0,0.0,0.0,0.0,0.0,0.0,0.0,0.0,0.0,0.0,0.0,0.0,0.0,0.0,0.0,0.0,0.0,0.0,0.0,0.0,0.0,0.0,0.0,0.0,0.0,0.0,0.0,0.0,0.0,0.0,0.0,0.0,0.0,0.0,0.0,0.0,0.0,0.0,0.0,0.0,0.0,0.0,0.0,0.0,0.0,0.0,0.0,0.0,0.0,0.0,0.0,0.0,0.0,0.0,0.0,0.0,0.0,0.0,0.0,0.0,0.0,0.0,0.0,0.0,0.0,0.0,0.0,0.0,0.0,0.0,0.0,0.0,0.0,0.0,0.0,0.0,0.0,0.0,0.0,0.0,0.0,0.0,0.0,0.0,0.0,0.0,0.0,0.0,4.5245,4.4244,4.2454,0.0,0.0,0.0,0.0,0.0,0.0,0.0,0.0,0.0,0.0,0.0,0.0,0.0,0.0,0.0,0.0,0.0,0.0,0.0,0.0,0.0,0.0,0.0,0.0,0.0,0.0,0.0,0.0,0.0,0.0,0.0,0.0,0.0,0.0,0.0,0.0,0.0,0.0,0.0,0.0,0.0,0.0,0.0,0.0,0.0,0.0,0.0,0.0,0.0,0.0,0.0,0.0,0.0,0.0,0.0,0.0,0.0,0.0,0.0,0.0,0.0,0.0,0.0,0.0,0.0,0.0,0.0,0.0,0.0,0.0,0.0,0.0,0.0,0.0,0.0,0.0,0.0,0.0,0.0,0.0,0.0,0.0,0.0,0.0,0.0,0.0,0.0,0.0,0.0,0.0,0.0,0.0,0.0,0.0,0.0,0.0,0.0,0.0,0.0,0.0,0.0,0.0,0.0,0.0,0.0,0.0,0.0,0.0,0.0,0.0,4.5149,4.6328,4.6095,0.0,4.2551,0.0,0.0,0.0,0.0,0.0,0.0,0.0,0.0,0.0,0.0,0.0,0.0,0.0,0.0,0.0,0.0,0.0,0.0,0.0,0.0,0.0,0.0,0.0,0.0,0.0,0.0,0.0,0.0,0.0,0.0,0.0,0.0,0.0,0.0,0.0,0.0,0.0,0.0,0.0,0.0,0.0,0.0,0.0,0.0,0.0,0.0,0.0,0.0,0.0,0.0,0.0,0.0,0.0,0.0,0.0,0.0,0.0,0.0,0.0,0.0,0.0,0.0,0.0,0.0,0.0,0.0,0.0,0.0,0.0,0.0,0.0,0.0,0.0,0.0,0.0,0.0,0.0,0.0,0.0,0.0,0.0,0.0,0.0,0.0,0.0,0.0,0.0,0.0,0.0,0.0,0.0,0.0,0.0,0.0,0.0,0.0,0.0,0.0,0.0,0.0,0.0,0.0,0.0,0.0,0.0,0.0,0.0,0.0,0.0,0.0,0.0,4.6266,4.5079,4.373,0.0,0.0,0.0,0.0,0.0,0.0,0.0,0.0,0.0,0.0,0.0,0.0,0.0,0.0,0.0,0.0,0.0,0.0,0.0,0.0,0.0,0.0,0.0,0.0,0.0,0.0,0.0,0.0,0.0,0.0,0.0,0.0,0.0,0.0,0.0,0.0,0.0,0.0,0.0,0.0,0.0,0.0,0.0,0.0,0.0,0.0,0.0,0.0,0.0,0.0,0.0,0.0,0.0,0.0,0.0,0.0,0.0,0.0,0.0,0.0,0.0,0.0,0.0,0.0,0.0,0.0,0.0,0.0,0.0,0.0,0.0,0.0,0.0,0.0,0.0,0.0,0.0,0.0,0.0,0.0,0.0,0.0,0.0,0.0,0.0,0.0,0.0,0.0,0.0,0.0,0.0,0.0,0.0,0.0,0.0,0.0,0.0,0.0,0.0,0.0,0.0,0.0,0.0,0.0,0.0,0.0,0.0,0.0,0.0,0.0,4.5031,0.0,4.5716,4.4739,4.3316,4.1487,0.0,0.0,0.0,0.0,0.0,0.0,0.0,0.0,0.0,0.0,0.0,0.0,0.0,0.0,0.0,0.0,0.0,0.0,0.0,0.0,0.0,0.0,0.0,0.0,0.0,0.0,0.0,0.0,0.0,0.0,0.0,0.0,0.0,0.0,0.0,0.0,0.0,0.0,0.0,0.0,0.0,0.0,0.0,0.0,0.0,0.0,0.0,0.0,0.0,0.0,0.0,0.0,0.0,0.0,0.0,0.0,0.0,0.0,0.0,0.0,0.0,0.0,0.0,0.0,0.0,0.0,0.0,0.0,0.0,0.0,0.0,0.0,0.0,0.0,0.0,0.0,0.0,0.0,0.0,0.0,0.0,0.0,0.0,0.0,0.0,0.0,0.0,0.0,0.0,0.0,0.0,0.0,0.0,0.0,0.0,0.0,0.0,0.0,0.0,0.0,0.0,0.0,0.0,0.0,0.0,0.0,0.0,0.0,0.0,4.5186,4.4702,4.502,4.5845,4.4347,0.0,0.0,0.0,0.0,0.0,0.0,0.0,0.0,0.0,0.0,0.0,0.0,0.0,0.0,0.0,0.0,0.0,0.0,0.0,0.0,0.0,0.0,0.0,0.0,0.0,0.0,0.0,0.0,0.0,0.0,0.0,0.0,0.0,0.0,0.0,0.0,0.0,0.0,0.0,0.0,0.0,0.0,0.0,0.0,0.0,0.0,0.0,0.0,0.0,0.0,0.0,0.0,0.0,0.0,0.0,0.0,0.0,0.0,0.0,0.0,0.0,0.0,0.0,0.0,0.0,0.0,0.0,0.0,0.0,0.0,0.0,0.0,0.0,0.0,0.0,0.0,0.0,0.0,0.0,0.0,0.0,0.0,0.0,0.0,0.0,0.0,0.0,0.0,0.0,0.0,0.0,0.0,0.0,0.0,0.0,0.0,0.0,0.0,0.0,0.0,0.0,0.0,0.0,0.0,0.0,0.0,0.0,0.0,0.0,4.3813,4.4934,4.575,4.618,4.4556,4.2623,0.0,0.0,0.0,0.0,0.0,0.0,0.0,0.0,0.0,0.0,0.0,0.0,0.0,0.0,0.0,0.0,0.0,0.0,0.0,0.0,0.0,0.0,0.0,0.0,0.0,0.0,0.0,0.0,0.0,0.0,0.0,0.0,0.0,0.0,0.0,0.0,0.0,0.0,0.0,0.0,0.0,0.0,0.0,0.0,0.0,0.0,0.0,0.0,0.0,0.0,0.0,0.0,0.0,0.0,0.0,0.0,0.0,0.0,0.0,0.0,0.0,0.0,0.0,0.0,0.0,0.0,0.0,0.0,0.0,0.0,0.0,0.0,0.0,0.0,0.0,0.0,0.0,0.0,0.0,0.0,0.0,0.0,0.0,0.0,0.0,0.0,0.0,0.0,0.0,0.0,0.0,0.0,0.0,0.0,0.0,0.0,0.0,0.0,0.0,0.0,0.0,0.0,0.0,0.0,0.0,0.0,0.0,0.0,0.0,4.2698,0.0,4.5982,0.0,4.3475,4.1542,0.0,0.0,0.0,0.0,0.0,0.0,0.0,0.0,0.0,0.0,0.0,0.0,0.0,0.0,0.0,0.0,0.0,0.0,0.0,0.0,0.0,0.0,0.0,0.0,0.0,0.0,0.0,0.0,0.0,0.0,0.0,0.0,0.0,0.0,0.0,0.0,0.0,0.0,0.0,0.0,0.0,0.0,0.0,0.0,0.0,0.0,0.0,0.0,0.0,0.0,0.0,0.0,0.0,0.0,0.0,0.0,0.0,0.0,0.0,0.0,0.0,0.0,0.0,0.0,0.0,0.0,0.0,0.0,0.0,0.0,0.0,0.0,0.0,0.0,0.0,0.0,0.0,0.0,0.0,0.0,0.0,0.0,0.0,0.0,0.0,0.0,0.0,0.0,0.0,0.0,0.0,0.0,0.0,0.0,0.0,0.0,0.0,0.0,0.0,0.0,0.0,0.0,0.0,0.0,0.0,0.0,0.0,0.0,4.181,4.3259,4.5336,4.5144,4.2244,4.2857,4.1342,0.0,0.0,0.0,0.0,0.0,0.0,0.0,0.0,0.0,0.0,0.0,0.0,0.0,0.0,0.0,0.0,0.0,0.0,0.0,0.0,0.0,0.0,0.0,0.0,0.0,0.0,0.0,0.0,0.0,0.0,0.0,0.0,0.0,0.0,0.0,0.0,0.0,0.0,0.0,0.0,0.0,0.0,0.0,0.0,0.0,0.0,0.0,0.0,0.0,0.0,0.0,0.0,0.0,0.0,0.0,0.0,0.0,0.0,0.0,0.0,0.0,0.0,0.0,0.0,0.0,0.0,0.0,0.0,0.0,0.0,0.0,0.0,0.0,0.0,0.0,0.0,0.0,0.0,0.0,0.0,0.0,0.0,0.0,0.0,0.0,0.0,0.0,0.0,0.0,0.0,0.0,0.0,0.0,0.0,0.0,0.0,0.0,0.0,0.0,0.0,0.0,0.0,0.0,0.0,0.0,0.0,0.0,0.0,0.0,4.2432,4.4494,4.5371,4.4796,4.2823,4.146,0.0,0.0,0.0,0.0,0.0,0.0,0.0,0.0,0.0,0.0,0.0,0.0,0.0,0.0,0.0,0.0,0.0,0.0,0.0,0.0,0.0,0.0,0.0,0.0,0.0,0.0,0.0,0.0,0.0,0.0,0.0,0.0,0.0,0.0,0.0,0.0,0.0,0.0,0.0,0.0,0.0,0.0,0.0,0.0,0.0,0.0,0.0,0.0,0.0,0.0,0.0,0.0,0.0,0.0,0.0,0.0,0.0,0.0,0.0,0.0,0.0,0.0,0.0,0.0,0.0,0.0,0.0,0.0,0.0,0.0,0.0,0.0,0.0,0.0,0.0,0.0,0.0,0.0,0.0,0.0,0.0,0.0,0.0,0.0,0.0,0.0,0.0,0.0,0.0,0.0,0.0,0.0,0.0,0.0,0.0,0.0,0.0,0.0,0.0,0.0,0.0,0.0,0.0,0.0,0.0,0.0,0.0,0.0,0.0,4.3237,4.4905,4.5768,4.5751,4.3656,4.2174,4.1434,0.0,0.0,0.0,0.0,0.0,0.0,0.0,0.0,0.0,0.0,0.0,0.0,0.0,0.0,0.0,0.0,0.0,0.0,0.0,0.0,0.0,0.0,0.0,0.0,0.0,0.0,0.0,0.0,0.0,0.0,0.0,0.0,0.0,0.0,0.0,0.0,0.0,0.0,0.0,0.0,0.0,0.0,0.0,0.0,0.0,0.0,0.0,0.0,0.0,0.0,0.0,0.0,0.0,0.0,0.0,0.0,0.0,0.0,0.0,0.0,0.0,0.0,0.0,0.0,0.0,0.0,0.0,0.0,0.0,0.0,0.0,0.0,0.0,0.0,0.0,0.0,0.0,0.0,0.0,0.0,0.0,0.0,0.0,0.0,0.0,0.0,0.0,0.0,0.0,0.0,0.0,0.0,0.0,0.0,0.0,0.0,0.0,0.0,0.0,0.0,0.0,0.0,0.0,0.0,0.0,0.0,0.0,0.0,4.5258,4.6291,4.6358,4.5454,4.5076,4.3405,0.0,0.0,0.0,0.0,0.0,0.0,0.0,0.0,0.0,0.0,0.0,0.0,0.0,0.0,0.0,0.0,0.0,0.0,0.0,0.0,0.0,0.0,0.0,0.0,0.0,0.0,0.0,0.0,0.0,0.0,0.0,0.0,0.0,0.0,0.0,0.0,0.0,0.0,0.0,0.0,0.0,0.0,0.0,0.0,0.0,0.0,0.0,0.0,0.0,0.0,0.0,0.0,0.0,0.0,0.0,0.0,0.0,0.0,0.0,0.0,0.0,0.0,0.0,0.0,0.0,0.0,0.0,0.0,0.0,0.0,0.0,0.0,0.0,0.0,0.0,0.0,0.0,0.0,0.0,0.0,0.0,0.0,0.0,0.0,0.0,0.0,0.0,0.0,0.0,0.0,0.0,0.0,0.0,0.0,0.0,0.0,0.0,0.0,0.0,0.0,0.0,0.0,0.0,0.0,0.0,0.0,0.0,0.0,0.0,4.6315,4.6798,4.7134,4.7285,4.5899,4.4433,0.0,0.0,0.0,0.0,0.0,0.0,0.0,0.0,0.0,0.0,0.0,0.0,0.0,0.0,0.0,0.0,0.0,0.0,0.0,0.0,0.0,0.0,0.0,0.0,0.0,0.0,0.0,0.0,0.0,0.0,0.0,0.0,0.0,0.0,0.0,0.0,0.0,0.0,0.0,0.0,0.0,0.0,0.0,0.0,0.0,0.0,0.0,0.0,0.0,0.0,0.0,0.0,0.0,0.0,0.0,0.0,0.0,0.0,0.0,0.0,0.0,0.0,0.0,0.0,0.0,0.0,0.0,0.0,0.0,0.0,0.0,0.0,0.0,0.0,0.0,0.0,0.0,0.0,0.0,0.0,0.0,0.0,0.0,0.0,0.0,0.0,0.0,0.0,0.0,0.0,0.0,0.0,0.0,0.0,0.0,0.0,0.0,0.0,0.0,0.0,0.0,0.0,0.0,0.0,0.0,0.0,0.0,0.0,4.5252,4.6875,4.7032,4.7291,4.7674,4.6502,4.5098,0.0,0.0,0.0,0.0,0.0,0.0,0.0,0.0,0.0,0.0,0.0,0.0,0.0,0.0,0.0,0.0,0.0,0.0,0.0,0.0,0.0,0.0,0.0,0.0,0.0,0.0,0.0,0.0,0.0,0.0,0.0,0.0,0.0,0.0,0.0,0.0,0.0,0.0,0.0,0.0,0.0,0.0,0.0,0.0,0.0,0.0,0.0,0.0,0.0,0.0,0.0,0.0,0.0,0.0,0.0,0.0,0.0,0.0,0.0,0.0,0.0,0.0,0.0,0.0,0.0,0.0,0.0,0.0,0.0,0.0,0.0,0.0,0.0,0.0,0.0,0.0,0.0,0.0,0.0,0.0,0.0,0.0,0.0,0.0,0.0,0.0,0.0,0.0,0.0,0.0,0.0,0.0,0.0,0.0,0.0,0.0,0.0,0.0,0.0,0.0,0.0,0.0,0.0,0.0,0.0,0.0,0.0,0.0,4.5802,4.6918,4.696,4.6945,4.6957,4.6863,4.5557,0.0,0.0,0.0,0.0,0.0,0.0,0.0,0.0,0.0,0.0,0.0,0.0,0.0,0.0,0.0,0.0,0.0,0.0,0.0,0.0,0.0,0.0,0.0,0.0,0.0,0.0,0.0,0.0,0.0,0.0,0.0,0.0,0.0,0.0,0.0,0.0,0.0,0.0,0.0,0.0,0.0,0.0,0.0,0.0,0.0,0.0,0.0,0.0,0.0,0.0,0.0,0.0,0.0,0.0,0.0,0.0,0.0,0.0,0.0,0.0,0.0,0.0,0.0,0.0,0.0,0.0,0.0,0.0,0.0,0.0,0.0,0.0,0.0,0.0,0.0,0.0,0.0,0.0,0.0,0.0,0.0,0.0,0.0,0.0,0.0,0.0,0.0,0.0,0.0,0.0,0.0,0.0,0.0,0.0,0.0,0.0,0.0,0.0,0.0,0.0,0.0,0.0,0.0,0.0,0.0,0.0,0.0,0.0,4.5637,4.6048,4.6078,4.6074,4.6074,4.6555,4.5802,0.0,0.0,0.0,0.0,0.0,0.0,0.0,0.0,0.0,0.0,0.0,0.0,0.0,0.0,0.0,0.0,0.0,0.0,0.0,0.0,0.0,0.0,0.0,0.0,0.0,0.0,0.0,0.0,0.0,0.0,0.0,0.0,0.0,0.0,0.0,0.0,0.0,0.0,0.0,0.0,0.0,0.0,0.0,0.0,0.0,0.0,0.0,0.0,4.8558,0.0,0.0,0.0,0.0,0.0,0.0,0.0,0.0,0.0,0.0,0.0,0.0,0.0,0.0,0.0,0.0,0.0,0.0,0.0,0.0,0.0,0.0,0.0,0.0,0.0,0.0,0.0,0.0,0.0,0.0,0.0,0.0,0.0,0.0,0.0,0.0,0.0,0.0,0.0,0.0,0.0,0.0,0.0,0.0,0.0,0.0,0.0,0.0,0.0,0.0,0.0,0.0,0.0,0.0,0.0,0.0,0.0,0.0,0.0,4.5602,4.58,4.5803,4.5803,4.5819,4.6129,4.5377,0.0,0.0,0.0,0.0,0.0,0.0,0.0,0.0,0.0,0.0,0.0,0.0,0.0,0.0,0.0,0.0,0.0,0.0,0.0,0.0,0.0,0.0,0.0,0.0,0.0,0.0,0.0,0.0,0.0,0.0,0.0,0.0,0.0,0.0,0.0,0.0,0.0,0.0,0.0,0.0,0.0,0.0,0.0,0.0,0.0,0.0,0.0,0.0,0.0,0.0,0.0,0.0,0.0,0.0,0.0,0.0,0.0,0.0,0.0,0.0,0.0,0.0,0.0,0.0,0.0,0.0,0.0,0.0,0.0,0.0,0.0,0.0,0.0,0.0,0.0,0.0,0.0,0.0,0.0,0.0,0.0,0.0,0.0,0.0,0.0,0.0,0.0,0.0,0.0,0.0,0.0,0.0,0.0,0.0,0.0,0.0,0.0,0.0,0.0,0.0,0.0,0.0,0.0,0.0,0.0,0.0,0.0,4.4719,4.563,4.5796,4.5803,4.5803,4.5803,4.5803,4.4828,4.2833,0.0,0.0,0.0,0.0,0.0,0.0,0.0,0.0,0.0,0.0,0.0,0.0,0.0,0.0,0.0,0.0,0.0,0.0,0.0,0.0,0.0,0.0,0.0,0.0,0.0,0.0,0.0,0.0,0.0,0.0,0.0,0.0,0.0,0.0,0.0,0.0,0.0,0.0,4.5173,4.6045,0.0,0.0,0.0,0.0,0.0,0.0,0.0,0.0,4.9356,0.0,0.0,0.0,0.0,0.0,0.0,0.0,0.0,0.0,0.0,0.0,0.0,0.0,0.0,0.0,0.0,0.0,0.0,0.0,0.0,0.0,0.0,0.0,0.0,0.0,0.0,0.0,0.0,0.0,0.0,0.0,0.0,0.0,0.0,0.0,0.0,0.0,0.0,0.0,0.0,0.0,0.0,0.0,0.0,0.0,0.0,0.0,0.0,0.0,0.0,0.0,0.0,0.0,0.0,0.0,0.0,4.5012,4.5515,4.5778,4.5803,4.5803,4.5803,4.5803,4.5803,4.4916,4.3049,0.0,0.0,0.0,0.0,0.0,0.0,0.0,0.0,0.0,0.0,0.0,0.0,0.0,0.0,0.0,0.0,0.0,0.0,0.0,0.0,0.0,0.0,0.0,0.0,0.0,0.0,0.0,0.0,0.0,0.0,0.0,0.0,0.0,0.0,0.0,0.0,0.0,0.0,0.0,4.8255,4.9037,0.0,0.0,0.0,0.0,0.0,0.0,0.0,0.0,5.0533,0.0,0.0,0.0,0.0,0.0,0.0,0.0,0.0,0.0,0.0,0.0,0.0,0.0,0.0,0.0,0.0,0.0,0.0,0.0,0.0,0.0,0.0,0.0,0.0,0.0,0.0,0.0,0.0,0.0,0.0,0.0,0.0,0.0,0.0,0.0,0.0,0.0,0.0,0.0,0.0,0.0,0.0,0.0,0.0,0.0,0.0,0.0,0.0,0.0,0.0,0.0,0.0,0.0,0.0,0.0,4.4067,4.5187,4.5803,4.5803,4.5803,4.5803,4.5784,4.4952,4.4067,0.0,0.0,0.0,0.0,0.0,0.0,0.0,0.0,0.0,0.0,0.0,0.0,0.0,0.0,0.0,0.0,0.0,0.0,0.0,0.0,0.0,0.0,0.0,0.0,0.0,0.0,0.0,0.0,0.0,0.0,0.0,0.0,0.0,0.0,0.0,0.0,0.0,0.0,0.0,0.0,4.8352,4.9355,4.9817,0.0,0.0,0.0,0.0,0.0,0.0,5.0031,5.0111,0.0,0.0,0.0,0.0,0.0,0.0,0.0,0.0,0.0,0.0,0.0,0.0,0.0,0.0,0.0,0.0,0.0,0.0,0.0,0.0,0.0,0.0,0.0,0.0,0.0,0.0,0.0,0.0,0.0,0.0,0.0,0.0,0.0,0.0,0.0,0.0,0.0,0.0,0.0,0.0,0.0,0.0,0.0,0.0,0.0,0.0,0.0,0.0,0.0,0.0,0.0,0.0,0.0,0.0,0.0,4.3259,4.4916,4.5803,4.5803,4.5803,4.5803,4.5784,4.4507,4.362,0.0,0.0,0.0,0.0,0.0,0.0,0.0,0.0,0.0,0.0,0.0,0.0,0.0,0.0,0.0,0.0,0.0,0.0,0.0,0.0,0.0,0.0,0.0,0.0,0.0,0.0,0.0,0.0,0.0,0.0,0.0,0.0,0.0,0.0,0.0,0.0,0.0,0.0,0.0,0.0,0.0,4.9964,5.0937,5.0704,0.0,0.0,0.0,0.0,4.9393,4.9792,0.0,0.0,0.0,0.0,0.0,0.0,0.0,0.0,0.0,0.0,0.0,0.0,0.0,0.0,0.0,0.0,0.0,0.0,0.0,0.0,0.0,0.0,0.0,0.0,0.0,0.0,0.0,0.0,0.0,0.0,0.0,0.0,0.0,0.0,0.0,0.0,0.0,0.0,0.0,0.0,0.0,0.0,0.0,0.0,0.0,0.0,0.0,0.0,0.0,0.0,0.0,0.0,0.0,0.0,0.0,0.0,4.4859,4.5482,4.5803,4.5803,4.5803,4.5803,4.5803,4.561,4.4722,0.0,0.0,0.0,0.0,0.0,0.0,0.0,0.0,0.0,0.0,0.0,0.0,0.0,0.0,0.0,0.0,0.0,0.0,0.0,0.0,0.0,0.0,0.0,0.0,0.0,0.0,0.0,0.0,0.0,0.0,0.0,0.0,0.0,0.0,0.0,0.0,0.0,0.0,0.0,0.0,0.0,5.257,5.1278,5.1671,5.2089,0.0,0.0,5.031,5.1649,5.1357,0.0,0.0,0.0,0.0,0.0,0.0,0.0,0.0,0.0,0.0,0.0,0.0,0.0,0.0,0.0,0.0,0.0,0.0,0.0,0.0,0.0,0.0,0.0,0.0,0.0,0.0,0.0,0.0,0.0,0.0,0.0,0.0,0.0,0.0,0.0,0.0,0.0,0.0,0.0,0.0,0.0,0.0,0.0,0.0,0.0,0.0,0.0,0.0,0.0,0.0,0.0,0.0,0.0,0.0,0.0,4.3765,4.4487,4.5837,4.6287,4.5823,4.5803,4.5803,4.5803,4.4875,4.3729,0.0,0.0,0.0,0.0,0.0,0.0,0.0,0.0,0.0,0.0,0.0,0.0,0.0,0.0,0.0,0.0,0.0,0.0,0.0,0.0,0.0,0.0,0.0,0.0,0.0,0.0,0.0,0.0,0.0,0.0,0.0,0.0,0.0,0.0,0.0,0.0,0.0,0.0,0.0,0.0,0.0,0.0,5.2535,5.3217,0.0,0.0,0.0,5.1971,5.2062,0.0,0.0,0.0,0.0,0.0,0.0,0.0,0.0,0.0,0.0,0.0,0.0,0.0,0.0,0.0,0.0,0.0,0.0,0.0,0.0,0.0,0.0,0.0,0.0,0.0,0.0,0.0,0.0,0.0,0.0,0.0,0.0,0.0,0.0,0.0,0.0,0.0,0.0,0.0,0.0,0.0,0.0,0.0,0.0,0.0,0.0,0.0,0.0,0.0,0.0,0.0,0.0,0.0,0.0,0.0,0.0,0.0,4.4563,4.6227,4.679,4.6151,4.5904,4.577,4.5711,4.4502,0.0,0.0,0.0,0.0,0.0,0.0,0.0,0.0,0.0,0.0,0.0,0.0,0.0,0.0,0.0,0.0,0.0,0.0,0.0,0.0,0.0,0.0,0.0,0.0,0.0,0.0,0.0,3.8043,0.0,0.0,0.0,0.0,0.0,0.0,0.0,0.0,0.0,0.0,0.0,0.0,0.0,0.0,5.3077,5.3532,5.4473,5.4825,0.0,0.0,5.3142,5.2065,5.2069,5.1699,0.0,0.0,0.0,0.0,0.0,0.0,0.0,0.0,0.0,0.0,0.0,0.0,0.0,0.0,0.0,0.0,0.0,0.0,0.0,0.0,0.0,0.0,0.0,0.0,0.0,0.0,0.0,0.0,0.0,0.0,0.0,0.0,0.0,0.0,0.0,0.0,0.0,0.0,0.0,0.0,0.0,0.0,0.0,0.0,0.0,0.0,0.0,0.0,0.0,0.0,0.0,0.0,0.0,0.0,0.0,4.6284,4.6835,4.7076,4.6983,4.6229,4.5696,4.552,4.5415,4.4403,0.0,0.0,0.0,0.0,0.0,0.0,0.0,0.0,0.0,0.0,0.0,0.0,0.0,0.0,0.0,0.0,0.0,0.0,0.0,0.0,0.0,0.0,0.0,0.0,0.0,0.0,0.0,0.0,0.0,0.0,0.0,0.0,0.0,0.0,0.0,0.0,0.0,0.0,0.0,0.0,0.0,5.4381,5.371,5.4988,5.5701,0.0,0.0,5.2921,5.2062,5.1928,5.1128,4.8765,0.0,0.0,0.0,0.0,0.0,0.0,0.0,0.0,0.0,0.0,0.0,0.0,0.0,0.0,0.0,0.0,0.0,0.0,0.0,0.0,0.0,0.0,0.0,0.0,0.0,0.0,0.0,0.0,0.0,0.0,0.0,0.0,0.0,0.0,0.0,0.0,0.0,0.0,0.0,0.0,0.0,0.0,0.0,0.0,0.0,0.0,0.0,0.0,0.0,0.0,0.0,0.0,0.0,4.527,4.6253,4.7237,4.737,4.6666,4.5864,4.539,4.5314,4.5328,4.415,0.0,0.0,0.0,0.0,0.0,0.0,0.0,0.0,0.0,0.0,0.0,0.0,0.0,0.0,0.0,0.0,0.0,0.0,0.0,0.0,0.0,0.0,0.0,0.0,0.0,0.0,0.0,0.0,4.2618,4.3125,4.3944,0.0,0.0,0.0,0.0,0.0,0.0,0.0,0.0,0.0,0.0,5.5012,5.4221,5.5529,0.0,0.0,5.4643,5.439,5.3556,5.3028,5.2389,5.1432,5.0436,0.0,0.0,0.0,0.0,0.0,0.0,0.0,0.0,0.0,0.0,0.0,0.0,0.0,0.0,0.0,0.0,0.0,0.0,0.0,0.0,0.0,0.0,0.0,0.0,0.0,0.0,0.0,0.0,0.0,0.0,0.0,0.0,0.0,0.0,0.0,0.0,0.0,0.0,0.0,0.0,0.0,0.0,0.0,0.0,0.0,0.0,0.0,0.0,0.0,0.0,0.0,0.0,4.5854,4.6474,4.7477,4.76,4.6795,4.575,4.515,4.508,4.508,4.4041,0.0,0.0,0.0,0.0,0.0,0.0,0.0,0.0,0.0,0.0,0.0,0.0,0.0,0.0,0.0,0.0,0.0,0.0,0.0,0.0,0.0,0.0,0.0,0.0,0.0,0.0,0.0,0.0,4.3876,4.4233,4.4789,0.0,0.0,0.0,0.0,0.0,0.0,0.0,0.0,0.0,0.0,5.5602,5.4578,5.5836,5.6314,5.4653,5.4888,5.4963,5.4165,5.376,5.3478,5.3243,0.0,0.0,0.0,0.0,0.0,0.0,0.0,0.0,0.0,0.0,0.0,0.0,0.0,0.0,0.0,0.0,0.0,0.0,0.0,0.0,0.0,0.0,0.0,0.0,0.0,0.0,0.0,4.1949,0.0,0.0,4.0722,0.0,0.0,0.0,0.0,0.0,0.0,0.0,0.0,0.0,0.0,0.0,0.0,0.0,0.0,0.0,0.0,0.0,0.0,0.0,0.0,0.0,0.0,4.6499,4.7346,4.7615,4.7696,4.7622,4.6061,4.5082,4.4812,4.48,4.4304,4.3234,0.0,0.0,0.0,0.0,0.0,0.0,0.0,0.0,0.0,0.0,0.0,0.0,0.0,0.0,0.0,0.0,0.0,0.0,0.0,0.0,0.0,0.0,0.0,0.0,0.0,0.0,4.4451,4.5165,4.5622,0.0,0.0,0.0,0.0,0.0,0.0,0.0,0.0,0.0,0.0,5.53,5.6276,5.4661,5.5854,5.6314,5.4672,5.4465,5.4211,5.346,5.3902,5.4117,0.0,0.0,0.0,0.0,0.0,0.0,0.0,0.0,0.0,0.0,0.0,0.0,0.0,0.0,0.0,0.0,0.0,0.0,0.0,0.0,0.0,0.0,0.0,0.0,0.0,0.0,0.0,4.6154,4.4995,0.0,0.0,0.0,0.0,0.0,0.0,0.0,0.0,0.0,0.0,0.0,4.9078,5.0064,0.0,0.0,0.0,0.0,0.0,0.0,0.0,0.0,0.0,0.0,0.0,0.0,4.6448,4.7123,4.7915,4.796,4.7227,4.6118,4.5222,4.4639,4.4595,4.3908,4.2487,0.0,0.0,0.0,0.0,0.0,0.0,0.0,0.0,0.0,0.0,0.0,0.0,0.0,0.0,0.0,0.0,0.0,0.0,0.0,0.0,0.0,0.0,0.0,0.0,0.0,4.4489,0.0,0.0,0.0,0.0,0.0,0.0,0.0,0.0,0.0,0.0,0.0,5.4343,5.4328,5.581,5.6518,5.5528,5.6271,5.6699,0.0,0.0,0.0,0.0,0.0,0.0,0.0,0.0,0.0,0.0,0.0,0.0,0.0,0.0,5.6887,5.4446,5.3996,5.391,5.362,0.0,0.0,0.0,0.0,0.0,0.0,0.0,0.0,0.0,0.0,0.0,0.0,0.0,0.0,4.8707,4.7795,4.7059,0.0,0.0,0.0,0.0,0.0,0.0,0.0,0.0,5.0971,5.2103,5.1912,5.2863,5.2801,0.0,5.2039,5.0186,0.0,0.0,0.0,0.0,0.0,0.0,0.0,0.0,4.659,4.7026,4.7966,4.8124,4.7413,4.6298,4.5435,4.4939,4.4651,4.3851,4.2492,4.2217,4.1823,0.0,0.0,0.0,0.0,0.0,0.0,0.0,0.0,0.0,0.0,0.0,0.0,0.0,0.0,0.0,0.0,0.0,0.0,0.0,0.0,0.0,0.0,0.0,4.55,0.0,0.0,0.0,0.0,0.0,0.0,0.0,0.0,0.0,5.4196,5.557,5.6423,5.6058,5.7026,5.7363,5.6367,0.0,0.0,0.0,0.0,0.0,0.0,0.0,5.6672,5.7225,5.6662,5.6643,5.8248,5.8952,5.929,5.929,0.0,0.0,5.6474,5.6099,5.6117,5.6099,5.6521,5.6728,5.6211,5.6521,5.6747,0.0,0.0,0.0,0.0,0.0,0.0,0.0,0.0,4.9691,4.9776,0.0,4.8741,0.0,0.0,0.0,0.0,4.7656,5.0186,0.0,0.0,5.4586,5.5539,5.4886,5.5559,5.5563,5.4877,5.5292,5.4306,5.1953,5.0099,0.0,0.0,0.0,0.0,0.0,0.0,4.7042,4.7079,4.7864,4.8221,4.8146,4.6643,4.5754,4.5679,4.4902,4.4132,4.3407,4.4038,4.375,4.2223,4.2844,0.0,0.0,0.0,0.0,0.0,0.0,0.0,0.0,0.0,0.0,0.0,0.0,0.0,0.0,0.0,0.0,0.0,0.0,0.0,0.0,4.6891,0.0,0.0,0.0,0.0,0.0,0.0,0.0,0.0,0.0,0.0,5.583,5.7277,5.8348,5.8115,0.0,0.0,0.0,0.0,5.7817,5.7094,5.7009,5.7,5.7,5.7619,5.808,5.8136,0.0,0.0,5.929,5.929,5.929,5.929,5.929,5.929,5.9215,5.9102,5.914,5.9159,5.9102,5.9253,5.9253,5.899,5.9084,5.2285,0.0,0.0,0.0,0.0,5.1092,5.2001,5.3321,5.3224,5.2884,5.2348,5.1866,0.0,0.0,0.0,0.0,0.0,0.0,5.1995,5.2882,5.4251,5.5152,5.5659,5.5892,5.5872,5.5679,5.5819,5.5526,5.4801,5.3675,5.1209,4.7479,0.0,0.0,0.0,0.0,4.7856,4.7901,4.8701,4.8833,4.8202,4.7732,4.6906,4.5735,4.4921,4.4395,4.4177,4.4376,4.4564,4.4627,4.3764,0.0,0.0,0.0,0.0,0.0,0.0,0.0,0.0,0.0,0.0,0.0,0.0,0.0,0.0,0.0,0.0,0.0,0.0,0.0,4.5743,4.6841,4.7982,0.0,0.0,0.0,0.0,0.0,0.0,0.0,0.0,0.0,5.8005,5.8623,5.8889,0.0,0.0,5.8303,5.7957,5.8019,5.823,5.8558,5.8614,0.0,5.8614,5.8324,5.8286,5.8858,5.914,5.929,5.929,5.929,5.929,5.929,5.929,5.929,5.929,5.929,5.929,5.929,5.929,5.929,5.929,5.929,5.929,5.5209,5.3844,5.2342,5.2377,5.3381,5.3234,5.394,5.5183,5.4944,5.4657,5.4345,5.4002,5.2945,5.1428,5.099,0.0,0.0,0.0,5.3252,5.4318,5.4805,5.5383,5.5984,5.6008,5.6008,5.6003,5.5893,5.5898,5.5984,5.5183,5.3022,4.9587,0.0,0.0,4.6917,4.7743,4.8183,4.8239,4.9058,4.9246,4.872,4.8363,4.7394,4.5772,4.5221,4.4827,4.4508,4.4489,4.4864,4.5641,4.4477,4.3989,0.0,0.0,0.0,0.0,0.0,0.0,0.0,0.0,0.0,0.0,0.0,4.6897,4.5756,0.0,0.0,0.0,4.7059,4.777,4.8549,4.9927,0.0,0.0,0.0,0.0,0.0,0.0,0.0,5.8155,5.8623,5.9025,5.9416,5.957,5.9519,5.9122,5.8919,5.8754,5.871,0.0,5.8746,5.9234,5.929,5.929,5.929,5.8896,5.8737,5.9215,5.929,5.929,5.929,5.929,5.929,5.929,5.929,5.929,5.929,5.929,5.929,5.929,5.929,5.929,5.929,5.929,5.929,5.8121,5.8502,5.5346,5.4883,5.6206,5.5375,5.5508,5.6207,5.5355,5.5453,5.6094,5.5296,5.4364,5.3359,5.233,0.0,5.3446,5.4196,5.5032,5.6008,5.6008,5.6008,5.6008,5.6008,5.6008,5.6003,5.5745,5.5755,5.5958,5.5269,5.422,5.2922,5.1304,4.9921,4.8831,4.8526,4.8401,4.8408,4.9133,4.949,4.949,4.8645,4.7443,4.5866,4.5754,4.5322,4.4545,4.4489,4.4864,4.5622,4.4939,4.4519,4.4564,0.0,0.0,0.0,0.0,0.0,0.0,0.0,0.0,0.0,0.0,0.0,0.0,0.0,0.0,0.0,5.0931,0.0,5.3105,5.4694,0.0,0.0,0.0,5.6741,5.6843,5.8202,5.9138,5.9165,0.0,0.0,6.0286,6.0246,6.0139,5.9879,5.9826,5.9667,5.9364,5.9281,5.929,5.929,5.929,5.929,5.929,5.9253,5.9253,5.929,5.929,5.9328,5.9422,5.944,5.9422,5.9609,5.9497,5.9534,5.9515,5.9553,5.9422,5.944,5.9365,5.929,5.929,5.929,5.929,5.8619,5.8677,5.7256,5.6903,5.7198,5.632,5.6078,5.6193,5.5969,5.5985,5.611,5.5904,5.5627,5.5313,5.504,5.5079,5.5351,5.5525,5.5756,5.5988,5.6008,5.6008,5.6008,5.6008,5.6008,5.6003,5.5925,5.5944,5.5999,5.5813,5.5432,5.4877,5.369,5.2112,5.0263,5.0145,5.0098,5.0098,4.9723,4.9509,4.9471,4.8645,4.7725,4.6704,4.6054,4.5322,4.4545,4.4489,4.4864,4.5622,4.4921,4.4789,4.5378,4.4064,0.0,0.0,0.0,0.0,0.0,0.0,0.0,0.0,0.0,5.0681,4.7344,0.0,5.107,0.0,5.2271,5.3316,5.3803,5.494,0.0,0.0,5.8073,5.8834,5.9882,6.0186,6.0371,6.0568,6.0776,6.0887,6.0887,6.0714,6.0476,6.0154,5.9931,5.9685,5.9355,5.929,5.929,5.929,5.929,5.929,5.929,5.929,5.9328,5.929,5.9309,5.9515,6.0191,6.0276,6.0473,6.1055,6.1215,6.1205,6.1158,6.0736,6.0313,6.0238,5.976,5.929,5.929,5.929,5.929,5.926,5.9843,5.8661,5.8121,5.8043,5.6816,5.6282,5.6242,5.6206,5.6182,5.616,5.6101,5.6033,5.6008,5.6008,5.6008,5.6008,5.6008,5.6008,5.6008,5.6008,5.6008,5.6008,5.6008,5.6008,5.6008,5.6008,5.6008,5.5984,5.5884,5.5699,5.5412,5.4708,5.3691,5.2368,5.1601,5.1225,5.1225,5.0804,5.041,5.0034,4.9554,4.8577,4.7061,4.6899,4.6261,4.5071,4.5409,4.5803,4.6242,4.5484,4.5585,4.6719,4.5622,4.5303,0.0,0.0,0.0,0.0,0.0,0.0,0.0,0.0,0.0,0.0,0.0,5.2902,5.2964,5.4537,5.5797,5.6399,5.7425,5.8427,5.9401,5.9766,6.0245,6.1017,6.0977,6.0932,6.1084,6.1094,6.1094,6.1094,6.0874,6.0576,6.0259,5.9966,5.9677,5.9363,5.929,5.929,5.929,5.929,5.929,5.929,5.9628,5.9891,5.991,6.0173,6.0586,6.1055,6.113,6.128,6.1712,6.1797,6.1797,6.1778,6.1478,6.1084,6.0818,6.0721,6.0309,5.9487,5.929,5.929,5.9963,6.1086,5.959,5.891,5.8674,5.7127,5.6411,5.6291,5.6235,5.6174,5.6184,5.6065,5.6008,5.6008,5.6008,5.6008,5.6008,5.6008,5.6008,5.6008,5.6008,5.6008,5.6008,5.6008,5.6008,5.6008,5.6008,5.6008,5.6003,5.5779,5.55,5.5199,5.4957,5.4696,5.4351,5.2944,5.211,5.1912,5.1912,5.1555,5.0868,5.0756,4.9629,4.7474,4.7875,4.7462,4.596,4.6685,4.7136,4.7124,4.6523,4.6843,4.8251,4.78,4.7781,0.0,4.9986,0.0,0.0,0.0,0.0,0.0,0.0,0.0,0.0,5.4515,5.4636,5.5328,5.7282,5.8792,5.954,6.0519,6.1094,6.1094,6.1094,6.1113,6.1249,6.1176,6.1137,6.1249,6.1268,6.1268,6.1283,6.11,6.0903,6.0679,6.0422,6.0158,5.9702,5.9478,5.929,5.929,5.929,5.929,5.9384,6.0022,6.0548,6.0661,6.1168,6.1834,6.1947,6.1975,6.2022,6.2154,6.2248,6.22,6.2135,6.2098,6.1873,6.1535,6.1881,6.161,6.0002,5.9577,5.9486,6.0697,6.0312,5.9985,5.944,5.8736,5.7758,5.6955,5.6291,5.6235,5.6179,5.6106,5.6033,5.6008,5.6008,5.6008,5.6008,5.6008,5.6008,5.6008,5.6008,5.6008,5.6008,5.6008,5.6008,5.6008,5.6008,5.6008,5.6008,5.6008,5.5953,5.567,5.5224,5.5147,5.489,5.4405,0.0,0.0,0.0,5.1912,5.1837,5.1649,5.1037,5.0174,4.905,4.8476,0.0,4.6835,4.7537,4.7969,4.7995,4.8495,0.0,0.0,0.0,0.0,0.0,0.0,0.0,0.0,0.0,0.0,0.0,5.5773,5.5071,5.4889,5.6932,5.8369,5.8553,5.9745,6.0597,6.0775,6.0959,6.1094,6.1094,6.1094,6.1369,6.2022,6.1539,6.1369,6.2061,6.2138,6.2158,6.2167,6.2475,6.2554,6.2192,6.1978,6.1689,6.1338,6.0182,5.9365,5.9309,5.9422,5.9347,5.929,6.0097,6.0773,6.0717,6.128,6.205,6.2707,6.2857,6.3101,6.36,6.3825,6.3787,6.3769,6.3484,6.3106,6.3042,6.2861,6.2162,6.0433,6.0426,6.0549,6.1114,6.0692,6.0692,6.0184,0.0,5.8966,5.8042,5.682,5.6414,5.6204,5.6145,5.6082,5.6029,5.6008,5.6008,5.6008,5.6008,5.6008,5.6008,5.6008,5.6008,5.6008,5.6008,5.6008,5.6008,5.6008,5.6008,5.6008,5.6008,5.6008,5.5803,5.5395,5.5389,5.5193,5.4795,5.4676,5.4113,5.3151,5.3132,5.2926,5.2531,5.2164,5.1544,5.071,5.026,0.0,0.0,0.0,0.0,0.0,0.0,0.0,0.0,0.0,0.0,5.3723,5.4521,5.5218,5.5824,5.6236,5.7127,5.86,5.8512,5.7948,5.6951,5.8673,5.9873,6.0037,6.0572,6.0967,6.1104,6.1481,6.1732,6.1737,6.1732,6.2066,6.2743,6.1872,6.164,6.2743,6.2665,6.253,6.2994,6.3111,6.3135,6.2969,6.2563,6.2286,6.2019,6.1206,6.0558,6.0529,6.0529,6.0529,6.0633,6.1262,6.1806,6.1937,6.2501,6.3149,6.3608,6.3683,6.3844,6.4219,6.4294,6.4294,6.4306,6.419,6.4069,6.3862,6.4003,6.3712,6.229,6.1953,6.178,6.1378,6.131,6.1302,6.0887,6.0227,6.0072,5.9083,5.7571,0.0,0.0,0.0,5.6129,5.6069,5.6008,5.6008,5.6008,5.6008,5.6008,5.6008,5.6008,5.6008,5.6008,5.6008,5.6008,5.6008,5.6008,5.6008,5.6008,5.6008,5.6008,5.5875,5.5628,5.5607,5.5453,5.5199,5.494,5.4719,5.4552,5.4439,5.4079,5.3422,5.328,5.2859,5.2129,5.1979,5.1912,5.1912,5.2043,5.1893,5.1413,5.2118,5.2944,5.3816,5.4615,5.5667,5.7009,5.7926,5.8535,5.8808,5.9476,5.9988,6.0272,6.0588,6.0348,5.9364,5.9944,6.0482,6.075,6.0767,6.0869,6.108,6.1868,6.2409,6.2409,6.253,6.2975,6.3676,6.2549,6.224,6.3521,6.3342,6.3129,6.3826,6.3874,6.3701,6.361,6.3396,6.2873,6.2755,6.2218,6.1704,6.1843,6.1704,6.1713,6.1939,6.2474,6.3074,6.2989,6.3683,6.4275,6.4304,6.4354,6.4374,6.4275,6.4334,6.4394,6.4424,6.464,6.4744,6.437,6.5063,6.5467,6.4426,6.3758,6.3243,6.1393,6.1366,6.1333,6.124,6.1065,6.0328,5.9448,5.8401,5.6904,5.6153,5.601,5.6082,5.6069,5.6008,5.6008,5.6008,5.6008,5.6008,5.6008,5.6008,5.6008,5.6008,5.6008,5.6008,5.6008,5.6008,5.6008,5.6008,5.6008,5.6008,5.5851,5.5633,5.5607,5.5477,5.5199,5.494,5.4897,5.5061,5.4618,5.4352,5.4221,5.3554,5.314,5.2998,5.2306,5.1912,5.1931,5.2652,5.3291,5.3846,5.4644,5.547,5.6343,5.7103,5.7685,5.7966,5.8954,5.959,5.9628,5.995,6.0279,6.0613,6.089,6.0869,6.0519,6.0786,6.1002,6.1051,6.1046,6.1046,6.1152,6.1926,6.2467,6.253,6.3091,6.385,6.4682,6.3869,6.3637,6.4662,6.474,6.4604,6.4793,6.5304,6.5493,6.5357,6.4968,6.5026,6.4497,6.3097,6.2188,6.2431,6.2154,6.1976,6.2392,6.2711,6.319,6.312,6.3837,6.4394,6.4385,6.4587,6.4642,6.4384,6.4558,6.4705,6.476,6.5008,6.5218,6.5299,6.5789,6.594,6.5663,6.5566,6.507,6.1376,6.1324,6.1268,6.1225,6.1128,6.0291,5.973,5.9246,5.8051,5.7229,5.6727,5.6299,5.6069,5.6046,5.6491,5.6704,5.6704,5.6704,5.6699,5.6704,5.6704,5.6699,5.6762,5.7172,5.7424,5.7385,5.6917,5.6704,5.6646,5.624,5.5925,5.5861,5.6281,5.6463,5.6359,5.6554,5.6696,5.6781,5.5227,5.4464,5.4605,5.4115,5.4061,5.4484,5.4081,5.4137,5.4597,5.4999,5.5394,5.575,5.6503,5.7141,5.7535,5.8305,5.8755,5.8774,5.941,5.986,6.0019,6.0431,6.0759,6.0906,6.1022,6.1061,6.0922,6.1022,6.1094,6.1094,6.1094,6.1311,6.1771,6.2607,6.3308,6.3768,6.4179,6.474,6.532,6.4469,6.4237,6.5339,6.5262,6.5185,6.5591,6.5973,6.616,6.5991,6.5854,6.5635,6.554,6.4527,6.378,6.407,6.3897,6.379,6.3886,6.41,6.4286,6.4287,6.46,6.4837,6.4846,6.4989,6.4991,6.4889,6.4983,6.5047,6.5082,6.5317,6.5541,6.5667,6.5966,6.6165,6.6205,6.6205,6.5779,6.1413,6.1373,6.1296,6.122,6.1109,6.047,6.0196,6.0083,5.9243,5.854,5.7882,5.7058,5.6635,5.667,5.7284,5.7593,5.7593,5.7593,5.7593,5.7593,5.7593,5.7593,5.7651,5.8294,5.8589,5.8531,5.7907,5.7593,5.7497,5.6897,5.6592,5.6646,5.7265,5.7593,5.7608,5.7976,5.8223,5.8152,5.6233,5.5224,5.5333,5.4912,5.5057,5.5827,5.5874,5.6202,5.6849,5.6887,5.6981,5.7187,5.776,5.821,5.8487,5.8998,5.9364,5.9505,5.9739,6.003,6.0393,6.083,6.1094,6.1094,6.1094,6.1094,6.1094,6.1094,6.1094,6.1094,6.1094,6.1447,6.2274,6.3149,6.4043,6.4875,6.5185,6.5494,6.5953,6.5049,6.4701,6.5895,6.5629,6.5533,6.6031,6.6205,6.618,6.6155,6.5966,6.5823,6.5786,6.5621,6.5524,6.5475,6.5396,6.5226,6.5366,6.5276,6.523,6.5318,6.5276,6.5257,6.5261,6.5321,6.5344,6.5299,6.5344,6.5376,6.5425,6.5534,6.5705,6.5817,6.6047,6.618,6.6205,6.6205,6.6068,6.1563,6.1565,6.1485,6.1387,6.1273,6.1188,6.107,6.0875,6.0126,5.9754,5.9553,5.8753,5.8347,5.838,5.8415,5.8492,5.8492,5.8492,5.8473,5.8492,5.8492,5.8492,5.8531,5.8608,5.8608,5.8705,5.8627,5.8623,5.8627,5.8395,5.8314,5.8376,5.8434,5.8473,5.847,5.8333,5.8356,5.8552,5.786,5.7358,5.7039,5.6043,5.5902,5.6737,5.6783,5.6812,5.7034,5.6887,5.7271,5.7911,5.8126,5.8607,5.9486,5.9433,5.9547,6.0047,6.0134,6.0412,6.0947,6.1056,6.1094,6.1094,6.1094,6.1094,6.1094,6.1118,6.1113,6.1152,6.1133,6.1563,6.2332,6.3226,6.414,6.5011,6.5649,6.6147,6.6147,6.6089,6.605,6.6147,6.6069,6.6127,6.6166,6.6205,6.6205,6.6205,6.613,6.6093,6.6093,6.6047,6.6033,6.5974,6.5686,6.5489,6.5575,6.5437,6.5417,6.5359,6.5321,6.5374,6.5439,6.5546,6.5608,6.5519,6.5527,6.5654,6.5686,6.5705,6.5817,6.6,6.6149,6.6205,6.6205,6.6205,6.6082,6.1585,6.1594,6.1477,6.1417,6.1348,6.1345,6.1316,6.1227,6.0916,6.078,6.0744,6.0407,5.9652,5.8651,5.913,5.9362,5.9362,5.9362,5.9362,5.9362,5.9362,5.9614,6.0093,6.0634,6.1079,6.1509,6.1099,6.0847,6.0673,5.9865,5.9111,5.8705,5.9111,5.9382,5.9397,5.9722,5.9978,6.004,5.9216,5.8929,5.9075,5.7737,5.7062,5.7423,5.7879,5.8418,5.8893,5.9349,6.0005,6.0746,6.0385,6.0299,6.078,6.0193,5.9947,6.0203,6.0399,6.0666,6.1075,6.1094,6.1094,6.1094,6.1094,6.1094,6.1137,6.1558,6.1872,6.1868,6.1887,6.224,6.3096,6.3966,6.4798,6.5571,6.6011,6.6205,6.6205,6.6205,6.6205,6.6205,6.6205,6.6205,6.6205,6.6205,6.6205,6.6205,6.6205,6.6243,6.6224,6.6205,6.6205,6.6165,6.5969,6.5897,6.5955,6.5921,6.5837,6.5825,6.5831,6.5837,6.5831,6.5897,6.5944,6.5837,6.5903,6.5966,6.6008,6.6008,6.6072,6.62,6.6205,6.6205,6.6205,6.6205,6.6114,6.1631,6.1626,6.1528,6.1471,6.1452,6.1452,6.1437,6.1393,6.1412,6.1412,6.1412,6.1412,6.0665,5.9548,6.0022,6.0267,6.0276,6.046,6.0596,6.0615,6.0828,6.1253,6.1853,6.2433,6.3091,6.3521,6.3013,6.2743,6.2627,6.1621,6.062,6.0175,6.062,6.0949,6.0968,6.135,6.1442,6.1355,6.0396,6.0278,6.0842,5.9786,5.8879,5.8583,5.927,5.9996,6.0596,6.1193,6.1786,6.2359,6.1607,6.1183,6.1259,6.0591,6.0233,6.0353,6.0643,6.091,6.1089,6.1331,6.1466,6.1442,6.1466,6.1563,6.1814,6.2158,6.2491,6.2762,6.2951,6.3439,6.3985,6.4624,6.532,6.6069,6.6205,6.6205,6.6205,6.6205,6.6205,6.6205,6.6205,6.6205,6.6205,6.6205,6.6263,6.6553,6.6592,6.6553,6.663,6.6766,6.6901,6.663,6.6567,6.6451,6.6263,6.6155,6.6205,6.6205,6.6155,6.6144,6.6205,6.62,6.62,6.6019,6.6155,6.6175,6.6144,6.6179,6.6194,6.62,6.6205,6.6205,6.6205,6.6205,6.6205,6.1699,6.1699,6.1699,6.1651,6.1582,6.1582,6.1511,6.1413,6.1402,6.1398,6.1426,6.1424,6.1315,6.11,6.1138,6.1155,6.1171,6.1829,6.2138,6.222,6.296,6.3487,6.3598,6.3637,6.3637,6.3792,6.3734,6.3657,6.3618,6.354,6.3521,6.3386,6.3289,6.3424,6.3231,6.2588,6.2332,6.2153,6.1346,6.1365,6.21,6.2109,6.1277,6.0212,6.0914,6.1369,6.147,6.1487,6.1571,6.1602,6.0877,6.052,6.0716,6.0463,6.045,6.0732,6.1018,6.1157,6.1307,6.193,6.2351,6.2351,6.2356,6.2665,6.3212,6.2936,6.2955,6.356,6.4334,6.4836,6.4914,6.5049,6.5417,6.6069,6.6205,6.6205,6.6205,6.6205,6.6205,6.6205,6.6205,6.6263,6.6243,6.6205,6.6688,6.721,6.7443,6.7443,6.752,6.8095,6.8114,6.765,6.7384,6.7152,6.6437,6.6205,6.6205,6.6205,6.6205,6.6205,6.6205,6.6205,6.6205,6.6205,6.6205,6.6205,6.6205,6.6205,6.6205,6.6205,6.6205,6.6205,6.6205,6.6205,6.6205,6.1699,6.1699,6.1699,6.1698,6.1656,6.1675,6.1631,6.1583,6.1602,6.1582,6.1602,6.1582,6.1558,6.1495,6.1493,6.1666,6.1954,6.2274,6.2409,6.2433,6.2723,6.2859,6.2878,6.2878,6.3521,6.4411,6.4546,6.4527,6.4546,6.4527,6.4237,6.3753,6.3695,6.3695,6.356,6.2839,6.2409,6.2312,6.1539,6.1253,6.1577,6.1577,6.1287,6.088,6.1615,6.2334,6.2879,6.2392,6.2315,6.286,6.2064,6.1673,6.1757,6.1684,6.1924,6.2531,6.2708,6.2767,6.2805,6.3057,6.3226,6.3226,6.3212,6.3386,6.3676,6.3908,6.4213,6.4604,6.5281,6.5726,6.5765,6.576,6.5876,6.6108,6.6205,6.6205,6.6205,6.6205,6.6205,6.6205,6.6205,6.6398,6.6882,6.7036,6.7379,6.8134,6.8327,6.8332,6.8352,6.8636,6.8733,6.8462,6.8313,6.8042,6.7167,6.6495,6.6205,6.6205,6.6205,6.6205,6.6205,6.6205,6.6205,6.6205,6.6205,6.6205,6.6205,6.6205,6.6205,6.6205,6.6205,6.6205,6.6205,6.6205,6.6205,6.1699,6.1699,6.1699,6.1699,6.1699,6.1699,6.1699,6.1699,6.1699,6.1699,6.1699,6.1699,6.1655,6.161,6.1585,6.1906,6.242,6.2467,6.2455,6.2433,6.2685,6.282,6.282,6.282,6.3424,6.4411,6.4585,6.4798,6.5262,6.4836,6.4566,6.4527,6.4005,6.3874,6.3889,6.2975,6.2409,6.2235,6.1539,6.1205,6.1428,6.1515,6.1669,6.1906,6.2245,6.2665,6.3231,6.2704,6.2646,6.3071,6.2433,6.21,6.237,6.2665,6.3071,6.3623,6.3676,6.3695,6.3753,6.3947,6.4121,6.414,6.4372,6.4508,6.4546,6.5069,6.5359,6.5528,6.5818,6.6205,6.6205,6.6185,6.6205,6.6205,6.6205,6.6205,6.6205,6.6205,6.634,6.6553,6.6379,6.6746,6.7611,6.7597,6.8061,6.8985,6.9178,6.9183,6.9183,6.9454,6.9454,6.9261,6.9183,6.897,6.8294,6.7539,6.6533,6.6359,6.6205,6.6205,6.6263,6.6243,6.6282,6.6243,6.6224,6.6205,6.6205,6.6205,6.6205,6.6205,6.6205,6.6205,6.6205,6.6205,6.6205,6.1699,6.1699,6.1699,6.1699,6.1699,6.1699,6.1699,6.1699,6.1699,6.1699,6.1699,6.1699,6.1675,6.1596,6.1593,6.1963,6.239,6.2456,6.2431,6.2462,6.3149,6.3424,6.3328,6.327,6.3366,6.3715,6.3734,6.4546,6.5721,6.4566,6.4469,6.5475,6.4334,6.4024,6.4894,6.3226,6.2409,6.2235,6.1539,6.1457,6.2176,6.2148,6.2433,6.3079,6.2626,6.2341,6.2462,6.237,6.2298,6.2274,6.1621,6.1563,6.2467,6.3245,6.3734,6.3893,6.385,6.3831,6.3908,6.4701,6.5281,6.5223,6.574,6.6069,6.6069,6.6069,6.6089,6.6069,6.6127,6.6205,6.6205,6.6205,6.6205,6.6205,6.6205,6.6205,6.6205,6.6224,6.6533,6.7133,6.6901,6.7056,6.8095,6.8274,6.8487,6.9609,7.002,7.002,7.0059,7.0523,7.0711,7.0175,6.9788,6.9512,6.9125,6.8603,6.7443,6.6514,6.6321,6.6224,6.6398,6.6456,6.665,6.6669,6.665,6.6611,6.6205,6.6205,6.6205,6.6205,6.6205,6.618,6.6205,6.6205,6.6205,6.1699,6.1699,6.1699,6.1699,6.1699,6.1699,6.1699,6.1699,6.1699,6.1699,6.1699,6.1699,6.1679,6.166,6.1676,6.1773,6.1892,6.1844,6.2,6.2403,6.2685,6.2491,6.2046,6.193,6.222,6.282,6.3424,6.3947,6.4314,6.3927,6.4048,6.4256,6.3966,6.3855,6.4024,6.2994,6.2409,6.2288,6.1491,6.1171,6.1388,6.1421,6.1579,6.1738,6.1555,6.1702,6.2278,6.181,6.1519,6.1543,6.1253,6.1756,6.3115,6.4121,6.4856,6.5412,6.6011,6.5992,6.5663,6.6688,6.721,6.6882,6.694,6.7075,6.7017,6.6533,6.6243,6.6205,6.6205,6.6205,6.6205,6.6205,6.6205,6.6205,6.6205,6.6205,6.634,6.6727,6.7152,6.7481,6.7791,6.8487,6.9261,6.9247,6.9551,7.0537,7.0833,7.0827,7.0929,7.1059,7.0949,7.0194,7.0059,6.9807,6.9145,6.8642,6.7907,6.7017,6.6669,6.6572,6.6688,6.6708,6.692,6.694,6.694,6.676,6.6354,6.618,6.6175,6.6175,6.617,6.6175,6.618,6.618,6.6189,6.1992,6.1719,6.1699,6.1699,6.1699,6.1699,6.1699,6.1699,6.1699,6.1699,6.1699,6.1699,6.1699,6.1699,6.1699,6.166,6.1582,6.1473,6.1621,6.1935,6.1949,6.1601,6.1133,6.1094,6.1563,6.2259,6.2627,6.3096,6.3657,6.3076,6.3057,6.356,6.3076,6.2922,6.3076,6.2375,6.1901,6.1805,6.1312,6.1006,6.099,6.1003,6.1136,6.137,6.1444,6.1738,6.2233,6.179,6.152,6.1631,6.1872,6.2762,6.4101,6.4972,6.5682,6.6205,6.6882,6.7075,6.6475,6.7346,6.7945,6.7249,6.7307,6.7288,6.7075,6.663,6.6611,6.6243,6.6205,6.6205,6.6205,6.6205,6.6205,6.6205,6.6205,6.634,6.665,6.7152,6.7849,6.8274,6.8642,6.9338,7.0136,7.0136,7.0407,7.1059,7.1291,7.1291,7.1291,7.1272,7.0755,7.0426,7.0465,6.9918,6.9004,6.8559,6.8255,6.7636,6.707,6.7094,6.7172,6.7056,6.7109,6.6804,6.6708,6.6527,6.6174,6.6169,6.6144,6.6144,6.6134,6.6112,6.6102,6.6139,6.6158,6.25,6.1816,6.1719,6.1699,6.1699,6.1699,6.1699,6.1699,6.1699,6.1699,6.1699,6.1699,6.1699,6.1699,6.1699,6.1656,6.1588,6.149,6.1417,6.1372,6.1289,6.117,6.1103,6.1094,6.1505,6.2003,6.1577,6.2027,6.3134,6.2032,6.1911,6.3076,6.2027,6.1601,6.2201,6.1558,6.123,6.1326,6.1099,6.0985,6.0927,6.1065,6.1379,6.2028,6.2183,6.2328,6.2429,6.2355,6.2304,6.2467,6.3052,6.385,6.4894,6.5765,6.6147,6.6243,6.7017,6.694,6.6611,6.7268,6.7443,6.6727,6.7114,6.7186,6.6708,6.6882,6.6843,6.6282,6.6205,6.6205,6.6205,6.6205,6.6205,6.6224,6.634,6.6708,6.7346,6.7597,6.8429,6.9396,6.9435,6.9487,7.0987,7.0562,7.0659,7.104,7.1291,7.1253,7.1117,7.0963,7.0736,7.0446,7.0015,6.9589,6.854,6.8346,6.8139,6.8294,6.7849,6.7965,6.8042,6.7945,6.7443,6.7094,6.6769,6.6473,6.6142,6.6132,6.6085,6.6063,6.6041,6.6013,6.603,6.6074,6.611,6.2871,6.2598,6.1973,6.1699,6.1699,6.1699,6.1699,6.1699,6.1699,6.1699,6.1699,6.1699,6.1699,6.1699,6.1699,6.1699,6.1653,6.1585,6.1485,6.1387,6.1297,6.1188,6.1122,6.1094,6.121,6.1403,6.1249,6.1345,6.1718,6.135,6.1408,6.1737,6.1524,6.1563,6.2119,6.1601,6.1457,6.178,6.1285,6.0967,6.0993,6.148,6.1886,6.2105,6.2708,6.3037,6.3114,6.3141,6.2857,6.2427,6.3192,6.4101,6.5006,6.576,6.6205,6.634,6.6959,6.7114,6.6688,6.7553,6.794,6.7288,6.723,6.7379,6.7186,6.6746,6.6495,6.6205,6.6205,6.6205,6.6205,6.6205,6.6205,6.6282,6.6746,6.721,6.7655,6.8622,6.9575,6.9943,7.031,7.0731,7.1021,7.1059,7.0943,7.1195,7.1253,7.1065,7.0794,7.0808,7.0678,6.9183,6.854,6.8462,6.8211,6.8061,6.8158,6.8661,6.8777,6.9067,6.9241,6.9396,6.8642,6.7907,6.7599,6.7321,6.6535,6.6088,6.6055,6.6009,6.6003,6.5998,6.6015,6.603,6.6049,6.334,6.293,6.207,6.1699,6.1699,6.1699,6.1699,6.1699,6.1699,6.1699,6.1699,6.1699,6.1699,6.1699,6.1699,6.1699,6.168,6.1624,6.1532,6.1398,6.126,6.1163,6.1113,6.1094,6.1094,6.1094,6.1094,6.1113,6.1137,6.1094,6.1292,6.1674,6.1635,6.2085,6.2897,6.2511,6.2143,6.2179,6.1727,6.1326,6.0973,6.1304,6.2274,6.2884,6.3647,6.3973,6.4323,6.386,6.3276,6.3122,6.3718,6.4589,6.5401,6.5904,6.6205,6.6243,6.7017,6.7114,6.663,6.7501,6.7771,6.7152,6.6959,6.6959,6.6843,6.6456,6.6205,6.6205,6.6205,6.6205,6.6205,6.6205,6.6572,6.721,6.7443,6.765,6.796,6.9183,7.0078,7.0465,7.0659,7.0949,7.1195,7.1026,7.1026,7.1175,7.1291,7.0813,7.033,7.0523,7.0189,6.8642,6.7901,6.8018,6.7998,6.7868,6.8206,6.8708,6.9303,6.9675,6.9979,7.0231,6.9433,6.8629,6.8384,6.7964,6.7128,6.6349,6.6005,6.5976,6.5982,6.5976,6.5976,6.5913,6.5925,6.3808,6.291,6.207,6.1699,6.1699,6.1699,6.1699,6.1699,6.1699,6.1699,6.1699,6.1699,6.1699,6.1699,6.1699,6.1699,6.1699,6.1623,6.1504,6.1362,6.1217,6.1103,6.1103,6.1094,6.1094,6.1094,6.1094,6.1094,6.121,6.1273,6.1834,6.2433,6.2627,6.3187,6.3787,6.3724,6.3172,6.2567,6.24,6.1877,6.1412,6.1595,6.2685,6.4032,6.4339,6.4749,6.4966,6.4453,6.3684,6.3729,6.4498,6.5204,6.5925,6.6165,6.62,6.6282,6.6785,6.6901,6.6456,6.692,6.7094,6.6456,6.6282,6.6205,6.6282,6.6224,6.6205,6.6205,6.6205,6.6282,6.6456,6.6398,6.6978,6.7887,6.7868,6.8095,6.8598,6.9377,7.0189,7.0885,7.031,7.0484,7.0678,7.0697,7.0465,7.1195,7.1233,7.0833,7.033,7.0233,6.944,6.8003,6.7713,6.7849,6.7791,6.7694,6.8225,6.8775,6.946,6.9924,7.0236,7.0269,6.9742,6.9217,6.8747,6.8251,6.7638,6.6959,6.6332,6.6141,6.6288,6.6103,6.591,6.5769,6.573,6.3789,6.293,6.207,6.1699,6.1699,6.1699,6.1699,6.1699,6.1699,6.1699,6.1699,6.1699,6.1699,6.1699,6.1699,6.1699,6.1699,6.1619,6.1487,6.1308,6.118,6.1103,6.1094,6.1094,6.1094,6.1094,6.1094,6.1118,6.1331,6.2414,6.3231,6.3463,6.4101,6.4851,6.5368,6.4366,6.3541,6.3246,6.3158,6.2677,6.2267,6.2935,6.382,6.4666,6.4705,6.4749,6.4868,6.4634,6.4482,6.4597,6.4819,6.5378,6.5995,6.6233,6.6282,6.634,6.6398,6.6456,6.6301,6.6437,6.6437,6.6263,6.6205,6.6205,6.6205,6.6205,6.6205,6.6205,6.6205,6.6475,6.7114,6.723,6.7539,6.8003,6.8236,6.8197,6.8056,6.8564,6.9222,6.9415,6.9783,7.0078,7.031,7.0813,7.0891,7.1233,7.1117,7.0852,7.0407,6.9943,6.8796,6.7481,6.7288,6.7365,6.7283,6.7446,6.8251,6.8814,6.9505,6.9965,7.0276,7.0483,7.0027,6.9509,6.894,6.8487,6.8193,6.7372,6.6718,6.6685,6.6541,6.6217,6.5935,6.574,6.5623,6.4023,6.3476,6.2246,6.1699,6.1699,6.1699,6.1699,6.1699,6.1699,6.1699,6.1699,6.1699,6.1699,6.1699,6.1699,6.1699,6.168,6.1562,6.1432,6.1294,6.1178,6.1099,6.1094,6.1094,6.1094,6.1157,6.1563,6.1698,6.2162,6.3366,6.4488,6.4856,6.5359,6.5919,6.6517,6.5398,6.461,6.4133,6.4016,6.3559,6.3043,6.3474,6.457,6.5166,6.5557,6.5782,6.5883,6.5453,6.5347,6.5354,6.5404,6.5622,6.6163,6.6557,6.6785,6.6804,6.6804,6.6804,6.6804,6.6437,6.6224,6.6224,6.6205,6.6205,6.6205,6.6205,6.6205,6.6205,6.6301,6.6669,6.7907,6.8095,6.8216,6.8506,6.8332,6.8018,6.7752,6.825,6.8791,6.8849,6.9203,6.9614,7.004,7.062,7.0987,7.1161,7.1195,7.0891,6.9686,6.9145,6.8294,6.7346,6.6978,6.6804,6.6702,6.7179,6.8232,6.8866,6.9481,6.9812,7.0065,7.0277,7.0399,6.9861,6.9361,6.9278,6.8893,6.8013,6.725,6.6949,6.6704,6.6313,6.6017,6.5862,6.576,6.416,6.3789,6.2305,6.1699,6.1699,6.1699,6.1699,6.1699,6.1699,6.1699,6.1699,6.1699,6.1699,6.1699,6.1699,6.1699,6.1607,6.1493,6.1354,6.124,6.1152,6.1103,6.1094,6.1094,6.1249,6.135,6.1945,6.2351,6.3187,6.4329,6.5508,6.6224,6.6379,6.6711,6.7051,6.6491,6.5462,6.4694,6.4763,6.4433,6.3768,6.3839,6.4705,6.5609,6.6224,6.6551,6.6455,6.6146,6.5958,6.6187,6.6223,6.6334,6.6648,6.6986,6.7636,6.7636,6.7694,6.7689,6.7597,6.7133,6.6727,6.6475,6.6437,6.6301,6.6263,6.6398,6.6533,6.6572,6.6766,6.7423,6.8752,6.8965,6.9299,6.9473,6.8545,6.7824,6.7805,6.8294,6.8424,6.8559,6.883,6.9261,6.9827,7.0407,7.0755,7.1045,7.1084,7.0808,6.9642,6.854,6.7843,6.736,6.7036,6.6933,6.6845,6.6945,6.7997,6.8519,6.9209,6.927,6.9496,6.9573,6.9695,7.017,6.9926,6.9669,6.9425,6.8853,6.8129,6.7455,6.6969,6.6688,6.6361,6.6021,6.5946,6.3437,6.2109,6.1816,6.1719,6.1719,6.1719,6.1738,6.1699,6.1699,6.1699,6.1699,6.1699,6.1699,6.1699,6.1699,6.1621,6.1491,6.1391,6.1311,6.1175,6.1108,6.1099,6.1094,6.1249,6.1539,6.2042,6.2544,6.3245,6.4348,6.5528,6.6374,6.7089,6.7205,6.7364,6.7128,6.6524,6.5666,6.5113,6.5298,6.5108,6.4711,6.4936,6.532,6.5904,6.6147,6.6211,6.6228,6.6142,6.6341,6.7065,6.723,6.7638,6.7996,6.7877,6.8018,6.8424,6.8564,6.854,6.8385,6.8366,6.7926,6.752,6.7288,6.692,6.6669,6.6882,6.723,6.7462,6.7926,6.8738,6.9667,6.9783,6.9807,6.9749,6.9261,6.8559,6.8443,6.8211,6.8081,6.8294,6.8642,6.9087,6.9769,7.0407,7.091,7.0949,7.0697,7.0686,7.0095,6.8897,6.7838,6.7457,6.7172,6.7155,6.7161,6.7236,6.7679,6.7958,6.8333,6.818,6.8379,6.8565,6.8828,6.9001,6.9356,6.9334,6.9192,6.9198,6.9129,6.8552,6.7889,6.7128,6.6879,6.6629,6.6254,6.4473,6.3672,6.3262,6.2773,6.2402,6.2383,6.2109,6.1738,6.1699,6.1699,6.1699,6.1699,6.1699,6.1699,6.1699,6.1601,6.1445,6.1343,6.1266,6.1121,6.1094,6.1094,6.1234,6.1519,6.2278,6.2994,6.3536,6.4058,6.5069,6.6282,6.6963,6.7304,6.7453,6.7407,6.7178,6.6459,6.5839,6.5515,6.5672,6.5705,6.5282,6.5724,6.5865,6.5884,6.5884,6.5897,6.6005,6.6434,6.679,6.7315,6.7818,6.8525,6.8974,6.9106,6.8932,6.9299,6.9377,6.9183,6.8907,6.8752,6.8346,6.7689,6.7882,6.7998,6.7752,6.7965,6.8172,6.8366,6.8893,6.9551,6.9943,7.0368,7.0426,7.004,6.9609,6.9241,6.8874,6.8429,6.8448,6.8603,6.9222,6.9705,6.9904,7.0523,7.1098,7.0963,7.0402,7.0211,7.0137,6.888,6.7464,6.7224,6.6962,6.7148,6.723,6.7406,6.7402,6.7607,6.7551,6.7391,6.7371,6.7621,6.7501,6.7429,6.7875,6.8636,6.898,6.9002,6.929,6.9466,6.8396,6.7545,6.7446,6.7236,6.6804,6.5488,6.5273,6.459,6.3906,6.3281,6.3066,6.2617,6.2031,6.1777,6.1699,6.1699,6.1699,6.1699,6.1699,6.168,6.1572,6.1408,6.1337,6.1225,6.1116,6.1113,6.1133,6.1563,6.2066,6.2878,6.3927,6.443,6.5185,6.5774,6.6518,6.7105,6.7291,6.7288,6.707,6.6744,6.6277,6.601,6.5941,6.5884,6.5884,6.5884,6.5884,6.5884,6.5884,6.5884,6.591,6.5993,6.6659,6.7246,6.778,6.8444,6.9212,6.9849,7.0001,7.0001,7.0001,7.0001,6.9614,6.9299,6.9087,6.8893,6.8371,6.8719,6.8874,6.8835,6.8796,6.9125,6.9357,6.9821,7.0272,7.0446,7.0871,7.0871,7.0504,7.0136,6.9865,6.957,6.9377,6.9531,6.9783,7.0136,7.0136,7.0136,7.0112,7.057,6.9944,6.9383,6.9273,6.9043,6.7962,6.6907,6.6761,6.6713,6.7004,6.7232,6.7484,6.7395,6.7301,6.7032,6.6731,6.6698,6.6734,6.6563,6.6516,6.7095,6.7844,6.8291,6.8866,6.9351,6.9283,6.8435,6.814,6.8297,6.7846,6.7224,6.5137,6.4473,6.4375,6.4238,6.4004,6.334,6.2949,6.2695,6.1973,6.1699,6.1699,6.1699,6.1699,6.168,6.1624,6.1519,6.1405,6.1292,6.1201,6.1113,6.1113,6.1481,6.2119,6.2293,6.339,6.4473,6.4923,6.59,6.6436,6.6457,6.6706,6.7051,6.662,6.6194,6.6275,6.6099,6.6022,6.5978,6.5929,6.5884,6.5884,6.5884,6.5884,6.5884,6.5904,6.5923,6.6068,6.676,6.7512,6.8334,6.9231,6.9805,7.0001,7.0001,7.0001,7.0001,7.0001,6.9943,6.9788,6.9846,6.9725,6.9479,6.9807,6.9473,6.9512,6.9667,7.0156,7.0987,7.1084,7.1026,7.0968,7.1175,7.1195,7.0929,7.0504,7.0601,7.0537,7.0112,7.0286,7.0382,7.0581,7.0233,7.002,6.9957,6.9849,6.9077,6.8483,6.8474,6.8208,6.7392,6.6529,6.6387,6.6693,6.7035,6.694,6.7249,6.723,6.7045,6.6628,6.6173,6.6112,6.6104,6.6025,6.6107,6.669,6.6847,6.6951,6.7735,6.903,6.9224,6.8569,6.8836,6.937,6.8643,6.7655,6.6113,6.5781,6.5781,6.5195,6.4297,6.3887,6.3164,6.2324,6.1875,6.1699,6.1699,6.1699,6.1698,6.1647,6.1543,6.1424,6.133,6.1225,6.1169,6.1151,6.121,6.1616,6.2346,6.2907,6.3839,6.4679,6.5354,6.579,6.6389,6.6405,6.6356,6.6485,6.6241,6.6014,6.5964,6.594,6.5947,6.5935,6.5916,6.5884,6.5884,6.5884,6.5884,6.5884,6.5884,6.5903,6.6127,6.6773,6.7378,6.8046,6.8759,6.9267,6.9308,6.9261,6.9145,6.8603,6.9067,6.9493,6.9943,7.0426,7.0407,7.0446,7.0794,7.1349,7.1001,7.075,7.0794,7.1214,7.1272,7.1291,7.1291,7.1291,7.1291,7.1137,7.0866,7.0963,7.1084,7.1007,7.0871,7.0929,7.0847,7.0305,6.9893,6.9888,6.9731,6.9184,6.8778,6.8743,6.8433,6.78,6.6907,6.6115,6.6593,6.7134,6.6891,6.684,6.6801,6.6635,6.6365,6.5955,6.5644,6.5562,6.5622,6.5958,6.6578,6.6465,6.5962,6.6853,6.8424,6.8709,6.8755,6.8923,6.9056,6.8936,6.791,6.6894,6.6894,6.6894,6.6015,6.4629,6.4414,6.3457,6.2109,6.1797,6.1699,6.1699,6.1699,6.1655,6.1558,6.145,6.1329,6.1235,6.111,6.123,6.1293,6.1486,6.194,6.2775,6.3522,6.4226,6.4902,6.5603,6.5986,6.6024,6.6069,6.6063,6.6003,6.6027,6.594,6.5897,6.5891,6.5891,6.5891,6.5904,6.5884,6.5884,6.5884,6.5884,6.5884,6.5884,6.5884,6.6025,6.6761,6.7276,6.7504,6.8304,6.8784,6.8534,6.8443,6.825,6.8003,6.8448,6.9261,6.9879,7.0426,7.0736,7.1142,7.1601,7.2413,7.2645,7.2026,7.1485,7.1678,7.1374,7.133,7.1291,7.1291,7.1291,7.1291,7.1214,7.1272,7.1253,7.1084,7.0833,7.0659,7.0435,6.9999,6.9723,6.9819,6.9612,6.9233,6.9058,6.8991,6.8558,6.7994,6.7545,6.6729,6.7057,6.7539,6.7321,6.6981,6.6731,6.6327,6.6077,6.5865,6.5656,6.5553,6.5611,6.602,6.6493,6.6755,6.6671,6.7241,6.7712,6.7524,6.7535,6.8153,6.8405,6.8423,6.8177,6.6894,6.6894,6.6875,6.6308,6.5332,6.4629,6.373,6.2617,6.1992,6.1719,6.1699,6.1699,6.1609,6.1499,6.1347,6.1217,6.1119,6.1046,6.1348,6.1771,6.216,6.2485,6.3218,6.3985,6.4649,6.5002,6.5624,6.5965,6.6009,6.6007,6.6001,6.6002,6.5954,6.5897,6.5884,6.5884,6.5884,6.5884,6.5884,6.5884,6.5884,6.5884,6.5884,6.5884,6.5884,6.5904,6.5948,6.6701,6.7112,6.7155,6.7895,6.8137,6.7689,6.7617,6.7423,6.7733,6.8308,6.9203,7.0054,7.0446,7.1007,7.191,7.2471,7.2723,7.3187,7.2065,7.1775,7.2046,7.1568,7.133,7.1291,7.1291,7.1291,7.1291,7.1291,7.1291,7.1214,7.1059,7.0794,7.0426,6.9927,6.9364,6.9339,6.9385,6.9164,6.8758,6.8723,6.8661,6.8475,6.8045,6.8058,6.7763,6.7892,6.8052,6.7994,6.7532,6.6667,6.632,6.6128,6.5981,6.584,6.5752,6.5558,6.5935,6.636,6.6881,6.724,6.7117,6.6861,6.6271,6.6315,6.7049,6.7778,6.8076,6.7866,6.6894,6.6855,6.6328,6.5605,6.4746,6.3867,6.3008,6.2246,6.1836,6.1699,6.1699,6.161,6.1511,6.1387,6.1233,6.1128,6.1056,6.101,6.1248,6.1339,6.1571,6.2284,6.3141,6.391,6.4432,6.5261,6.581,6.5933,6.5947,6.5954,6.5947,6.5929,6.5916,6.591,6.5884,6.5884,6.5884,6.5884,6.5884,6.5884,6.5884,6.5884,6.5884,6.5884,6.5954,6.596,6.6023,6.6335,6.6516,6.6684,6.7077,6.7026,6.6901,6.6804,6.7036,6.752,6.8327,6.9377,7.0479,7.0794,7.1394,7.2026,7.2181,7.22,7.3071,7.1949,7.1523,7.1562,7.151,7.1195,7.1291,7.1291,7.1291,7.1291,7.1291,7.1291,7.1156,7.0968,7.0639,7.0233,6.9325,6.848,6.8662,6.8886,6.8613,6.8319,6.834,6.8328,6.8212,6.809,6.8064,6.784,6.784,6.7552,6.7417,6.6917,6.6404,6.6263,6.6147,6.6013,6.5859,6.5566,6.547,6.5851,6.5931,6.5993,6.6132,6.629,6.6122,6.5795,6.5764,6.6062,6.6791,6.7677,6.7611,6.6523,6.6367,6.5293,6.4648,6.4199,6.3359,6.2519,6.1797,6.1719,6.1699,6.1698,6.155,6.1436,6.1281,6.1143,6.1016,6.0955,6.0958,6.1131,6.1318,6.1627,6.2081,6.286,6.3646,6.4348,6.5247,6.582,6.5891,6.5897,6.5884,6.591,6.591,6.5884,6.5884,6.5884,6.5884,6.5884,6.5884,6.5884,6.5884,6.5884,6.5884,6.5923,6.5923,6.596,6.5971,6.5988,6.6134,6.616,6.6198,6.6285,6.6258,6.6224,6.6321,6.6688,6.7481,6.839,6.9493,7.0595,7.1814,7.2278,7.2935,7.2297,7.2258,7.2181,7.164,7.0968,7.1316,7.1142,7.1007,7.1156,7.1291,7.1291,7.1291,7.1291,7.1272,7.1001,7.0775,7.0407,7.0001,6.9217,6.8775,6.888,6.9211,6.9046,6.8854,6.8963,6.8719,6.8193,6.8103,6.8026,6.7705,6.734,6.6936,6.6481,6.6308,6.6173,6.6115,6.5994,6.5974,6.5795,6.5499,6.563,6.617,6.5998,6.5219,6.5137,6.5483,6.5538,6.5483,6.5654,6.5966,6.6839,6.768,6.7631,6.5625,6.541,6.3828,6.3574,6.4082,6.3359,6.2461,6.1758,6.1699,6.1699,6.1676,6.1543,6.1433,6.1285,6.1084,6.0939,6.0867,6.0848,6.1195,6.1759,6.1655,6.2022,6.269,6.3454,6.3941,6.3897,6.4801,6.5686,6.5884,6.5884,6.5884,6.5884,6.5884,6.5884,6.5884,6.5884,6.5884,6.5884,6.5884,6.5884,6.5884,6.5904,6.5929,6.5966,6.5947,6.5964,6.6021,6.6041,6.6085,6.6118,6.616,6.62,6.6205,6.6205,6.6669,6.7592,6.8371,6.9241,7.0175,7.2433,7.3284,7.3148,7.2167,7.2013,7.1988,7.12,7.0368,7.0813,7.0601,7.0639,7.0929,7.1291,7.1291,7.1291,7.1291,7.1217,7.0966,7.0518,7.014,6.9858,6.9855,6.977,6.9712,6.9676,6.9572,6.952,6.961,6.9129,6.816,6.7872,6.7718,6.7378,6.6936,6.6789,6.6423,6.6115,6.5942,6.5904,6.5884,6.5884,6.5814,6.5616,6.5908,6.646,6.5944,6.5045,6.4802,6.475,6.4703,6.477,6.5683,6.6239,6.7082,6.7658,6.7695,6.4726,6.4629,6.3496,6.3164,6.3301,6.2519,6.1953,6.1738,6.1699,6.1717,6.1649,6.1487,6.1354,6.1218,6.1011,6.085,6.081,6.0819,6.1268,6.1922,6.1575,6.2108,6.2647,6.298,6.3441,6.4128,6.4955,6.5513,6.5884,6.5884,6.5884,6.5884,6.5884,6.5884,6.5884,6.5884,6.5884,6.5884,6.5884,6.5884,6.5884,6.5904,6.5935,6.6008,6.597,6.6003,6.6063,6.6091,6.6118,6.6144,6.62,6.6205,6.6205,6.6205,6.6862,6.7901,6.881,6.9783,7.1098,7.2665,7.2626,7.2162,7.1568,7.1065,7.0717,6.9899,6.9821,7.0175,7.0117,7.0368,7.1065,7.1253,7.1291,7.128,7.1275,7.1241,7.0973,7.0367,6.9894,6.9663,6.9562,6.9263,6.9111,6.9521,6.9565,6.9007,6.8879,6.8032,6.7071,6.7167,6.7167,6.6859,6.6577,6.6577,6.6423,6.6077,6.5904,6.5904,6.5884,6.5884,6.5795,6.569,6.5724,6.6003,6.5462,6.4891,6.4643,6.4339,6.3935,6.4096,6.5218,6.5979,6.6506,6.7305,6.7973,6.3848,6.375,6.291,6.2558,6.2461,6.1933,6.1699,6.1699,6.1698,6.1673,6.1602,6.1402,6.1255,6.1131,6.0933,6.08,6.08,6.0819,6.0902,6.1556,6.1133,6.1473,6.1954,6.2589,6.3243,6.4109,6.4878,6.5436,6.5865,6.5884,6.5884,6.5884,6.5884,6.5884,6.5884,6.5884,6.5884,6.5884,6.5884,6.5884,6.591,6.5929,6.5953,6.5988,6.6009,6.6041,6.6107,6.6149,6.6165,6.6175,6.6205,6.6205,6.6205,6.6379,6.6959,6.7945,6.9159,6.986,7.0764,7.1446,7.1156,7.0479,7.0059,6.9865,6.9517,6.8816,6.897,6.928,6.9556,7.0286,7.0963,7.1137,7.1275,7.1289,7.1236,7.1201,7.0986,7.0385,7.0096,6.9821,6.909,6.8758,6.8642,6.9078,6.9456,6.8725,6.7994,6.7109,6.6346,6.6481,6.6667,6.6442,6.625,6.625,6.6192,6.6019,6.5904,6.5884,6.5884,6.5884,6.5872,6.5801,6.567,6.5547,6.5295,6.4964,6.4397,6.4004,6.384,6.4205,6.5106,6.5682,6.5968,6.7028,6.8238,6.3008,6.2832,6.2051,6.1758,6.1719,6.1719,6.1699,6.1717,6.1716,6.1616,6.1484,6.1365,6.1193,6.1031,6.085,6.0787,6.08,6.08,6.0979,6.096,6.0941,6.1114,6.1608,6.2435,6.2916,6.3705,6.4493,6.5109,6.5743,6.5884,6.5884,6.5884,6.5884,6.5884,6.5884,6.5884,6.5884,6.5884,6.5884,6.5884,6.591,6.596,6.5995,6.6023,6.6019,6.608,6.6153,6.6169,6.6155,6.617,6.6205,6.6205,6.6205,6.6205,6.6766,6.7655,6.9028,6.9338,6.9429,6.9976,6.9821,6.9435,6.9473,6.9299,6.8777,6.8023,6.8042,6.8501,6.897,6.9951,7.0758,7.1018,7.1258,7.1224,7.119,7.1096,7.0996,7.0695,7.0496,6.9932,6.8931,6.8514,6.8687,6.9033,6.8802,6.834,6.7705,6.7494,6.675,6.6109,6.6224,6.6154,6.6,6.5942,6.5884,6.5884,6.5884,6.5884,6.5884,6.5884,6.5884,6.5884,6.5801,6.5656,6.5463,6.5076,6.4538,6.4192,6.4002,6.4493,6.4955,6.5578,6.5931,6.7629,6.8634,6.2637,6.207,6.1816,6.1699,6.1699,6.1698,6.1717,6.1716,6.171,6.1618,6.1498,6.131,6.1132,6.0988,6.085,6.0804,6.08,6.0896,6.1287,6.1287,6.1018,6.1268,6.1691,6.221,6.246,6.2858,6.3589,6.4609,6.5109,6.5493,6.5884,6.5884,6.5884,6.5884,6.5884,6.5884,6.5884,6.5884,6.5904,6.5904,6.5923,6.5978,6.5993,6.6021,6.6052,6.6137,6.6174,6.6184,6.617,6.618,6.6205,6.6205,6.6205,6.6224,6.6592,6.7462,6.8448,6.9028,6.8868,6.9004,6.8951,6.8564,6.8487,6.8139,6.7694,6.7326,6.7109,6.7785,6.8568,6.9543,7.0319,7.0708,7.0911,7.0922,7.0886,7.083,7.0728,7.0645,7.0363,6.9393,6.8411,6.7981,6.8231,6.8129,6.7859,6.7628,6.7436,6.7308,6.7,6.6308,6.5974,6.5904,6.5884,6.5884,6.5884,6.5884,6.5884,6.5884,6.5884,6.5884,6.5884,6.5884,6.5884,6.5788,6.5582,6.5188,6.47,6.4417,6.4172,6.4072,6.4486,6.5236,6.6172,6.7591,6.8498,6.2187,6.1738,6.1699,6.1699,6.1699,6.1717,6.1714,6.1692,6.1649,6.1531,6.1365,6.1188,6.1051,6.0932,6.0825,6.08,6.08,6.08,6.1056,6.1114,6.1056,6.1133,6.1479,6.1979,6.2403,6.2608,6.3128,6.4141,6.482,6.5455,6.5884,6.5884,6.5884,6.5865,6.5884,6.5884,6.5884,6.591,6.5923,6.5916,6.5947,6.5983,6.6015,6.6019,6.6085,6.6149,6.62,6.6205,6.6205,6.6205,6.6205,6.6205,6.6205,6.6224,6.6282,6.7056,6.7733,6.7926,6.7766,6.8081,6.8042,6.7785,6.736,6.7114,6.692,6.665,6.6959,6.7495,6.8281,6.9071,6.9739,7.0309,7.0429,7.0554,7.0516,7.0497,7.0439,7.0406,6.9661,6.87,6.7981,6.7411,6.7192,6.7096,6.7135,6.7225,6.7128,6.6923,6.6654,6.6173,6.5942,6.5904,6.5884,6.5884,6.5884,6.5884,6.5884,6.5884,6.5884,6.5884,6.5884,6.5884,6.5884,6.5833,6.5735,6.5341,6.4948,6.4629,6.4397,6.4298,6.4268,6.4881,6.5683,6.6682,6.7308,6.1777,6.1699,6.1699,6.1699,6.1699,6.1713,6.1687,6.168,6.1513,6.1389,6.1209,6.1053,6.0929,6.0847,6.0787,6.08,6.08,6.08,6.0819,6.0819,6.0858,6.0921,6.1172,6.1652,6.2114,6.2801,6.3295,6.3628,6.5032,6.5397,6.5282,6.5743,6.5513,6.5416,6.5532,6.557,6.5654,6.591,6.5947,6.5972,6.5959,6.5998,6.6069,6.6047,6.6112,6.6205,6.6205,6.6205,6.6205,6.6205,6.6205,6.6205,6.6205,6.6205,6.6243,6.6417,6.7056,6.6998,6.691,6.7118,6.6944,6.6634,6.6209,6.6329,6.6313,6.629,6.6662,6.7039,6.7746,6.8295,6.8923,6.942,6.9661,6.9688,6.965,6.9624,6.9598,6.9366,6.8674,6.7827,6.7269,6.6769,6.6692,6.6654,6.6609,6.684,6.6808,6.6519,6.6346,6.5981,6.5923,6.5884,6.5884,6.5884,6.5884,6.5884,6.5884,6.5884,6.5884,6.5884,6.5884,6.5884,6.5884,6.5846,6.5781,6.5589,6.5284,6.4951,6.4649,6.4424,6.4466,6.4692,6.5326,6.6023,6.6298,6.2305,6.1699,6.1698,6.1717,6.1717,6.1707,6.1642,6.1533,6.1356,6.1246,6.1184,6.1059,6.0923,6.081,6.08,6.08,6.08,6.08,6.08,6.08,6.08,6.08,6.0935,6.1537,6.1864,6.171,6.2095,6.3051,6.3858,6.4109,6.432,6.4801,6.4628,6.4551,6.5147,6.5166,6.5404,6.5865,6.5947,6.5971,6.5989,6.5992,6.6016,6.6074,6.6144,6.618,6.6205,6.6205,6.6205,6.6205,6.6205,6.6205,6.6205,6.618,6.62,6.6243,6.6446,6.6383,6.6372,6.6429,6.6336,6.6256,6.6091,6.6063,6.6063,6.6116,6.6306,6.6656,6.7092,6.7601,6.8022,6.8505,6.8821,6.8777,6.8751,6.8738,6.8725,6.8205,6.7654,6.7096,6.6538,6.6365,6.6288,6.6231,6.6186,6.6167,6.6154,6.6058,6.6096,6.5904,6.5904,6.5884,6.5884,6.5884,6.5884,6.5884,6.5884,6.5884,6.5884,6.5884,6.5884,6.5884,6.5884,6.5884,6.5821,6.567,6.5506,6.5276,6.4981,6.4651,6.442,6.4519,6.4546,6.509,6.5325,6.2128,6.1672,6.1666,6.167,6.1674,6.1628,6.1565,6.1463,6.1236,6.11,6.1095,6.0983,6.0867,6.0787,6.08,6.08,6.08,6.08,6.08,6.08,6.08,6.08,6.1075,6.1325,6.1595,6.1518,6.2185,6.2897,6.2897,6.3314,6.3756,6.432,6.4006,6.4147,6.4936,6.5186,6.532,6.5865,6.5909,6.5965,6.6007,6.6013,6.6036,6.6085,6.6128,6.617,6.6205,6.6205,6.6205,6.6194,6.6179,6.6123,6.6107,6.6096,6.6102,6.6102,6.6121,6.6107,6.6102,6.6085,6.6058,6.6041,6.6011,6.6019,6.6013,6.6066,6.6055,6.6429,6.6979,6.7491,6.7492,6.7839,6.7866,6.7847,6.7834,6.7847,6.7821,6.759,6.7039,6.65,6.6154,6.6096,6.6038,6.6058,6.6013,6.6013,6.5923,6.5904,6.5904,6.5884,6.5884,6.5884,6.5884,6.5884,6.5884,6.5884,6.5884,6.5884,6.5884,6.5884,6.5884,6.5884,6.5884,6.5884,6.5872,6.5827,6.5642,6.5415,6.5081,6.4693,6.4445,6.4276,6.4296,6.4342,6.4542,6.1695,6.1614,6.161,6.163,6.1671,6.1552,6.1491,6.1405,6.1155,6.0983,6.0964,6.0869,6.0793,6.08,6.08,6.08,6.08,6.08,6.08,6.08,6.08,6.08,6.08,6.0877,6.121,6.1666,6.2243,6.2306,6.2268,6.257,6.3051,6.4032,6.4436,6.4609,6.5269,6.5654,6.5615,6.5634,6.5717,6.592,6.5992,6.6039,6.6058,6.608,6.6123,6.618,6.6205,6.6175,6.6175,6.6149,6.6137,6.6074,6.6047,6.6036,6.603,6.6036,6.6036,6.603,6.6019,6.6032,6.6021,6.6009,6.599,6.5984,6.5992,6.5986,6.5993,6.6232,6.6786,6.6979,6.6999,6.7006,6.6994,6.7,6.7,6.7,6.6981,6.6942,6.6481,6.5961,6.5942,6.5904,6.5884,6.5884,6.5884,6.5884,6.5884,6.5884,6.5884,6.5884,6.5884,6.5884,6.5884,6.5884,6.5884,6.5884,6.5884,6.5884,6.5884,6.5884,6.5884,6.5884,6.5884,6.5884,6.5865,6.5846,6.5716,6.5499,6.5137,6.4839,6.4593,6.4396,6.4277,6.427,6.4077,6.1699,6.1677,6.1616,6.1637,6.1681,6.157,6.1412,6.124,6.109,6.0948,6.085,6.0833,6.08,6.08,6.08,6.08,6.08,6.08,6.08,6.08,6.08,6.08,6.08,6.08,6.0883,6.1185,6.1512,6.1575,6.1691,6.1575,6.1787,6.2691,6.271,6.2864,6.3095,6.3845,6.5013,6.5147,6.5647,6.596,6.5995,6.6032,6.6085,6.6123,6.6175,6.6205,6.6175,6.6139,6.6123,6.6096,6.6058,6.6019,6.5996,6.6003,6.6003,6.5998,6.5998,6.5998,6.5992,6.5988,6.5982,6.5976,6.5958,6.5921,6.5934,6.5934,6.5928,6.5928,6.6275,6.6275,6.6282,6.6282,6.6288,6.6288,6.6288,6.6288,6.6269,6.6269,6.6077,6.5923,6.5904,6.5884,6.5884,6.5884,6.5884,6.5884,6.5884,6.5884,6.5884,6.5884,6.5846,6.5884,6.5884,6.5884,6.5884,6.5884,6.5884,6.5884,6.5884,6.5884,6.5884,6.5884,6.5884,6.5884,6.5884,6.5872,6.5722,6.5664,6.5465,6.519,6.4839,6.4583,6.4417,6.433,6.4231]}]]